<?xml version="1.0" encoding="UTF-8" standalone="no" ?>
<gpx xmlns="http://www.topografix.com/GPX/1/1" xmlns:xsi="http://www.w3.org/2001/XMLSchema-instance" xsi:schemaLocation="http://www.topografix.com/GPX/1/1 http://www.topografix.com/GPX/1/1/gpx.xsd" version="1.1" creator="VisuGPX - https://www.visugpx.com">
  <metadata>
    <name>montaygu du quercy 40km</name>
    <desc><![CDATA[rando 25/09/2011]]></desc>
  </metadata>
  <trk>
    <name><![CDATA[25-SEP-11 11:50:13]]></name>
    <trkseg>
      <trkpt lat="44.3415" lon="1.02062">
        <ele>161.64</ele>
        <time>2011-09-25T06:45:09Z</time>
      </trkpt>
      <trkpt lat="44.3415" lon="1.02062">
        <ele>160.68</ele>
        <time>2011-09-25T06:45:18Z</time>
      </trkpt>
      <trkpt lat="44.33937" lon="1.0204">
        <ele>158.75</ele>
        <time>2011-09-25T06:49:31Z</time>
      </trkpt>
      <trkpt lat="44.3392" lon="1.02031">
        <ele>158.75</ele>
        <time>2011-09-25T06:49:35Z</time>
      </trkpt>
      <trkpt lat="44.33917" lon="1.02027">
        <ele>158.75</ele>
        <time>2011-09-25T06:49:36Z</time>
      </trkpt>
      <trkpt lat="44.33915" lon="1.02022">
        <ele>159.24</ele>
        <time>2011-09-25T06:49:37Z</time>
      </trkpt>
      <trkpt lat="44.33912" lon="1.02017">
        <ele>158.27</ele>
        <time>2011-09-25T06:49:38Z</time>
      </trkpt>
      <trkpt lat="44.33889" lon="1.01955">
        <ele>159.72</ele>
        <time>2011-09-25T06:49:49Z</time>
      </trkpt>
      <trkpt lat="44.33889" lon="1.01949">
        <ele>159.72</ele>
        <time>2011-09-25T06:49:50Z</time>
      </trkpt>
      <trkpt lat="44.33884" lon="1.01926">
        <ele>159.72</ele>
        <time>2011-09-25T06:49:54Z</time>
      </trkpt>
      <trkpt lat="44.33883" lon="1.0192">
        <ele>160.2</ele>
        <time>2011-09-25T06:49:55Z</time>
      </trkpt>
      <trkpt lat="44.33873" lon="1.019">
        <ele>160.2</ele>
        <time>2011-09-25T06:49:59Z</time>
      </trkpt>
      <trkpt lat="44.33871" lon="1.01895">
        <ele>160.2</ele>
        <time>2011-09-25T06:50:00Z</time>
      </trkpt>
      <trkpt lat="44.33868" lon="1.0189">
        <ele>160.2</ele>
        <time>2011-09-25T06:50:01Z</time>
      </trkpt>
      <trkpt lat="44.33859" lon="1.0187">
        <ele>160.68</ele>
        <time>2011-09-25T06:50:05Z</time>
      </trkpt>
      <trkpt lat="44.3386" lon="1.01866">
        <ele>160.68</ele>
        <time>2011-09-25T06:50:06Z</time>
      </trkpt>
      <trkpt lat="44.33862" lon="1.01862">
        <ele>161.16</ele>
        <time>2011-09-25T06:50:07Z</time>
      </trkpt>
      <trkpt lat="44.33865" lon="1.01858">
        <ele>160.68</ele>
        <time>2011-09-25T06:50:08Z</time>
      </trkpt>
      <trkpt lat="44.33869" lon="1.01854">
        <ele>160.68</ele>
        <time>2011-09-25T06:50:09Z</time>
      </trkpt>
      <trkpt lat="44.33873" lon="1.0185">
        <ele>160.68</ele>
        <time>2011-09-25T06:50:10Z</time>
      </trkpt>
      <trkpt lat="44.33878" lon="1.01846">
        <ele>160.2</ele>
        <time>2011-09-25T06:50:11Z</time>
      </trkpt>
      <trkpt lat="44.33884" lon="1.01843">
        <ele>160.2</ele>
        <time>2011-09-25T06:50:12Z</time>
      </trkpt>
      <trkpt lat="44.3389" lon="1.01841">
        <ele>160.2</ele>
        <time>2011-09-25T06:50:13Z</time>
      </trkpt>
      <trkpt lat="44.33896" lon="1.01839">
        <ele>160.2</ele>
        <time>2011-09-25T06:50:14Z</time>
      </trkpt>
      <trkpt lat="44.33901" lon="1.01835">
        <ele>160.68</ele>
        <time>2011-09-25T06:50:15Z</time>
      </trkpt>
      <trkpt lat="44.33905" lon="1.01831">
        <ele>161.16</ele>
        <time>2011-09-25T06:50:16Z</time>
      </trkpt>
      <trkpt lat="44.33908" lon="1.01827">
        <ele>161.16</ele>
        <time>2011-09-25T06:50:17Z</time>
      </trkpt>
      <trkpt lat="44.33911" lon="1.01823">
        <ele>161.16</ele>
        <time>2011-09-25T06:50:18Z</time>
      </trkpt>
      <trkpt lat="44.33915" lon="1.01819">
        <ele>161.64</ele>
        <time>2011-09-25T06:50:19Z</time>
      </trkpt>
      <trkpt lat="44.33919" lon="1.01816">
        <ele>161.16</ele>
        <time>2011-09-25T06:50:20Z</time>
      </trkpt>
      <trkpt lat="44.33964" lon="1.01802">
        <ele>162.12</ele>
        <time>2011-09-25T06:50:31Z</time>
      </trkpt>
      <trkpt lat="44.33968" lon="1.01803">
        <ele>162.6</ele>
        <time>2011-09-25T06:50:32Z</time>
      </trkpt>
      <trkpt lat="44.34008" lon="1.01823">
        <ele>162.12</ele>
        <time>2011-09-25T06:50:42Z</time>
      </trkpt>
      <trkpt lat="44.34032" lon="1.01832">
        <ele>163.56</ele>
        <time>2011-09-25T06:50:48Z</time>
      </trkpt>
      <trkpt lat="44.34037" lon="1.01831">
        <ele>164.04</ele>
        <time>2011-09-25T06:50:49Z</time>
      </trkpt>
      <trkpt lat="44.34068" lon="1.01825">
        <ele>167.41</ele>
        <time>2011-09-25T06:50:58Z</time>
      </trkpt>
      <trkpt lat="44.34082" lon="1.0182">
        <ele>170.29</ele>
        <time>2011-09-25T06:51:03Z</time>
      </trkpt>
      <trkpt lat="44.34082" lon="1.01817">
        <ele>169.81</ele>
        <time>2011-09-25T06:51:04Z</time>
      </trkpt>
      <trkpt lat="44.34089" lon="1.0178">
        <ele>171.25</ele>
        <time>2011-09-25T06:51:13Z</time>
      </trkpt>
      <trkpt lat="44.34121" lon="1.01745">
        <ele>174.14</ele>
        <time>2011-09-25T06:51:25Z</time>
      </trkpt>
      <trkpt lat="44.34136" lon="1.01727">
        <ele>175.1</ele>
        <time>2011-09-25T06:51:31Z</time>
      </trkpt>
      <trkpt lat="44.34138" lon="1.01724">
        <ele>175.58</ele>
        <time>2011-09-25T06:51:32Z</time>
      </trkpt>
      <trkpt lat="44.3414" lon="1.0172">
        <ele>175.58</ele>
        <time>2011-09-25T06:51:33Z</time>
      </trkpt>
      <trkpt lat="44.34171" lon="1.01692">
        <ele>176.06</ele>
        <time>2011-09-25T06:51:44Z</time>
      </trkpt>
      <trkpt lat="44.3422" lon="1.01667">
        <ele>175.1</ele>
        <time>2011-09-25T06:51:58Z</time>
      </trkpt>
      <trkpt lat="44.34221" lon="1.01664">
        <ele>175.58</ele>
        <time>2011-09-25T06:51:59Z</time>
      </trkpt>
      <trkpt lat="44.34221" lon="1.0166">
        <ele>174.62</ele>
        <time>2011-09-25T06:52:00Z</time>
      </trkpt>
      <trkpt lat="44.34222" lon="1.01656">
        <ele>175.1</ele>
        <time>2011-09-25T06:52:01Z</time>
      </trkpt>
      <trkpt lat="44.34224" lon="1.01653">
        <ele>175.1</ele>
        <time>2011-09-25T06:52:02Z</time>
      </trkpt>
      <trkpt lat="44.34226" lon="1.0165">
        <ele>175.1</ele>
        <time>2011-09-25T06:52:03Z</time>
      </trkpt>
      <trkpt lat="44.34228" lon="1.01649">
        <ele>175.1</ele>
        <time>2011-09-25T06:52:04Z</time>
      </trkpt>
      <trkpt lat="44.3423" lon="1.01649">
        <ele>175.1</ele>
        <time>2011-09-25T06:52:05Z</time>
      </trkpt>
      <trkpt lat="44.34233" lon="1.0165">
        <ele>175.58</ele>
        <time>2011-09-25T06:52:06Z</time>
      </trkpt>
      <trkpt lat="44.34235" lon="1.01651">
        <ele>175.58</ele>
        <time>2011-09-25T06:52:07Z</time>
      </trkpt>
      <trkpt lat="44.34238" lon="1.01651">
        <ele>175.58</ele>
        <time>2011-09-25T06:52:08Z</time>
      </trkpt>
      <trkpt lat="44.34273" lon="1.01669">
        <ele>178.46</ele>
        <time>2011-09-25T06:52:20Z</time>
      </trkpt>
      <trkpt lat="44.34323" lon="1.01656">
        <ele>180.87</ele>
        <time>2011-09-25T06:52:34Z</time>
      </trkpt>
      <trkpt lat="44.34346" lon="1.01646">
        <ele>182.79</ele>
        <time>2011-09-25T06:52:42Z</time>
      </trkpt>
      <trkpt lat="44.34347" lon="1.0165">
        <ele>183.27</ele>
        <time>2011-09-25T06:52:43Z</time>
      </trkpt>
      <trkpt lat="44.34346" lon="1.01654">
        <ele>183.27</ele>
        <time>2011-09-25T06:52:44Z</time>
      </trkpt>
      <trkpt lat="44.34344" lon="1.01658">
        <ele>183.27</ele>
        <time>2011-09-25T06:52:45Z</time>
      </trkpt>
      <trkpt lat="44.34341" lon="1.01662">
        <ele>183.27</ele>
        <time>2011-09-25T06:52:46Z</time>
      </trkpt>
      <trkpt lat="44.34338" lon="1.01666">
        <ele>183.75</ele>
        <time>2011-09-25T06:52:47Z</time>
      </trkpt>
      <trkpt lat="44.34335" lon="1.01669">
        <ele>183.27</ele>
        <time>2011-09-25T06:52:48Z</time>
      </trkpt>
      <trkpt lat="44.34283" lon="1.0171">
        <ele>186.15</ele>
        <time>2011-09-25T06:53:05Z</time>
      </trkpt>
      <trkpt lat="44.34237" lon="1.01719">
        <ele>187.59</ele>
        <time>2011-09-25T06:53:18Z</time>
      </trkpt>
      <trkpt lat="44.34215" lon="1.01722">
        <ele>186.63</ele>
        <time>2011-09-25T06:53:23Z</time>
      </trkpt>
      <trkpt lat="44.34179" lon="1.01739">
        <ele>185.19</ele>
        <time>2011-09-25T06:53:30Z</time>
      </trkpt>
      <trkpt lat="44.34176" lon="1.01743">
        <ele>185.19</ele>
        <time>2011-09-25T06:53:31Z</time>
      </trkpt>
      <trkpt lat="44.34153" lon="1.01786">
        <ele>185.67</ele>
        <time>2011-09-25T06:53:39Z</time>
      </trkpt>
      <trkpt lat="44.3415" lon="1.01802">
        <ele>187.59</ele>
        <time>2011-09-25T06:53:43Z</time>
      </trkpt>
      <trkpt lat="44.34151" lon="1.01806">
        <ele>188.08</ele>
        <time>2011-09-25T06:53:44Z</time>
      </trkpt>
      <trkpt lat="44.34153" lon="1.0181">
        <ele>188.56</ele>
        <time>2011-09-25T06:53:45Z</time>
      </trkpt>
      <trkpt lat="44.34157" lon="1.01823">
        <ele>191.44</ele>
        <time>2011-09-25T06:53:49Z</time>
      </trkpt>
      <trkpt lat="44.3416" lon="1.01833">
        <ele>193.36</ele>
        <time>2011-09-25T06:53:53Z</time>
      </trkpt>
      <trkpt lat="44.3417" lon="1.01852">
        <ele>195.77</ele>
        <time>2011-09-25T06:54:04Z</time>
      </trkpt>
      <trkpt lat="44.34178" lon="1.01864">
        <ele>197.69</ele>
        <time>2011-09-25T06:54:11Z</time>
      </trkpt>
      <trkpt lat="44.34195" lon="1.01881">
        <ele>199.13</ele>
        <time>2011-09-25T06:54:24Z</time>
      </trkpt>
      <trkpt lat="44.34196" lon="1.01882">
        <ele>199.13</ele>
        <time>2011-09-25T06:54:25Z</time>
      </trkpt>
      <trkpt lat="44.34198" lon="1.01883">
        <ele>199.61</ele>
        <time>2011-09-25T06:54:26Z</time>
      </trkpt>
      <trkpt lat="44.34199" lon="1.01885">
        <ele>199.61</ele>
        <time>2011-09-25T06:54:27Z</time>
      </trkpt>
      <trkpt lat="44.34201" lon="1.01887">
        <ele>199.61</ele>
        <time>2011-09-25T06:54:28Z</time>
      </trkpt>
      <trkpt lat="44.34203" lon="1.01889">
        <ele>200.09</ele>
        <time>2011-09-25T06:54:29Z</time>
      </trkpt>
      <trkpt lat="44.34243" lon="1.01892">
        <ele>200.57</ele>
        <time>2011-09-25T06:54:41Z</time>
      </trkpt>
      <trkpt lat="44.34275" lon="1.01864">
        <ele>202.01</ele>
        <time>2011-09-25T06:54:54Z</time>
      </trkpt>
      <trkpt lat="44.34304" lon="1.01817">
        <ele>204.9</ele>
        <time>2011-09-25T06:55:09Z</time>
      </trkpt>
      <trkpt lat="44.34327" lon="1.01793">
        <ele>206.82</ele>
        <time>2011-09-25T06:55:21Z</time>
      </trkpt>
      <trkpt lat="44.34361" lon="1.0179">
        <ele>204.9</ele>
        <time>2011-09-25T06:55:30Z</time>
      </trkpt>
      <trkpt lat="44.34366" lon="1.01788">
        <ele>204.42</ele>
        <time>2011-09-25T06:55:31Z</time>
      </trkpt>
      <trkpt lat="44.3437" lon="1.01787">
        <ele>204.9</ele>
        <time>2011-09-25T06:55:32Z</time>
      </trkpt>
      <trkpt lat="44.34375" lon="1.01786">
        <ele>204.9</ele>
        <time>2011-09-25T06:55:33Z</time>
      </trkpt>
      <trkpt lat="44.3438" lon="1.01784">
        <ele>204.9</ele>
        <time>2011-09-25T06:55:34Z</time>
      </trkpt>
      <trkpt lat="44.34399" lon="1.01784">
        <ele>204.9</ele>
        <time>2011-09-25T06:55:39Z</time>
      </trkpt>
      <trkpt lat="44.34403" lon="1.01788">
        <ele>204.42</ele>
        <time>2011-09-25T06:55:40Z</time>
      </trkpt>
      <trkpt lat="44.34406" lon="1.01793">
        <ele>203.94</ele>
        <time>2011-09-25T06:55:41Z</time>
      </trkpt>
      <trkpt lat="44.34409" lon="1.018">
        <ele>202.98</ele>
        <time>2011-09-25T06:55:42Z</time>
      </trkpt>
      <trkpt lat="44.34412" lon="1.01807">
        <ele>202.49</ele>
        <time>2011-09-25T06:55:43Z</time>
      </trkpt>
      <trkpt lat="44.34412" lon="1.01816">
        <ele>202.49</ele>
        <time>2011-09-25T06:55:44Z</time>
      </trkpt>
      <trkpt lat="44.34411" lon="1.01825">
        <ele>201.05</ele>
        <time>2011-09-25T06:55:45Z</time>
      </trkpt>
      <trkpt lat="44.34409" lon="1.01834">
        <ele>200.09</ele>
        <time>2011-09-25T06:55:46Z</time>
      </trkpt>
      <trkpt lat="44.34407" lon="1.01844">
        <ele>199.61</ele>
        <time>2011-09-25T06:55:47Z</time>
      </trkpt>
      <trkpt lat="44.34407" lon="1.01853">
        <ele>199.13</ele>
        <time>2011-09-25T06:55:48Z</time>
      </trkpt>
      <trkpt lat="44.34406" lon="1.01861">
        <ele>198.17</ele>
        <time>2011-09-25T06:55:49Z</time>
      </trkpt>
      <trkpt lat="44.34404" lon="1.01869">
        <ele>197.69</ele>
        <time>2011-09-25T06:55:50Z</time>
      </trkpt>
      <trkpt lat="44.34402" lon="1.01878">
        <ele>197.21</ele>
        <time>2011-09-25T06:55:51Z</time>
      </trkpt>
      <trkpt lat="44.34399" lon="1.01886">
        <ele>196.73</ele>
        <time>2011-09-25T06:55:52Z</time>
      </trkpt>
      <trkpt lat="44.34396" lon="1.01894">
        <ele>195.77</ele>
        <time>2011-09-25T06:55:53Z</time>
      </trkpt>
      <trkpt lat="44.34389" lon="1.01911">
        <ele>194.8</ele>
        <time>2011-09-25T06:55:55Z</time>
      </trkpt>
      <trkpt lat="44.34387" lon="1.0192">
        <ele>194.32</ele>
        <time>2011-09-25T06:55:56Z</time>
      </trkpt>
      <trkpt lat="44.34385" lon="1.01938">
        <ele>193.36</ele>
        <time>2011-09-25T06:55:58Z</time>
      </trkpt>
      <trkpt lat="44.34385" lon="1.01947">
        <ele>192.88</ele>
        <time>2011-09-25T06:55:59Z</time>
      </trkpt>
      <trkpt lat="44.34391" lon="1.02022">
        <ele>193.36</ele>
        <time>2011-09-25T06:56:11Z</time>
      </trkpt>
      <trkpt lat="44.34391" lon="1.02033">
        <ele>192.4</ele>
        <time>2011-09-25T06:56:13Z</time>
      </trkpt>
      <trkpt lat="44.34391" lon="1.02039">
        <ele>191.92</ele>
        <time>2011-09-25T06:56:14Z</time>
      </trkpt>
      <trkpt lat="44.34393" lon="1.02075">
        <ele>188.56</ele>
        <time>2011-09-25T06:56:19Z</time>
      </trkpt>
      <trkpt lat="44.34392" lon="1.02082">
        <ele>187.59</ele>
        <time>2011-09-25T06:56:20Z</time>
      </trkpt>
      <trkpt lat="44.3439" lon="1.0209">
        <ele>186.63</ele>
        <time>2011-09-25T06:56:21Z</time>
      </trkpt>
      <trkpt lat="44.34389" lon="1.02096">
        <ele>186.15</ele>
        <time>2011-09-25T06:56:22Z</time>
      </trkpt>
      <trkpt lat="44.34387" lon="1.02103">
        <ele>185.19</ele>
        <time>2011-09-25T06:56:23Z</time>
      </trkpt>
      <trkpt lat="44.34385" lon="1.02111">
        <ele>184.71</ele>
        <time>2011-09-25T06:56:24Z</time>
      </trkpt>
      <trkpt lat="44.34381" lon="1.02136">
        <ele>181.83</ele>
        <time>2011-09-25T06:56:27Z</time>
      </trkpt>
      <trkpt lat="44.34379" lon="1.02154">
        <ele>179.9</ele>
        <time>2011-09-25T06:56:29Z</time>
      </trkpt>
      <trkpt lat="44.34382" lon="1.02201">
        <ele>176.06</ele>
        <time>2011-09-25T06:56:34Z</time>
      </trkpt>
      <trkpt lat="44.34386" lon="1.02233">
        <ele>172.69</ele>
        <time>2011-09-25T06:56:38Z</time>
      </trkpt>
      <trkpt lat="44.3439" lon="1.02254">
        <ele>171.25</ele>
        <time>2011-09-25T06:56:41Z</time>
      </trkpt>
      <trkpt lat="44.34393" lon="1.02274">
        <ele>170.29</ele>
        <time>2011-09-25T06:56:44Z</time>
      </trkpt>
      <trkpt lat="44.34394" lon="1.02281">
        <ele>169.81</ele>
        <time>2011-09-25T06:56:45Z</time>
      </trkpt>
      <trkpt lat="44.34394" lon="1.02288">
        <ele>169.81</ele>
        <time>2011-09-25T06:56:46Z</time>
      </trkpt>
      <trkpt lat="44.34395" lon="1.02296">
        <ele>169.81</ele>
        <time>2011-09-25T06:56:47Z</time>
      </trkpt>
      <trkpt lat="44.34397" lon="1.02302">
        <ele>169.33</ele>
        <time>2011-09-25T06:56:48Z</time>
      </trkpt>
      <trkpt lat="44.34399" lon="1.02308">
        <ele>169.81</ele>
        <time>2011-09-25T06:56:49Z</time>
      </trkpt>
      <trkpt lat="44.34402" lon="1.02314">
        <ele>169.81</ele>
        <time>2011-09-25T06:56:50Z</time>
      </trkpt>
      <trkpt lat="44.34404" lon="1.02319">
        <ele>170.29</ele>
        <time>2011-09-25T06:56:51Z</time>
      </trkpt>
      <trkpt lat="44.3443" lon="1.02382">
        <ele>173.66</ele>
        <time>2011-09-25T06:57:05Z</time>
      </trkpt>
      <trkpt lat="44.34469" lon="1.02432">
        <ele>176.06</ele>
        <time>2011-09-25T06:57:20Z</time>
      </trkpt>
      <trkpt lat="44.34488" lon="1.02438">
        <ele>176.06</ele>
        <time>2011-09-25T06:57:25Z</time>
      </trkpt>
      <trkpt lat="44.34493" lon="1.02438">
        <ele>176.06</ele>
        <time>2011-09-25T06:57:26Z</time>
      </trkpt>
      <trkpt lat="44.34514" lon="1.02444">
        <ele>175.1</ele>
        <time>2011-09-25T06:57:30Z</time>
      </trkpt>
      <trkpt lat="44.34518" lon="1.02448">
        <ele>175.1</ele>
        <time>2011-09-25T06:57:31Z</time>
      </trkpt>
      <trkpt lat="44.34522" lon="1.02452">
        <ele>175.1</ele>
        <time>2011-09-25T06:57:32Z</time>
      </trkpt>
      <trkpt lat="44.34526" lon="1.02457">
        <ele>175.1</ele>
        <time>2011-09-25T06:57:33Z</time>
      </trkpt>
      <trkpt lat="44.34528" lon="1.02463">
        <ele>175.1</ele>
        <time>2011-09-25T06:57:34Z</time>
      </trkpt>
      <trkpt lat="44.3453" lon="1.02469">
        <ele>175.1</ele>
        <time>2011-09-25T06:57:35Z</time>
      </trkpt>
      <trkpt lat="44.34531" lon="1.02476">
        <ele>175.1</ele>
        <time>2011-09-25T06:57:36Z</time>
      </trkpt>
      <trkpt lat="44.34531" lon="1.02483">
        <ele>175.1</ele>
        <time>2011-09-25T06:57:37Z</time>
      </trkpt>
      <trkpt lat="44.34536" lon="1.02561">
        <ele>176.06</ele>
        <time>2011-09-25T06:57:48Z</time>
      </trkpt>
      <trkpt lat="44.34537" lon="1.02566">
        <ele>176.06</ele>
        <time>2011-09-25T06:57:49Z</time>
      </trkpt>
      <trkpt lat="44.3455" lon="1.02628">
        <ele>176.06</ele>
        <time>2011-09-25T06:57:59Z</time>
      </trkpt>
      <trkpt lat="44.34553" lon="1.02649">
        <ele>175.58</ele>
        <time>2011-09-25T06:58:02Z</time>
      </trkpt>
      <trkpt lat="44.34555" lon="1.02655">
        <ele>175.58</ele>
        <time>2011-09-25T06:58:03Z</time>
      </trkpt>
      <trkpt lat="44.34565" lon="1.02689">
        <ele>175.1</ele>
        <time>2011-09-25T06:58:08Z</time>
      </trkpt>
      <trkpt lat="44.34571" lon="1.02705">
        <ele>174.14</ele>
        <time>2011-09-25T06:58:10Z</time>
      </trkpt>
      <trkpt lat="44.34574" lon="1.02713">
        <ele>174.62</ele>
        <time>2011-09-25T06:58:11Z</time>
      </trkpt>
      <trkpt lat="44.34577" lon="1.02721">
        <ele>174.62</ele>
        <time>2011-09-25T06:58:12Z</time>
      </trkpt>
      <trkpt lat="44.34616" lon="1.02802">
        <ele>173.17</ele>
        <time>2011-09-25T06:58:23Z</time>
      </trkpt>
      <trkpt lat="44.34626" lon="1.02817">
        <ele>173.17</ele>
        <time>2011-09-25T06:58:26Z</time>
      </trkpt>
      <trkpt lat="44.34629" lon="1.02821">
        <ele>173.66</ele>
        <time>2011-09-25T06:58:27Z</time>
      </trkpt>
      <trkpt lat="44.34649" lon="1.02841">
        <ele>174.14</ele>
        <time>2011-09-25T06:58:33Z</time>
      </trkpt>
      <trkpt lat="44.34658" lon="1.02843">
        <ele>174.14</ele>
        <time>2011-09-25T06:58:35Z</time>
      </trkpt>
      <trkpt lat="44.34702" lon="1.02842">
        <ele>175.1</ele>
        <time>2011-09-25T06:58:45Z</time>
      </trkpt>
      <trkpt lat="44.34706" lon="1.02842">
        <ele>175.1</ele>
        <time>2011-09-25T06:58:46Z</time>
      </trkpt>
      <trkpt lat="44.3471" lon="1.02842">
        <ele>175.1</ele>
        <time>2011-09-25T06:58:47Z</time>
      </trkpt>
      <trkpt lat="44.34714" lon="1.02843">
        <ele>174.62</ele>
        <time>2011-09-25T06:58:48Z</time>
      </trkpt>
      <trkpt lat="44.34718" lon="1.02844">
        <ele>175.1</ele>
        <time>2011-09-25T06:58:49Z</time>
      </trkpt>
      <trkpt lat="44.34722" lon="1.02847">
        <ele>175.58</ele>
        <time>2011-09-25T06:58:50Z</time>
      </trkpt>
      <trkpt lat="44.34726" lon="1.0285">
        <ele>175.1</ele>
        <time>2011-09-25T06:58:51Z</time>
      </trkpt>
      <trkpt lat="44.3473" lon="1.02853">
        <ele>176.06</ele>
        <time>2011-09-25T06:58:52Z</time>
      </trkpt>
      <trkpt lat="44.34739" lon="1.02867">
        <ele>176.54</ele>
        <time>2011-09-25T06:58:56Z</time>
      </trkpt>
      <trkpt lat="44.3474" lon="1.02872">
        <ele>176.54</ele>
        <time>2011-09-25T06:58:57Z</time>
      </trkpt>
      <trkpt lat="44.34739" lon="1.02877">
        <ele>176.06</ele>
        <time>2011-09-25T06:58:58Z</time>
      </trkpt>
      <trkpt lat="44.34732" lon="1.02955">
        <ele>178.94</ele>
        <time>2011-09-25T06:59:13Z</time>
      </trkpt>
      <trkpt lat="44.34735" lon="1.03006">
        <ele>181.35</ele>
        <time>2011-09-25T06:59:23Z</time>
      </trkpt>
      <trkpt lat="44.34766" lon="1.0305">
        <ele>182.79</ele>
        <time>2011-09-25T06:59:37Z</time>
      </trkpt>
      <trkpt lat="44.34803" lon="1.03095">
        <ele>183.75</ele>
        <time>2011-09-25T06:59:50Z</time>
      </trkpt>
      <trkpt lat="44.34814" lon="1.03108">
        <ele>183.27</ele>
        <time>2011-09-25T06:59:53Z</time>
      </trkpt>
      <trkpt lat="44.34818" lon="1.03112">
        <ele>183.27</ele>
        <time>2011-09-25T06:59:54Z</time>
      </trkpt>
      <trkpt lat="44.34828" lon="1.03128">
        <ele>182.31</ele>
        <time>2011-09-25T06:59:57Z</time>
      </trkpt>
      <trkpt lat="44.34846" lon="1.03173">
        <ele>178.94</ele>
        <time>2011-09-25T07:00:03Z</time>
      </trkpt>
      <trkpt lat="44.34848" lon="1.03181">
        <ele>178.94</ele>
        <time>2011-09-25T07:00:04Z</time>
      </trkpt>
      <trkpt lat="44.34872" lon="1.03263">
        <ele>176.06</ele>
        <time>2011-09-25T07:00:13Z</time>
      </trkpt>
      <trkpt lat="44.34882" lon="1.03368">
        <ele>175.1</ele>
        <time>2011-09-25T07:00:27Z</time>
      </trkpt>
      <trkpt lat="44.34884" lon="1.03374">
        <ele>175.1</ele>
        <time>2011-09-25T07:00:28Z</time>
      </trkpt>
      <trkpt lat="44.34908" lon="1.03433">
        <ele>175.58</ele>
        <time>2011-09-25T07:00:39Z</time>
      </trkpt>
      <trkpt lat="44.3492" lon="1.03462">
        <ele>177.5</ele>
        <time>2011-09-25T07:00:49Z</time>
      </trkpt>
      <trkpt lat="44.3493" lon="1.03499">
        <ele>177.02</ele>
        <time>2011-09-25T07:01:02Z</time>
      </trkpt>
      <trkpt lat="44.34942" lon="1.03566">
        <ele>178.46</ele>
        <time>2011-09-25T07:01:15Z</time>
      </trkpt>
      <trkpt lat="44.34944" lon="1.03615">
        <ele>177.5</ele>
        <time>2011-09-25T07:01:23Z</time>
      </trkpt>
      <trkpt lat="44.34944" lon="1.03667">
        <ele>176.06</ele>
        <time>2011-09-25T07:01:31Z</time>
      </trkpt>
      <trkpt lat="44.34939" lon="1.03715">
        <ele>175.1</ele>
        <time>2011-09-25T07:01:38Z</time>
      </trkpt>
      <trkpt lat="44.34938" lon="1.03752">
        <ele>175.1</ele>
        <time>2011-09-25T07:01:46Z</time>
      </trkpt>
      <trkpt lat="44.34942" lon="1.03819">
        <ele>175.58</ele>
        <time>2011-09-25T07:01:59Z</time>
      </trkpt>
      <trkpt lat="44.34943" lon="1.03824">
        <ele>175.1</ele>
        <time>2011-09-25T07:02:00Z</time>
      </trkpt>
      <trkpt lat="44.34943" lon="1.03836">
        <ele>176.06</ele>
        <time>2011-09-25T07:02:02Z</time>
      </trkpt>
      <trkpt lat="44.34942" lon="1.03849">
        <ele>175.58</ele>
        <time>2011-09-25T07:02:04Z</time>
      </trkpt>
      <trkpt lat="44.34938" lon="1.0387">
        <ele>176.06</ele>
        <time>2011-09-25T07:02:08Z</time>
      </trkpt>
      <trkpt lat="44.34938" lon="1.03876">
        <ele>175.58</ele>
        <time>2011-09-25T07:02:09Z</time>
      </trkpt>
      <trkpt lat="44.34939" lon="1.03883">
        <ele>175.58</ele>
        <time>2011-09-25T07:02:10Z</time>
      </trkpt>
      <trkpt lat="44.34947" lon="1.03919">
        <ele>176.06</ele>
        <time>2011-09-25T07:02:15Z</time>
      </trkpt>
      <trkpt lat="44.34949" lon="1.03925">
        <ele>175.58</ele>
        <time>2011-09-25T07:02:16Z</time>
      </trkpt>
      <trkpt lat="44.34981" lon="1.03994">
        <ele>176.54</ele>
        <time>2011-09-25T07:02:27Z</time>
      </trkpt>
      <trkpt lat="44.34995" lon="1.04017">
        <ele>177.02</ele>
        <time>2011-09-25T07:02:31Z</time>
      </trkpt>
      <trkpt lat="44.35008" lon="1.04041">
        <ele>177.5</ele>
        <time>2011-09-25T07:02:36Z</time>
      </trkpt>
      <trkpt lat="44.3501" lon="1.04047">
        <ele>177.5</ele>
        <time>2011-09-25T07:02:37Z</time>
      </trkpt>
      <trkpt lat="44.35009" lon="1.04053">
        <ele>177.5</ele>
        <time>2011-09-25T07:02:38Z</time>
      </trkpt>
      <trkpt lat="44.35007" lon="1.04058">
        <ele>177.98</ele>
        <time>2011-09-25T07:02:39Z</time>
      </trkpt>
      <trkpt lat="44.35003" lon="1.04062">
        <ele>178.46</ele>
        <time>2011-09-25T07:02:40Z</time>
      </trkpt>
      <trkpt lat="44.35" lon="1.04066">
        <ele>178.46</ele>
        <time>2011-09-25T07:02:41Z</time>
      </trkpt>
      <trkpt lat="44.34992" lon="1.04076">
        <ele>179.42</ele>
        <time>2011-09-25T07:02:44Z</time>
      </trkpt>
      <trkpt lat="44.34993" lon="1.04081">
        <ele>179.9</ele>
        <time>2011-09-25T07:02:45Z</time>
      </trkpt>
      <trkpt lat="44.34996" lon="1.04084">
        <ele>179.42</ele>
        <time>2011-09-25T07:02:46Z</time>
      </trkpt>
      <trkpt lat="44.34999" lon="1.04087">
        <ele>179.9</ele>
        <time>2011-09-25T07:02:47Z</time>
      </trkpt>
      <trkpt lat="44.35002" lon="1.0409">
        <ele>179.42</ele>
        <time>2011-09-25T07:02:48Z</time>
      </trkpt>
      <trkpt lat="44.35043" lon="1.04122">
        <ele>180.87</ele>
        <time>2011-09-25T07:02:58Z</time>
      </trkpt>
      <trkpt lat="44.35048" lon="1.04124">
        <ele>179.9</ele>
        <time>2011-09-25T07:02:59Z</time>
      </trkpt>
      <trkpt lat="44.35056" lon="1.04128">
        <ele>180.87</ele>
        <time>2011-09-25T07:03:01Z</time>
      </trkpt>
      <trkpt lat="44.35061" lon="1.04129">
        <ele>180.87</ele>
        <time>2011-09-25T07:03:02Z</time>
      </trkpt>
      <trkpt lat="44.3507" lon="1.04131">
        <ele>181.35</ele>
        <time>2011-09-25T07:03:05Z</time>
      </trkpt>
      <trkpt lat="44.35071" lon="1.04135">
        <ele>180.87</ele>
        <time>2011-09-25T07:03:06Z</time>
      </trkpt>
      <trkpt lat="44.35071" lon="1.04139">
        <ele>180.87</ele>
        <time>2011-09-25T07:03:07Z</time>
      </trkpt>
      <trkpt lat="44.35065" lon="1.04192">
        <ele>182.79</ele>
        <time>2011-09-25T07:03:18Z</time>
      </trkpt>
      <trkpt lat="44.35051" lon="1.04237">
        <ele>183.27</ele>
        <time>2011-09-25T07:03:29Z</time>
      </trkpt>
      <trkpt lat="44.35052" lon="1.04292">
        <ele>186.15</ele>
        <time>2011-09-25T07:03:40Z</time>
      </trkpt>
      <trkpt lat="44.35051" lon="1.04298">
        <ele>186.63</ele>
        <time>2011-09-25T07:03:41Z</time>
      </trkpt>
      <trkpt lat="44.35051" lon="1.04303">
        <ele>186.15</ele>
        <time>2011-09-25T07:03:42Z</time>
      </trkpt>
      <trkpt lat="44.35051" lon="1.04336">
        <ele>185.67</ele>
        <time>2011-09-25T07:03:47Z</time>
      </trkpt>
      <trkpt lat="44.35051" lon="1.04352">
        <ele>184.71</ele>
        <time>2011-09-25T07:03:49Z</time>
      </trkpt>
      <trkpt lat="44.35064" lon="1.04387">
        <ele>187.11</ele>
        <time>2011-09-25T07:03:55Z</time>
      </trkpt>
      <trkpt lat="44.35069" lon="1.04392">
        <ele>188.56</ele>
        <time>2011-09-25T07:03:58Z</time>
      </trkpt>
      <trkpt lat="44.35079" lon="1.04415">
        <ele>188.56</ele>
        <time>2011-09-25T07:04:04Z</time>
      </trkpt>
      <trkpt lat="44.35086" lon="1.04431">
        <ele>187.59</ele>
        <time>2011-09-25T07:04:07Z</time>
      </trkpt>
      <trkpt lat="44.3511" lon="1.04468">
        <ele>187.11</ele>
        <time>2011-09-25T07:04:16Z</time>
      </trkpt>
      <trkpt lat="44.35138" lon="1.04493">
        <ele>188.08</ele>
        <time>2011-09-25T07:04:25Z</time>
      </trkpt>
      <trkpt lat="44.35158" lon="1.04536">
        <ele>188.56</ele>
        <time>2011-09-25T07:04:35Z</time>
      </trkpt>
      <trkpt lat="44.35174" lon="1.04572">
        <ele>189.04</ele>
        <time>2011-09-25T07:04:44Z</time>
      </trkpt>
      <trkpt lat="44.35183" lon="1.04599">
        <ele>189.52</ele>
        <time>2011-09-25T07:04:52Z</time>
      </trkpt>
      <trkpt lat="44.35207" lon="1.04666">
        <ele>190.48</ele>
        <time>2011-09-25T07:05:04Z</time>
      </trkpt>
      <trkpt lat="44.35222" lon="1.04706">
        <ele>191.44</ele>
        <time>2011-09-25T07:05:13Z</time>
      </trkpt>
      <trkpt lat="44.35238" lon="1.04755">
        <ele>191.92</ele>
        <time>2011-09-25T07:05:25Z</time>
      </trkpt>
      <trkpt lat="44.35259" lon="1.04803">
        <ele>192.88</ele>
        <time>2011-09-25T07:05:35Z</time>
      </trkpt>
      <trkpt lat="44.35281" lon="1.04841">
        <ele>194.32</ele>
        <time>2011-09-25T07:05:45Z</time>
      </trkpt>
      <trkpt lat="44.35294" lon="1.04864">
        <ele>194.32</ele>
        <time>2011-09-25T07:05:52Z</time>
      </trkpt>
      <trkpt lat="44.35318" lon="1.04907">
        <ele>195.77</ele>
        <time>2011-09-25T07:06:03Z</time>
      </trkpt>
      <trkpt lat="44.35329" lon="1.04974">
        <ele>196.73</ele>
        <time>2011-09-25T07:06:14Z</time>
      </trkpt>
      <trkpt lat="44.35329" lon="1.04981">
        <ele>196.25</ele>
        <time>2011-09-25T07:06:15Z</time>
      </trkpt>
      <trkpt lat="44.35329" lon="1.04989">
        <ele>196.73</ele>
        <time>2011-09-25T07:06:17Z</time>
      </trkpt>
      <trkpt lat="44.35328" lon="1.05023">
        <ele>197.21</ele>
        <time>2011-09-25T07:06:24Z</time>
      </trkpt>
      <trkpt lat="44.35325" lon="1.05068">
        <ele>198.65</ele>
        <time>2011-09-25T07:06:36Z</time>
      </trkpt>
      <trkpt lat="44.35327" lon="1.05103">
        <ele>201.05</ele>
        <time>2011-09-25T07:06:45Z</time>
      </trkpt>
      <trkpt lat="44.35326" lon="1.05151">
        <ele>202.49</ele>
        <time>2011-09-25T07:06:56Z</time>
      </trkpt>
      <trkpt lat="44.35322" lon="1.05197">
        <ele>202.49</ele>
        <time>2011-09-25T07:07:06Z</time>
      </trkpt>
      <trkpt lat="44.35312" lon="1.05237">
        <ele>202.98</ele>
        <time>2011-09-25T07:07:15Z</time>
      </trkpt>
      <trkpt lat="44.35299" lon="1.05276">
        <ele>203.94</ele>
        <time>2011-09-25T07:07:24Z</time>
      </trkpt>
      <trkpt lat="44.35284" lon="1.05318">
        <ele>205.38</ele>
        <time>2011-09-25T07:07:33Z</time>
      </trkpt>
      <trkpt lat="44.35275" lon="1.05354">
        <ele>206.34</ele>
        <time>2011-09-25T07:07:44Z</time>
      </trkpt>
      <trkpt lat="44.35262" lon="1.05402">
        <ele>205.86</ele>
        <time>2011-09-25T07:07:55Z</time>
      </trkpt>
      <trkpt lat="44.35251" lon="1.05447">
        <ele>204.42</ele>
        <time>2011-09-25T07:08:02Z</time>
      </trkpt>
      <trkpt lat="44.35256" lon="1.05489">
        <ele>205.38</ele>
        <time>2011-09-25T07:08:09Z</time>
      </trkpt>
      <trkpt lat="44.3526" lon="1.05525">
        <ele>206.34</ele>
        <time>2011-09-25T07:08:14Z</time>
      </trkpt>
      <trkpt lat="44.35262" lon="1.05538">
        <ele>207.3</ele>
        <time>2011-09-25T07:08:16Z</time>
      </trkpt>
      <trkpt lat="44.35269" lon="1.05571">
        <ele>208.74</ele>
        <time>2011-09-25T07:08:24Z</time>
      </trkpt>
      <trkpt lat="44.35282" lon="1.05614">
        <ele>209.7</ele>
        <time>2011-09-25T07:08:33Z</time>
      </trkpt>
      <trkpt lat="44.35297" lon="1.05662">
        <ele>211.15</ele>
        <time>2011-09-25T07:08:44Z</time>
      </trkpt>
      <trkpt lat="44.35297" lon="1.05667">
        <ele>211.15</ele>
        <time>2011-09-25T07:08:45Z</time>
      </trkpt>
      <trkpt lat="44.35269" lon="1.05705">
        <ele>211.63</ele>
        <time>2011-09-25T07:08:54Z</time>
      </trkpt>
      <trkpt lat="44.35265" lon="1.05707">
        <ele>211.15</ele>
        <time>2011-09-25T07:08:55Z</time>
      </trkpt>
      <trkpt lat="44.3526" lon="1.0571">
        <ele>211.15</ele>
        <time>2011-09-25T07:08:56Z</time>
      </trkpt>
      <trkpt lat="44.35256" lon="1.05713">
        <ele>211.15</ele>
        <time>2011-09-25T07:08:57Z</time>
      </trkpt>
      <trkpt lat="44.35253" lon="1.05715">
        <ele>211.63</ele>
        <time>2011-09-25T07:08:58Z</time>
      </trkpt>
      <trkpt lat="44.35234" lon="1.05731">
        <ele>214.51</ele>
        <time>2011-09-25T07:09:07Z</time>
      </trkpt>
      <trkpt lat="44.35219" lon="1.05756">
        <ele>217.88</ele>
        <time>2011-09-25T07:09:18Z</time>
      </trkpt>
      <trkpt lat="44.3521" lon="1.0578">
        <ele>219.8</ele>
        <time>2011-09-25T07:09:30Z</time>
      </trkpt>
      <trkpt lat="44.35209" lon="1.05792">
        <ele>221.24</ele>
        <time>2011-09-25T07:09:36Z</time>
      </trkpt>
      <trkpt lat="44.35209" lon="1.05795">
        <ele>220.76</ele>
        <time>2011-09-25T07:09:37Z</time>
      </trkpt>
      <trkpt lat="44.35208" lon="1.05797">
        <ele>221.24</ele>
        <time>2011-09-25T07:09:38Z</time>
      </trkpt>
      <trkpt lat="44.35208" lon="1.05799">
        <ele>221.72</ele>
        <time>2011-09-25T07:09:39Z</time>
      </trkpt>
      <trkpt lat="44.35209" lon="1.05802">
        <ele>221.72</ele>
        <time>2011-09-25T07:09:40Z</time>
      </trkpt>
      <trkpt lat="44.35209" lon="1.05804">
        <ele>222.2</ele>
        <time>2011-09-25T07:09:41Z</time>
      </trkpt>
      <trkpt lat="44.35209" lon="1.05807">
        <ele>222.2</ele>
        <time>2011-09-25T07:09:42Z</time>
      </trkpt>
      <trkpt lat="44.35205" lon="1.05839">
        <ele>224.61</ele>
        <time>2011-09-25T07:09:56Z</time>
      </trkpt>
      <trkpt lat="44.352" lon="1.05875">
        <ele>227.49</ele>
        <time>2011-09-25T07:10:13Z</time>
      </trkpt>
      <trkpt lat="44.35199" lon="1.05877">
        <ele>227.49</ele>
        <time>2011-09-25T07:10:14Z</time>
      </trkpt>
      <trkpt lat="44.35199" lon="1.05879">
        <ele>227.49</ele>
        <time>2011-09-25T07:10:15Z</time>
      </trkpt>
      <trkpt lat="44.35199" lon="1.05881">
        <ele>227.49</ele>
        <time>2011-09-25T07:10:16Z</time>
      </trkpt>
      <trkpt lat="44.35199" lon="1.05883">
        <ele>227.49</ele>
        <time>2011-09-25T07:10:17Z</time>
      </trkpt>
      <trkpt lat="44.35199" lon="1.05885">
        <ele>227.49</ele>
        <time>2011-09-25T07:10:18Z</time>
      </trkpt>
      <trkpt lat="44.35198" lon="1.05888">
        <ele>227.49</ele>
        <time>2011-09-25T07:10:19Z</time>
      </trkpt>
      <trkpt lat="44.35198" lon="1.0589">
        <ele>227.97</ele>
        <time>2011-09-25T07:10:20Z</time>
      </trkpt>
      <trkpt lat="44.35198" lon="1.05892">
        <ele>227.97</ele>
        <time>2011-09-25T07:10:21Z</time>
      </trkpt>
      <trkpt lat="44.35204" lon="1.05932">
        <ele>229.41</ele>
        <time>2011-09-25T07:10:35Z</time>
      </trkpt>
      <trkpt lat="44.35213" lon="1.05962">
        <ele>230.85</ele>
        <time>2011-09-25T07:10:47Z</time>
      </trkpt>
      <trkpt lat="44.35216" lon="1.05992">
        <ele>231.33</ele>
        <time>2011-09-25T07:10:57Z</time>
      </trkpt>
      <trkpt lat="44.35215" lon="1.05996">
        <ele>230.85</ele>
        <time>2011-09-25T07:10:58Z</time>
      </trkpt>
      <trkpt lat="44.35213" lon="1.06">
        <ele>231.33</ele>
        <time>2011-09-25T07:10:59Z</time>
      </trkpt>
      <trkpt lat="44.35212" lon="1.06004">
        <ele>231.33</ele>
        <time>2011-09-25T07:11:00Z</time>
      </trkpt>
      <trkpt lat="44.35213" lon="1.06009">
        <ele>231.33</ele>
        <time>2011-09-25T07:11:01Z</time>
      </trkpt>
      <trkpt lat="44.35213" lon="1.06013">
        <ele>231.33</ele>
        <time>2011-09-25T07:11:02Z</time>
      </trkpt>
      <trkpt lat="44.35213" lon="1.06018">
        <ele>231.33</ele>
        <time>2011-09-25T07:11:03Z</time>
      </trkpt>
      <trkpt lat="44.35218" lon="1.06064">
        <ele>233.26</ele>
        <time>2011-09-25T07:11:14Z</time>
      </trkpt>
      <trkpt lat="44.35228" lon="1.06107">
        <ele>234.22</ele>
        <time>2011-09-25T07:11:27Z</time>
      </trkpt>
      <trkpt lat="44.3523" lon="1.06139">
        <ele>234.7</ele>
        <time>2011-09-25T07:11:37Z</time>
      </trkpt>
      <trkpt lat="44.35232" lon="1.06148">
        <ele>235.18</ele>
        <time>2011-09-25T07:11:40Z</time>
      </trkpt>
      <trkpt lat="44.35234" lon="1.06183">
        <ele>236.14</ele>
        <time>2011-09-25T07:11:47Z</time>
      </trkpt>
      <trkpt lat="44.3524" lon="1.06231">
        <ele>237.1</ele>
        <time>2011-09-25T07:11:58Z</time>
      </trkpt>
      <trkpt lat="44.35247" lon="1.06276">
        <ele>239.51</ele>
        <time>2011-09-25T07:12:09Z</time>
      </trkpt>
      <trkpt lat="44.35249" lon="1.06312">
        <ele>241.91</ele>
        <time>2011-09-25T07:12:19Z</time>
      </trkpt>
      <trkpt lat="44.35252" lon="1.06347">
        <ele>241.91</ele>
        <time>2011-09-25T07:12:28Z</time>
      </trkpt>
      <trkpt lat="44.35255" lon="1.06382">
        <ele>242.39</ele>
        <time>2011-09-25T07:12:37Z</time>
      </trkpt>
      <trkpt lat="44.35256" lon="1.06417">
        <ele>243.35</ele>
        <time>2011-09-25T07:12:45Z</time>
      </trkpt>
      <trkpt lat="44.35259" lon="1.06453">
        <ele>244.79</ele>
        <time>2011-09-25T07:12:55Z</time>
      </trkpt>
      <trkpt lat="44.3526" lon="1.06494">
        <ele>246.23</ele>
        <time>2011-09-25T07:13:05Z</time>
      </trkpt>
      <trkpt lat="44.35264" lon="1.06547">
        <ele>247.68</ele>
        <time>2011-09-25T07:13:18Z</time>
      </trkpt>
      <trkpt lat="44.35272" lon="1.06598">
        <ele>249.6</ele>
        <time>2011-09-25T07:13:32Z</time>
      </trkpt>
      <trkpt lat="44.35282" lon="1.06645">
        <ele>250.08</ele>
        <time>2011-09-25T07:13:45Z</time>
      </trkpt>
      <trkpt lat="44.35289" lon="1.06688">
        <ele>252.96</ele>
        <time>2011-09-25T07:13:58Z</time>
      </trkpt>
      <trkpt lat="44.35296" lon="1.06716">
        <ele>255.37</ele>
        <time>2011-09-25T07:14:10Z</time>
      </trkpt>
      <trkpt lat="44.35297" lon="1.06728">
        <ele>255.85</ele>
        <time>2011-09-25T07:14:15Z</time>
      </trkpt>
      <trkpt lat="44.35298" lon="1.06742">
        <ele>257.29</ele>
        <time>2011-09-25T07:14:21Z</time>
      </trkpt>
      <trkpt lat="44.35297" lon="1.06779">
        <ele>259.21</ele>
        <time>2011-09-25T07:14:36Z</time>
      </trkpt>
      <trkpt lat="44.35297" lon="1.06822">
        <ele>260.65</ele>
        <time>2011-09-25T07:14:51Z</time>
      </trkpt>
      <trkpt lat="44.35299" lon="1.06861">
        <ele>261.62</ele>
        <time>2011-09-25T07:15:02Z</time>
      </trkpt>
      <trkpt lat="44.35305" lon="1.06901">
        <ele>262.58</ele>
        <time>2011-09-25T07:15:12Z</time>
      </trkpt>
      <trkpt lat="44.35312" lon="1.06945">
        <ele>263.54</ele>
        <time>2011-09-25T07:15:23Z</time>
      </trkpt>
      <trkpt lat="44.35315" lon="1.06999">
        <ele>264.02</ele>
        <time>2011-09-25T07:15:36Z</time>
      </trkpt>
      <trkpt lat="44.35319" lon="1.0705">
        <ele>263.54</ele>
        <time>2011-09-25T07:15:47Z</time>
      </trkpt>
      <trkpt lat="44.35325" lon="1.07067">
        <ele>263.54</ele>
        <time>2011-09-25T07:15:52Z</time>
      </trkpt>
      <trkpt lat="44.35337" lon="1.07094">
        <ele>264.5</ele>
        <time>2011-09-25T07:16:01Z</time>
      </trkpt>
      <trkpt lat="44.35339" lon="1.07144">
        <ele>263.06</ele>
        <time>2011-09-25T07:16:10Z</time>
      </trkpt>
      <trkpt lat="44.35337" lon="1.07189">
        <ele>259.69</ele>
        <time>2011-09-25T07:16:16Z</time>
      </trkpt>
      <trkpt lat="44.35336" lon="1.07197">
        <ele>259.69</ele>
        <time>2011-09-25T07:16:17Z</time>
      </trkpt>
      <trkpt lat="44.35336" lon="1.07214">
        <ele>259.69</ele>
        <time>2011-09-25T07:16:19Z</time>
      </trkpt>
      <trkpt lat="44.35336" lon="1.07222">
        <ele>259.21</ele>
        <time>2011-09-25T07:16:20Z</time>
      </trkpt>
      <trkpt lat="44.35338" lon="1.07228">
        <ele>259.69</ele>
        <time>2011-09-25T07:16:21Z</time>
      </trkpt>
      <trkpt lat="44.35347" lon="1.07253">
        <ele>259.69</ele>
        <time>2011-09-25T07:16:25Z</time>
      </trkpt>
      <trkpt lat="44.35349" lon="1.07259">
        <ele>260.17</ele>
        <time>2011-09-25T07:16:26Z</time>
      </trkpt>
      <trkpt lat="44.3535" lon="1.07265">
        <ele>260.17</ele>
        <time>2011-09-25T07:16:27Z</time>
      </trkpt>
      <trkpt lat="44.35352" lon="1.07271">
        <ele>260.17</ele>
        <time>2011-09-25T07:16:28Z</time>
      </trkpt>
      <trkpt lat="44.35354" lon="1.07276">
        <ele>260.17</ele>
        <time>2011-09-25T07:16:29Z</time>
      </trkpt>
      <trkpt lat="44.35364" lon="1.07319">
        <ele>261.62</ele>
        <time>2011-09-25T07:16:38Z</time>
      </trkpt>
      <trkpt lat="44.3537" lon="1.07333">
        <ele>261.62</ele>
        <time>2011-09-25T07:16:42Z</time>
      </trkpt>
      <trkpt lat="44.35368" lon="1.07347">
        <ele>261.14</ele>
        <time>2011-09-25T07:16:46Z</time>
      </trkpt>
      <trkpt lat="44.35369" lon="1.0735">
        <ele>261.62</ele>
        <time>2011-09-25T07:16:47Z</time>
      </trkpt>
      <trkpt lat="44.3537" lon="1.07352">
        <ele>261.62</ele>
        <time>2011-09-25T07:16:48Z</time>
      </trkpt>
      <trkpt lat="44.35371" lon="1.07354">
        <ele>261.62</ele>
        <time>2011-09-25T07:16:49Z</time>
      </trkpt>
      <trkpt lat="44.35371" lon="1.07357">
        <ele>262.1</ele>
        <time>2011-09-25T07:16:50Z</time>
      </trkpt>
      <trkpt lat="44.35371" lon="1.0736">
        <ele>261.62</ele>
        <time>2011-09-25T07:16:51Z</time>
      </trkpt>
      <trkpt lat="44.35371" lon="1.07365">
        <ele>261.62</ele>
        <time>2011-09-25T07:16:52Z</time>
      </trkpt>
      <trkpt lat="44.35379" lon="1.07396">
        <ele>263.06</ele>
        <time>2011-09-25T07:17:00Z</time>
      </trkpt>
      <trkpt lat="44.35379" lon="1.07399">
        <ele>263.54</ele>
        <time>2011-09-25T07:17:02Z</time>
      </trkpt>
      <trkpt lat="44.3538" lon="1.07402">
        <ele>263.54</ele>
        <time>2011-09-25T07:17:03Z</time>
      </trkpt>
      <trkpt lat="44.35387" lon="1.07435">
        <ele>264.98</ele>
        <time>2011-09-25T07:17:13Z</time>
      </trkpt>
      <trkpt lat="44.35388" lon="1.07446">
        <ele>265.46</ele>
        <time>2011-09-25T07:17:25Z</time>
      </trkpt>
      <trkpt lat="44.35388" lon="1.07446">
        <ele>264.98</ele>
        <time>2011-09-25T07:17:53Z</time>
      </trkpt>
      <trkpt lat="44.3539" lon="1.07458">
        <ele>265.46</ele>
        <time>2011-09-25T07:18:06Z</time>
      </trkpt>
      <trkpt lat="44.35391" lon="1.07461">
        <ele>265.46</ele>
        <time>2011-09-25T07:18:23Z</time>
      </trkpt>
      <trkpt lat="44.35403" lon="1.07497">
        <ele>266.42</ele>
        <time>2011-09-25T07:18:34Z</time>
      </trkpt>
      <trkpt lat="44.35403" lon="1.07502">
        <ele>266.9</ele>
        <time>2011-09-25T07:18:49Z</time>
      </trkpt>
      <trkpt lat="44.35404" lon="1.07503">
        <ele>266.9</ele>
        <time>2011-09-25T07:18:55Z</time>
      </trkpt>
      <trkpt lat="44.35411" lon="1.07528">
        <ele>267.38</ele>
        <time>2011-09-25T07:19:06Z</time>
      </trkpt>
      <trkpt lat="44.35415" lon="1.07542">
        <ele>267.38</ele>
        <time>2011-09-25T07:19:19Z</time>
      </trkpt>
      <trkpt lat="44.35415" lon="1.07548">
        <ele>267.38</ele>
        <time>2011-09-25T07:19:49Z</time>
      </trkpt>
      <trkpt lat="44.35418" lon="1.07558">
        <ele>267.86</ele>
        <time>2011-09-25T07:20:04Z</time>
      </trkpt>
      <trkpt lat="44.35418" lon="1.07558">
        <ele>267.86</ele>
        <time>2011-09-25T07:20:36Z</time>
      </trkpt>
      <trkpt lat="44.35421" lon="1.07585">
        <ele>268.35</ele>
        <time>2011-09-25T07:20:47Z</time>
      </trkpt>
      <trkpt lat="44.35421" lon="1.07594">
        <ele>268.83</ele>
        <time>2011-09-25T07:20:50Z</time>
      </trkpt>
      <trkpt lat="44.35423" lon="1.07596">
        <ele>269.79</ele>
        <time>2011-09-25T07:20:52Z</time>
      </trkpt>
      <trkpt lat="44.35424" lon="1.076">
        <ele>270.27</ele>
        <time>2011-09-25T07:20:54Z</time>
      </trkpt>
      <trkpt lat="44.35421" lon="1.07634">
        <ele>271.23</ele>
        <time>2011-09-25T07:21:05Z</time>
      </trkpt>
      <trkpt lat="44.3542" lon="1.07659">
        <ele>271.71</ele>
        <time>2011-09-25T07:21:11Z</time>
      </trkpt>
      <trkpt lat="44.35402" lon="1.0775">
        <ele>269.79</ele>
        <time>2011-09-25T07:21:26Z</time>
      </trkpt>
      <trkpt lat="44.354" lon="1.07757">
        <ele>269.31</ele>
        <time>2011-09-25T07:21:27Z</time>
      </trkpt>
      <trkpt lat="44.35393" lon="1.07781">
        <ele>267.86</ele>
        <time>2011-09-25T07:21:30Z</time>
      </trkpt>
      <trkpt lat="44.35392" lon="1.07789">
        <ele>267.86</ele>
        <time>2011-09-25T07:21:31Z</time>
      </trkpt>
      <trkpt lat="44.35389" lon="1.07839">
        <ele>266.9</ele>
        <time>2011-09-25T07:21:37Z</time>
      </trkpt>
      <trkpt lat="44.35393" lon="1.07865">
        <ele>265.94</ele>
        <time>2011-09-25T07:21:40Z</time>
      </trkpt>
      <trkpt lat="44.35395" lon="1.07874">
        <ele>265.94</ele>
        <time>2011-09-25T07:21:41Z</time>
      </trkpt>
      <trkpt lat="44.35403" lon="1.07907">
        <ele>265.46</ele>
        <time>2011-09-25T07:21:45Z</time>
      </trkpt>
      <trkpt lat="44.35404" lon="1.07915">
        <ele>265.94</ele>
        <time>2011-09-25T07:21:46Z</time>
      </trkpt>
      <trkpt lat="44.35409" lon="1.07962">
        <ele>266.42</ele>
        <time>2011-09-25T07:21:52Z</time>
      </trkpt>
      <trkpt lat="44.35408" lon="1.07967">
        <ele>265.94</ele>
        <time>2011-09-25T07:21:53Z</time>
      </trkpt>
      <trkpt lat="44.35405" lon="1.07976">
        <ele>266.42</ele>
        <time>2011-09-25T07:21:55Z</time>
      </trkpt>
      <trkpt lat="44.35405" lon="1.07981">
        <ele>266.9</ele>
        <time>2011-09-25T07:21:56Z</time>
      </trkpt>
      <trkpt lat="44.35405" lon="1.07987">
        <ele>266.42</ele>
        <time>2011-09-25T07:21:57Z</time>
      </trkpt>
      <trkpt lat="44.35406" lon="1.07993">
        <ele>265.94</ele>
        <time>2011-09-25T07:21:58Z</time>
      </trkpt>
      <trkpt lat="44.35407" lon="1.07998">
        <ele>265.94</ele>
        <time>2011-09-25T07:21:59Z</time>
      </trkpt>
      <trkpt lat="44.35408" lon="1.08004">
        <ele>265.46</ele>
        <time>2011-09-25T07:22:00Z</time>
      </trkpt>
      <trkpt lat="44.35429" lon="1.08077">
        <ele>264.5</ele>
        <time>2011-09-25T07:22:12Z</time>
      </trkpt>
      <trkpt lat="44.3543" lon="1.08083">
        <ele>264.02</ele>
        <time>2011-09-25T07:22:13Z</time>
      </trkpt>
      <trkpt lat="44.35448" lon="1.08168">
        <ele>263.06</ele>
        <time>2011-09-25T07:22:27Z</time>
      </trkpt>
      <trkpt lat="44.35455" lon="1.08206">
        <ele>264.02</ele>
        <time>2011-09-25T07:22:33Z</time>
      </trkpt>
      <trkpt lat="44.35455" lon="1.08212">
        <ele>264.02</ele>
        <time>2011-09-25T07:22:34Z</time>
      </trkpt>
      <trkpt lat="44.35455" lon="1.08218">
        <ele>264.02</ele>
        <time>2011-09-25T07:22:35Z</time>
      </trkpt>
      <trkpt lat="44.35456" lon="1.0829">
        <ele>264.02</ele>
        <time>2011-09-25T07:22:48Z</time>
      </trkpt>
      <trkpt lat="44.35456" lon="1.08312">
        <ele>264.02</ele>
        <time>2011-09-25T07:22:52Z</time>
      </trkpt>
      <trkpt lat="44.35465" lon="1.08396">
        <ele>263.54</ele>
        <time>2011-09-25T07:23:06Z</time>
      </trkpt>
      <trkpt lat="44.35472" lon="1.08449">
        <ele>263.54</ele>
        <time>2011-09-25T07:23:14Z</time>
      </trkpt>
      <trkpt lat="44.35484" lon="1.08528">
        <ele>262.58</ele>
        <time>2011-09-25T07:23:25Z</time>
      </trkpt>
      <trkpt lat="44.35492" lon="1.08573">
        <ele>264.02</ele>
        <time>2011-09-25T07:23:32Z</time>
      </trkpt>
      <trkpt lat="44.35494" lon="1.08578">
        <ele>263.54</ele>
        <time>2011-09-25T07:23:33Z</time>
      </trkpt>
      <trkpt lat="44.35496" lon="1.08583">
        <ele>264.5</ele>
        <time>2011-09-25T07:23:34Z</time>
      </trkpt>
      <trkpt lat="44.35498" lon="1.08588">
        <ele>264.5</ele>
        <time>2011-09-25T07:23:35Z</time>
      </trkpt>
      <trkpt lat="44.35501" lon="1.08591">
        <ele>264.5</ele>
        <time>2011-09-25T07:23:36Z</time>
      </trkpt>
      <trkpt lat="44.35504" lon="1.08595">
        <ele>264.5</ele>
        <time>2011-09-25T07:23:37Z</time>
      </trkpt>
      <trkpt lat="44.35508" lon="1.08598">
        <ele>264.5</ele>
        <time>2011-09-25T07:23:38Z</time>
      </trkpt>
      <trkpt lat="44.35513" lon="1.08601">
        <ele>264.5</ele>
        <time>2011-09-25T07:23:39Z</time>
      </trkpt>
      <trkpt lat="44.3553" lon="1.08616">
        <ele>264.02</ele>
        <time>2011-09-25T07:23:43Z</time>
      </trkpt>
      <trkpt lat="44.35555" lon="1.08634">
        <ele>264.02</ele>
        <time>2011-09-25T07:23:48Z</time>
      </trkpt>
      <trkpt lat="44.35559" lon="1.08639">
        <ele>263.54</ele>
        <time>2011-09-25T07:23:49Z</time>
      </trkpt>
      <trkpt lat="44.35618" lon="1.08723">
        <ele>262.58</ele>
        <time>2011-09-25T07:24:03Z</time>
      </trkpt>
      <trkpt lat="44.35638" lon="1.08751">
        <ele>263.06</ele>
        <time>2011-09-25T07:24:08Z</time>
      </trkpt>
      <trkpt lat="44.35702" lon="1.08829">
        <ele>262.1</ele>
        <time>2011-09-25T07:24:23Z</time>
      </trkpt>
      <trkpt lat="44.35752" lon="1.08895">
        <ele>259.69</ele>
        <time>2011-09-25T07:24:34Z</time>
      </trkpt>
      <trkpt lat="44.35774" lon="1.08931">
        <ele>260.65</ele>
        <time>2011-09-25T07:24:40Z</time>
      </trkpt>
      <trkpt lat="44.35827" lon="1.08997">
        <ele>262.58</ele>
        <time>2011-09-25T07:24:55Z</time>
      </trkpt>
      <trkpt lat="44.3583" lon="1.08995">
        <ele>263.54</ele>
        <time>2011-09-25T07:24:56Z</time>
      </trkpt>
      <trkpt lat="44.35833" lon="1.08992">
        <ele>263.06</ele>
        <time>2011-09-25T07:24:57Z</time>
      </trkpt>
      <trkpt lat="44.35844" lon="1.08982">
        <ele>262.58</ele>
        <time>2011-09-25T07:25:00Z</time>
      </trkpt>
      <trkpt lat="44.35849" lon="1.08981">
        <ele>262.58</ele>
        <time>2011-09-25T07:25:01Z</time>
      </trkpt>
      <trkpt lat="44.35853" lon="1.08983">
        <ele>262.58</ele>
        <time>2011-09-25T07:25:02Z</time>
      </trkpt>
      <trkpt lat="44.35856" lon="1.08987">
        <ele>262.58</ele>
        <time>2011-09-25T07:25:03Z</time>
      </trkpt>
      <trkpt lat="44.35859" lon="1.08992">
        <ele>262.58</ele>
        <time>2011-09-25T07:25:04Z</time>
      </trkpt>
      <trkpt lat="44.35861" lon="1.08997">
        <ele>263.06</ele>
        <time>2011-09-25T07:25:05Z</time>
      </trkpt>
      <trkpt lat="44.35879" lon="1.09041">
        <ele>262.58</ele>
        <time>2011-09-25T07:25:13Z</time>
      </trkpt>
      <trkpt lat="44.3588" lon="1.09047">
        <ele>263.06</ele>
        <time>2011-09-25T07:25:14Z</time>
      </trkpt>
      <trkpt lat="44.35881" lon="1.09069">
        <ele>262.58</ele>
        <time>2011-09-25T07:25:17Z</time>
      </trkpt>
      <trkpt lat="44.35889" lon="1.09196">
        <ele>264.5</ele>
        <time>2011-09-25T07:25:36Z</time>
      </trkpt>
      <trkpt lat="44.35889" lon="1.09306">
        <ele>264.02</ele>
        <time>2011-09-25T07:25:52Z</time>
      </trkpt>
      <trkpt lat="44.35891" lon="1.09384">
        <ele>260.65</ele>
        <time>2011-09-25T07:26:01Z</time>
      </trkpt>
      <trkpt lat="44.35898" lon="1.0944">
        <ele>257.29</ele>
        <time>2011-09-25T07:26:06Z</time>
      </trkpt>
      <trkpt lat="44.35899" lon="1.09452">
        <ele>256.81</ele>
        <time>2011-09-25T07:26:07Z</time>
      </trkpt>
      <trkpt lat="44.35899" lon="1.09465">
        <ele>256.33</ele>
        <time>2011-09-25T07:26:08Z</time>
      </trkpt>
      <trkpt lat="44.35897" lon="1.09477">
        <ele>256.81</ele>
        <time>2011-09-25T07:26:09Z</time>
      </trkpt>
      <trkpt lat="44.35895" lon="1.09488">
        <ele>256.33</ele>
        <time>2011-09-25T07:26:10Z</time>
      </trkpt>
      <trkpt lat="44.35891" lon="1.09498">
        <ele>256.81</ele>
        <time>2011-09-25T07:26:11Z</time>
      </trkpt>
      <trkpt lat="44.35886" lon="1.09506">
        <ele>256.33</ele>
        <time>2011-09-25T07:26:12Z</time>
      </trkpt>
      <trkpt lat="44.3588" lon="1.09514">
        <ele>256.81</ele>
        <time>2011-09-25T07:26:13Z</time>
      </trkpt>
      <trkpt lat="44.35836" lon="1.0957">
        <ele>257.77</ele>
        <time>2011-09-25T07:26:22Z</time>
      </trkpt>
      <trkpt lat="44.35832" lon="1.09575">
        <ele>257.77</ele>
        <time>2011-09-25T07:26:23Z</time>
      </trkpt>
      <trkpt lat="44.35824" lon="1.09587">
        <ele>257.77</ele>
        <time>2011-09-25T07:26:25Z</time>
      </trkpt>
      <trkpt lat="44.35821" lon="1.09594">
        <ele>256.81</ele>
        <time>2011-09-25T07:26:26Z</time>
      </trkpt>
      <trkpt lat="44.35819" lon="1.09601">
        <ele>257.29</ele>
        <time>2011-09-25T07:26:27Z</time>
      </trkpt>
      <trkpt lat="44.35817" lon="1.09609">
        <ele>257.29</ele>
        <time>2011-09-25T07:26:28Z</time>
      </trkpt>
      <trkpt lat="44.35816" lon="1.09617">
        <ele>257.77</ele>
        <time>2011-09-25T07:26:29Z</time>
      </trkpt>
      <trkpt lat="44.35815" lon="1.09625">
        <ele>257.29</ele>
        <time>2011-09-25T07:26:30Z</time>
      </trkpt>
      <trkpt lat="44.35813" lon="1.09633">
        <ele>256.81</ele>
        <time>2011-09-25T07:26:31Z</time>
      </trkpt>
      <trkpt lat="44.35811" lon="1.09641">
        <ele>257.29</ele>
        <time>2011-09-25T07:26:32Z</time>
      </trkpt>
      <trkpt lat="44.35797" lon="1.09686">
        <ele>256.33</ele>
        <time>2011-09-25T07:26:38Z</time>
      </trkpt>
      <trkpt lat="44.35796" lon="1.09694">
        <ele>256.81</ele>
        <time>2011-09-25T07:26:39Z</time>
      </trkpt>
      <trkpt lat="44.35796" lon="1.09703">
        <ele>256.81</ele>
        <time>2011-09-25T07:26:40Z</time>
      </trkpt>
      <trkpt lat="44.35796" lon="1.09719">
        <ele>255.37</ele>
        <time>2011-09-25T07:26:42Z</time>
      </trkpt>
      <trkpt lat="44.35794" lon="1.09727">
        <ele>255.85</ele>
        <time>2011-09-25T07:26:43Z</time>
      </trkpt>
      <trkpt lat="44.35791" lon="1.09734">
        <ele>254.41</ele>
        <time>2011-09-25T07:26:44Z</time>
      </trkpt>
      <trkpt lat="44.35787" lon="1.09743">
        <ele>254.41</ele>
        <time>2011-09-25T07:26:45Z</time>
      </trkpt>
      <trkpt lat="44.35783" lon="1.09751">
        <ele>253.44</ele>
        <time>2011-09-25T07:26:46Z</time>
      </trkpt>
      <trkpt lat="44.3578" lon="1.09758">
        <ele>253.44</ele>
        <time>2011-09-25T07:26:47Z</time>
      </trkpt>
      <trkpt lat="44.35775" lon="1.09768">
        <ele>252.48</ele>
        <time>2011-09-25T07:26:49Z</time>
      </trkpt>
      <trkpt lat="44.35774" lon="1.09772">
        <ele>252</ele>
        <time>2011-09-25T07:26:50Z</time>
      </trkpt>
      <trkpt lat="44.35777" lon="1.09785">
        <ele>251.52</ele>
        <time>2011-09-25T07:26:53Z</time>
      </trkpt>
      <trkpt lat="44.3578" lon="1.09795">
        <ele>250.56</ele>
        <time>2011-09-25T07:26:55Z</time>
      </trkpt>
      <trkpt lat="44.35794" lon="1.09827">
        <ele>245.75</ele>
        <time>2011-09-25T07:27:00Z</time>
      </trkpt>
      <trkpt lat="44.35806" lon="1.09853">
        <ele>243.35</ele>
        <time>2011-09-25T07:27:03Z</time>
      </trkpt>
      <trkpt lat="44.35804" lon="1.09879">
        <ele>242.87</ele>
        <time>2011-09-25T07:27:07Z</time>
      </trkpt>
      <trkpt lat="44.3579" lon="1.09897">
        <ele>242.39</ele>
        <time>2011-09-25T07:27:13Z</time>
      </trkpt>
      <trkpt lat="44.35791" lon="1.09904">
        <ele>241.91</ele>
        <time>2011-09-25T07:27:17Z</time>
      </trkpt>
      <trkpt lat="44.35797" lon="1.09912">
        <ele>240.95</ele>
        <time>2011-09-25T07:27:22Z</time>
      </trkpt>
      <trkpt lat="44.35816" lon="1.09922">
        <ele>239.99</ele>
        <time>2011-09-25T07:27:29Z</time>
      </trkpt>
      <trkpt lat="44.35838" lon="1.09926">
        <ele>239.99</ele>
        <time>2011-09-25T07:27:34Z</time>
      </trkpt>
      <trkpt lat="44.35849" lon="1.09927">
        <ele>239.51</ele>
        <time>2011-09-25T07:27:36Z</time>
      </trkpt>
      <trkpt lat="44.35875" lon="1.09954">
        <ele>238.06</ele>
        <time>2011-09-25T07:27:42Z</time>
      </trkpt>
      <trkpt lat="44.35884" lon="1.09977">
        <ele>236.62</ele>
        <time>2011-09-25T07:27:46Z</time>
      </trkpt>
      <trkpt lat="44.35904" lon="1.09982">
        <ele>236.14</ele>
        <time>2011-09-25T07:27:51Z</time>
      </trkpt>
      <trkpt lat="44.35928" lon="1.09972">
        <ele>232.3</ele>
        <time>2011-09-25T07:27:55Z</time>
      </trkpt>
      <trkpt lat="44.35934" lon="1.09966">
        <ele>232.3</ele>
        <time>2011-09-25T07:27:56Z</time>
      </trkpt>
      <trkpt lat="44.35939" lon="1.09959">
        <ele>232.3</ele>
        <time>2011-09-25T07:27:57Z</time>
      </trkpt>
      <trkpt lat="44.35952" lon="1.09934">
        <ele>230.37</ele>
        <time>2011-09-25T07:28:00Z</time>
      </trkpt>
      <trkpt lat="44.35971" lon="1.09893">
        <ele>227.49</ele>
        <time>2011-09-25T07:28:04Z</time>
      </trkpt>
      <trkpt lat="44.35991" lon="1.09866">
        <ele>230.37</ele>
        <time>2011-09-25T07:28:09Z</time>
      </trkpt>
      <trkpt lat="44.35994" lon="1.09855">
        <ele>231.81</ele>
        <time>2011-09-25T07:28:12Z</time>
      </trkpt>
      <trkpt lat="44.36" lon="1.09832">
        <ele>233.74</ele>
        <time>2011-09-25T07:28:18Z</time>
      </trkpt>
      <trkpt lat="44.36019" lon="1.09776">
        <ele>236.62</ele>
        <time>2011-09-25T07:28:31Z</time>
      </trkpt>
      <trkpt lat="44.36037" lon="1.09737">
        <ele>238.54</ele>
        <time>2011-09-25T07:28:41Z</time>
      </trkpt>
      <trkpt lat="44.36043" lon="1.09719">
        <ele>238.06</ele>
        <time>2011-09-25T07:28:45Z</time>
      </trkpt>
      <trkpt lat="44.36054" lon="1.09725">
        <ele>239.99</ele>
        <time>2011-09-25T07:28:52Z</time>
      </trkpt>
      <trkpt lat="44.36056" lon="1.09727">
        <ele>240.47</ele>
        <time>2011-09-25T07:28:54Z</time>
      </trkpt>
      <trkpt lat="44.36071" lon="1.09738">
        <ele>242.39</ele>
        <time>2011-09-25T07:29:03Z</time>
      </trkpt>
      <trkpt lat="44.36083" lon="1.09764">
        <ele>244.31</ele>
        <time>2011-09-25T07:29:15Z</time>
      </trkpt>
      <trkpt lat="44.36093" lon="1.09793">
        <ele>244.79</ele>
        <time>2011-09-25T07:29:25Z</time>
      </trkpt>
      <trkpt lat="44.36108" lon="1.09824">
        <ele>247.2</ele>
        <time>2011-09-25T07:29:37Z</time>
      </trkpt>
      <trkpt lat="44.36131" lon="1.0986">
        <ele>247.68</ele>
        <time>2011-09-25T07:29:50Z</time>
      </trkpt>
      <trkpt lat="44.3614" lon="1.09878">
        <ele>246.23</ele>
        <time>2011-09-25T07:29:54Z</time>
      </trkpt>
      <trkpt lat="44.36142" lon="1.09883">
        <ele>245.75</ele>
        <time>2011-09-25T07:29:55Z</time>
      </trkpt>
      <trkpt lat="44.36146" lon="1.09895">
        <ele>244.79</ele>
        <time>2011-09-25T07:29:57Z</time>
      </trkpt>
      <trkpt lat="44.3615" lon="1.09913">
        <ele>242.87</ele>
        <time>2011-09-25T07:30:00Z</time>
      </trkpt>
      <trkpt lat="44.36151" lon="1.0992">
        <ele>242.39</ele>
        <time>2011-09-25T07:30:01Z</time>
      </trkpt>
      <trkpt lat="44.3616" lon="1.09963">
        <ele>239.02</ele>
        <time>2011-09-25T07:30:06Z</time>
      </trkpt>
      <trkpt lat="44.36176" lon="1.10011">
        <ele>242.39</ele>
        <time>2011-09-25T07:30:14Z</time>
      </trkpt>
      <trkpt lat="44.36184" lon="1.10047">
        <ele>244.79</ele>
        <time>2011-09-25T07:30:25Z</time>
      </trkpt>
      <trkpt lat="44.36161" lon="1.10073">
        <ele>246.23</ele>
        <time>2011-09-25T07:30:36Z</time>
      </trkpt>
      <trkpt lat="44.36128" lon="1.10115">
        <ele>246.72</ele>
        <time>2011-09-25T07:30:49Z</time>
      </trkpt>
      <trkpt lat="44.36107" lon="1.10161">
        <ele>248.16</ele>
        <time>2011-09-25T07:31:00Z</time>
      </trkpt>
      <trkpt lat="44.36106" lon="1.10165">
        <ele>247.68</ele>
        <time>2011-09-25T07:31:01Z</time>
      </trkpt>
      <trkpt lat="44.36091" lon="1.10221">
        <ele>249.6</ele>
        <time>2011-09-25T07:31:14Z</time>
      </trkpt>
      <trkpt lat="44.36092" lon="1.10296">
        <ele>248.16</ele>
        <time>2011-09-25T07:31:27Z</time>
      </trkpt>
      <trkpt lat="44.36097" lon="1.10334">
        <ele>246.23</ele>
        <time>2011-09-25T07:31:33Z</time>
      </trkpt>
      <trkpt lat="44.36097" lon="1.10341">
        <ele>245.27</ele>
        <time>2011-09-25T07:31:34Z</time>
      </trkpt>
      <trkpt lat="44.36096" lon="1.10347">
        <ele>244.31</ele>
        <time>2011-09-25T07:31:35Z</time>
      </trkpt>
      <trkpt lat="44.36094" lon="1.10353">
        <ele>243.83</ele>
        <time>2011-09-25T07:31:36Z</time>
      </trkpt>
      <trkpt lat="44.36092" lon="1.1036">
        <ele>242.87</ele>
        <time>2011-09-25T07:31:37Z</time>
      </trkpt>
      <trkpt lat="44.36091" lon="1.10367">
        <ele>241.91</ele>
        <time>2011-09-25T07:31:38Z</time>
      </trkpt>
      <trkpt lat="44.36079" lon="1.10405">
        <ele>238.54</ele>
        <time>2011-09-25T07:31:43Z</time>
      </trkpt>
      <trkpt lat="44.36078" lon="1.10413">
        <ele>237.58</ele>
        <time>2011-09-25T07:31:44Z</time>
      </trkpt>
      <trkpt lat="44.36078" lon="1.1042">
        <ele>237.1</ele>
        <time>2011-09-25T07:31:45Z</time>
      </trkpt>
      <trkpt lat="44.36079" lon="1.10427">
        <ele>236.62</ele>
        <time>2011-09-25T07:31:46Z</time>
      </trkpt>
      <trkpt lat="44.36082" lon="1.10432">
        <ele>235.66</ele>
        <time>2011-09-25T07:31:47Z</time>
      </trkpt>
      <trkpt lat="44.36085" lon="1.10436">
        <ele>235.18</ele>
        <time>2011-09-25T07:31:48Z</time>
      </trkpt>
      <trkpt lat="44.3609" lon="1.1044">
        <ele>234.7</ele>
        <time>2011-09-25T07:31:49Z</time>
      </trkpt>
      <trkpt lat="44.36095" lon="1.10443">
        <ele>233.74</ele>
        <time>2011-09-25T07:31:50Z</time>
      </trkpt>
      <trkpt lat="44.36101" lon="1.10445">
        <ele>233.26</ele>
        <time>2011-09-25T07:31:51Z</time>
      </trkpt>
      <trkpt lat="44.36107" lon="1.10447">
        <ele>232.3</ele>
        <time>2011-09-25T07:31:52Z</time>
      </trkpt>
      <trkpt lat="44.36113" lon="1.10449">
        <ele>232.3</ele>
        <time>2011-09-25T07:31:53Z</time>
      </trkpt>
      <trkpt lat="44.36118" lon="1.10452">
        <ele>231.81</ele>
        <time>2011-09-25T07:31:54Z</time>
      </trkpt>
      <trkpt lat="44.36123" lon="1.10456">
        <ele>231.81</ele>
        <time>2011-09-25T07:31:55Z</time>
      </trkpt>
      <trkpt lat="44.36126" lon="1.10462">
        <ele>231.81</ele>
        <time>2011-09-25T07:31:56Z</time>
      </trkpt>
      <trkpt lat="44.36128" lon="1.10467">
        <ele>231.81</ele>
        <time>2011-09-25T07:31:57Z</time>
      </trkpt>
      <trkpt lat="44.36129" lon="1.10473">
        <ele>231.81</ele>
        <time>2011-09-25T07:31:58Z</time>
      </trkpt>
      <trkpt lat="44.36129" lon="1.10479">
        <ele>231.81</ele>
        <time>2011-09-25T07:31:59Z</time>
      </trkpt>
      <trkpt lat="44.36129" lon="1.10484">
        <ele>231.33</ele>
        <time>2011-09-25T07:32:00Z</time>
      </trkpt>
      <trkpt lat="44.36118" lon="1.10509">
        <ele>234.22</ele>
        <time>2011-09-25T07:32:08Z</time>
      </trkpt>
      <trkpt lat="44.36101" lon="1.10522">
        <ele>237.58</ele>
        <time>2011-09-25T07:32:17Z</time>
      </trkpt>
      <trkpt lat="44.36079" lon="1.10545">
        <ele>239.99</ele>
        <time>2011-09-25T07:32:30Z</time>
      </trkpt>
      <trkpt lat="44.36079" lon="1.10547">
        <ele>240.95</ele>
        <time>2011-09-25T07:32:31Z</time>
      </trkpt>
      <trkpt lat="44.3607" lon="1.10576">
        <ele>242.87</ele>
        <time>2011-09-25T07:32:42Z</time>
      </trkpt>
      <trkpt lat="44.3607" lon="1.10578">
        <ele>243.35</ele>
        <time>2011-09-25T07:32:43Z</time>
      </trkpt>
      <trkpt lat="44.36063" lon="1.10596">
        <ele>243.83</ele>
        <time>2011-09-25T07:32:50Z</time>
      </trkpt>
      <trkpt lat="44.36062" lon="1.10598">
        <ele>244.31</ele>
        <time>2011-09-25T07:32:51Z</time>
      </trkpt>
      <trkpt lat="44.36058" lon="1.10602">
        <ele>244.79</ele>
        <time>2011-09-25T07:32:53Z</time>
      </trkpt>
      <trkpt lat="44.36057" lon="1.10603">
        <ele>244.79</ele>
        <time>2011-09-25T07:32:54Z</time>
      </trkpt>
      <trkpt lat="44.36056" lon="1.10605">
        <ele>244.79</ele>
        <time>2011-09-25T07:32:55Z</time>
      </trkpt>
      <trkpt lat="44.36055" lon="1.10607">
        <ele>244.31</ele>
        <time>2011-09-25T07:32:56Z</time>
      </trkpt>
      <trkpt lat="44.36054" lon="1.10608">
        <ele>244.79</ele>
        <time>2011-09-25T07:32:57Z</time>
      </trkpt>
      <trkpt lat="44.36052" lon="1.10611">
        <ele>245.27</ele>
        <time>2011-09-25T07:32:58Z</time>
      </trkpt>
      <trkpt lat="44.36051" lon="1.10613">
        <ele>244.79</ele>
        <time>2011-09-25T07:32:59Z</time>
      </trkpt>
      <trkpt lat="44.3605" lon="1.10614">
        <ele>245.27</ele>
        <time>2011-09-25T07:33:00Z</time>
      </trkpt>
      <trkpt lat="44.36049" lon="1.10617">
        <ele>244.79</ele>
        <time>2011-09-25T07:33:01Z</time>
      </trkpt>
      <trkpt lat="44.36025" lon="1.10648">
        <ele>246.23</ele>
        <time>2011-09-25T07:33:13Z</time>
      </trkpt>
      <trkpt lat="44.35999" lon="1.10687">
        <ele>245.75</ele>
        <time>2011-09-25T07:33:25Z</time>
      </trkpt>
      <trkpt lat="44.35957" lon="1.10718">
        <ele>246.72</ele>
        <time>2011-09-25T07:33:39Z</time>
      </trkpt>
      <trkpt lat="44.35939" lon="1.10727">
        <ele>246.72</ele>
        <time>2011-09-25T07:33:44Z</time>
      </trkpt>
      <trkpt lat="44.35868" lon="1.10766">
        <ele>245.75</ele>
        <time>2011-09-25T07:34:02Z</time>
      </trkpt>
      <trkpt lat="44.3586" lon="1.10772">
        <ele>245.27</ele>
        <time>2011-09-25T07:34:04Z</time>
      </trkpt>
      <trkpt lat="44.35804" lon="1.10837">
        <ele>243.83</ele>
        <time>2011-09-25T07:34:19Z</time>
      </trkpt>
      <trkpt lat="44.35794" lon="1.10849">
        <ele>243.35</ele>
        <time>2011-09-25T07:34:22Z</time>
      </trkpt>
      <trkpt lat="44.35791" lon="1.10851">
        <ele>244.31</ele>
        <time>2011-09-25T07:34:23Z</time>
      </trkpt>
      <trkpt lat="44.35787" lon="1.10853">
        <ele>244.31</ele>
        <time>2011-09-25T07:34:24Z</time>
      </trkpt>
      <trkpt lat="44.35783" lon="1.10853">
        <ele>243.83</ele>
        <time>2011-09-25T07:34:25Z</time>
      </trkpt>
      <trkpt lat="44.35778" lon="1.10852">
        <ele>243.35</ele>
        <time>2011-09-25T07:34:26Z</time>
      </trkpt>
      <trkpt lat="44.35774" lon="1.1085">
        <ele>243.35</ele>
        <time>2011-09-25T07:34:27Z</time>
      </trkpt>
      <trkpt lat="44.35745" lon="1.10841">
        <ele>243.83</ele>
        <time>2011-09-25T07:34:34Z</time>
      </trkpt>
      <trkpt lat="44.35743" lon="1.10843">
        <ele>243.83</ele>
        <time>2011-09-25T07:34:35Z</time>
      </trkpt>
      <trkpt lat="44.35741" lon="1.10846">
        <ele>243.83</ele>
        <time>2011-09-25T07:34:36Z</time>
      </trkpt>
      <trkpt lat="44.3574" lon="1.10851">
        <ele>244.31</ele>
        <time>2011-09-25T07:34:37Z</time>
      </trkpt>
      <trkpt lat="44.3574" lon="1.10856">
        <ele>243.83</ele>
        <time>2011-09-25T07:34:38Z</time>
      </trkpt>
      <trkpt lat="44.3574" lon="1.10861">
        <ele>244.31</ele>
        <time>2011-09-25T07:34:39Z</time>
      </trkpt>
      <trkpt lat="44.35733" lon="1.10918">
        <ele>246.23</ele>
        <time>2011-09-25T07:34:52Z</time>
      </trkpt>
      <trkpt lat="44.35714" lon="1.10971">
        <ele>247.68</ele>
        <time>2011-09-25T07:35:05Z</time>
      </trkpt>
      <trkpt lat="44.3568" lon="1.11035">
        <ele>249.12</ele>
        <time>2011-09-25T07:35:20Z</time>
      </trkpt>
      <trkpt lat="44.35658" lon="1.11074">
        <ele>252.48</ele>
        <time>2011-09-25T07:35:31Z</time>
      </trkpt>
      <trkpt lat="44.35647" lon="1.11084">
        <ele>250.56</ele>
        <time>2011-09-25T07:35:35Z</time>
      </trkpt>
      <trkpt lat="44.35642" lon="1.11087">
        <ele>250.08</ele>
        <time>2011-09-25T07:35:36Z</time>
      </trkpt>
      <trkpt lat="44.35626" lon="1.11103">
        <ele>246.72</ele>
        <time>2011-09-25T07:35:40Z</time>
      </trkpt>
      <trkpt lat="44.35622" lon="1.11107">
        <ele>246.72</ele>
        <time>2011-09-25T07:35:41Z</time>
      </trkpt>
      <trkpt lat="44.3561" lon="1.11134">
        <ele>245.75</ele>
        <time>2011-09-25T07:35:51Z</time>
      </trkpt>
      <trkpt lat="44.35611" lon="1.11139">
        <ele>246.23</ele>
        <time>2011-09-25T07:35:54Z</time>
      </trkpt>
      <trkpt lat="44.35611" lon="1.11141">
        <ele>245.75</ele>
        <time>2011-09-25T07:35:55Z</time>
      </trkpt>
      <trkpt lat="44.35611" lon="1.11143">
        <ele>245.75</ele>
        <time>2011-09-25T07:35:56Z</time>
      </trkpt>
      <trkpt lat="44.3561" lon="1.11144">
        <ele>245.75</ele>
        <time>2011-09-25T07:35:57Z</time>
      </trkpt>
      <trkpt lat="44.3561" lon="1.11146">
        <ele>246.23</ele>
        <time>2011-09-25T07:35:58Z</time>
      </trkpt>
      <trkpt lat="44.35609" lon="1.11148">
        <ele>246.23</ele>
        <time>2011-09-25T07:35:59Z</time>
      </trkpt>
      <trkpt lat="44.35609" lon="1.11165">
        <ele>245.75</ele>
        <time>2011-09-25T07:36:05Z</time>
      </trkpt>
      <trkpt lat="44.35609" lon="1.11168">
        <ele>245.75</ele>
        <time>2011-09-25T07:36:06Z</time>
      </trkpt>
      <trkpt lat="44.35608" lon="1.1117">
        <ele>245.27</ele>
        <time>2011-09-25T07:36:07Z</time>
      </trkpt>
      <trkpt lat="44.35608" lon="1.11172">
        <ele>245.75</ele>
        <time>2011-09-25T07:36:08Z</time>
      </trkpt>
      <trkpt lat="44.35608" lon="1.11174">
        <ele>245.75</ele>
        <time>2011-09-25T07:36:09Z</time>
      </trkpt>
      <trkpt lat="44.35607" lon="1.11176">
        <ele>245.75</ele>
        <time>2011-09-25T07:36:10Z</time>
      </trkpt>
      <trkpt lat="44.35605" lon="1.11194">
        <ele>244.79</ele>
        <time>2011-09-25T07:36:18Z</time>
      </trkpt>
      <trkpt lat="44.35606" lon="1.11196">
        <ele>245.27</ele>
        <time>2011-09-25T07:36:19Z</time>
      </trkpt>
      <trkpt lat="44.35616" lon="1.1124">
        <ele>244.79</ele>
        <time>2011-09-25T07:36:35Z</time>
      </trkpt>
      <trkpt lat="44.35629" lon="1.11274">
        <ele>245.75</ele>
        <time>2011-09-25T07:36:47Z</time>
      </trkpt>
      <trkpt lat="44.35631" lon="1.11282">
        <ele>244.79</ele>
        <time>2011-09-25T07:36:59Z</time>
      </trkpt>
      <trkpt lat="44.35631" lon="1.11282">
        <ele>245.75</ele>
        <time>2011-09-25T07:37:46Z</time>
      </trkpt>
      <trkpt lat="44.35631" lon="1.11283">
        <ele>244.31</ele>
        <time>2011-09-25T07:38:16Z</time>
      </trkpt>
      <trkpt lat="44.35631" lon="1.11283">
        <ele>244.31</ele>
        <time>2011-09-25T07:38:52Z</time>
      </trkpt>
      <trkpt lat="44.35631" lon="1.11283">
        <ele>245.27</ele>
        <time>2011-09-25T07:39:16Z</time>
      </trkpt>
      <trkpt lat="44.35631" lon="1.11283">
        <ele>245.27</ele>
        <time>2011-09-25T07:39:17Z</time>
      </trkpt>
      <trkpt lat="44.35632" lon="1.11285">
        <ele>244.79</ele>
        <time>2011-09-25T07:39:18Z</time>
      </trkpt>
      <trkpt lat="44.35634" lon="1.11287">
        <ele>244.79</ele>
        <time>2011-09-25T07:39:19Z</time>
      </trkpt>
      <trkpt lat="44.35635" lon="1.11289">
        <ele>245.27</ele>
        <time>2011-09-25T07:39:20Z</time>
      </trkpt>
      <trkpt lat="44.35637" lon="1.11291">
        <ele>244.79</ele>
        <time>2011-09-25T07:39:21Z</time>
      </trkpt>
      <trkpt lat="44.35675" lon="1.11303">
        <ele>242.39</ele>
        <time>2011-09-25T07:39:32Z</time>
      </trkpt>
      <trkpt lat="44.35701" lon="1.11296">
        <ele>241.91</ele>
        <time>2011-09-25T07:39:37Z</time>
      </trkpt>
      <trkpt lat="44.35788" lon="1.11268">
        <ele>240.47</ele>
        <time>2011-09-25T07:39:51Z</time>
      </trkpt>
      <trkpt lat="44.35828" lon="1.11251">
        <ele>240.47</ele>
        <time>2011-09-25T07:39:58Z</time>
      </trkpt>
      <trkpt lat="44.35892" lon="1.11244">
        <ele>242.87</ele>
        <time>2011-09-25T07:40:11Z</time>
      </trkpt>
      <trkpt lat="44.35896" lon="1.11246">
        <ele>242.39</ele>
        <time>2011-09-25T07:40:12Z</time>
      </trkpt>
      <trkpt lat="44.35899" lon="1.1125">
        <ele>242.87</ele>
        <time>2011-09-25T07:40:13Z</time>
      </trkpt>
      <trkpt lat="44.35902" lon="1.11255">
        <ele>242.87</ele>
        <time>2011-09-25T07:40:14Z</time>
      </trkpt>
      <trkpt lat="44.35904" lon="1.11262">
        <ele>242.87</ele>
        <time>2011-09-25T07:40:15Z</time>
      </trkpt>
      <trkpt lat="44.35905" lon="1.11268">
        <ele>242.87</ele>
        <time>2011-09-25T07:40:16Z</time>
      </trkpt>
      <trkpt lat="44.35906" lon="1.11282">
        <ele>242.87</ele>
        <time>2011-09-25T07:40:18Z</time>
      </trkpt>
      <trkpt lat="44.35908" lon="1.11303">
        <ele>242.87</ele>
        <time>2011-09-25T07:40:21Z</time>
      </trkpt>
      <trkpt lat="44.3591" lon="1.1131">
        <ele>242.87</ele>
        <time>2011-09-25T07:40:22Z</time>
      </trkpt>
      <trkpt lat="44.35912" lon="1.11316">
        <ele>242.87</ele>
        <time>2011-09-25T07:40:23Z</time>
      </trkpt>
      <trkpt lat="44.35926" lon="1.11345">
        <ele>240.47</ele>
        <time>2011-09-25T07:40:28Z</time>
      </trkpt>
      <trkpt lat="44.3593" lon="1.11348">
        <ele>239.51</ele>
        <time>2011-09-25T07:40:29Z</time>
      </trkpt>
      <trkpt lat="44.35934" lon="1.11349">
        <ele>239.51</ele>
        <time>2011-09-25T07:40:30Z</time>
      </trkpt>
      <trkpt lat="44.35938" lon="1.11347">
        <ele>239.51</ele>
        <time>2011-09-25T07:40:31Z</time>
      </trkpt>
      <trkpt lat="44.35943" lon="1.11346">
        <ele>239.99</ele>
        <time>2011-09-25T07:40:32Z</time>
      </trkpt>
      <trkpt lat="44.35947" lon="1.11346">
        <ele>239.02</ele>
        <time>2011-09-25T07:40:33Z</time>
      </trkpt>
      <trkpt lat="44.35951" lon="1.11349">
        <ele>239.51</ele>
        <time>2011-09-25T07:40:34Z</time>
      </trkpt>
      <trkpt lat="44.35954" lon="1.11353">
        <ele>239.51</ele>
        <time>2011-09-25T07:40:35Z</time>
      </trkpt>
      <trkpt lat="44.35957" lon="1.11357">
        <ele>239.99</ele>
        <time>2011-09-25T07:40:36Z</time>
      </trkpt>
      <trkpt lat="44.35959" lon="1.11361">
        <ele>239.99</ele>
        <time>2011-09-25T07:40:37Z</time>
      </trkpt>
      <trkpt lat="44.35961" lon="1.11365">
        <ele>239.99</ele>
        <time>2011-09-25T07:40:38Z</time>
      </trkpt>
      <trkpt lat="44.35982" lon="1.11397">
        <ele>243.35</ele>
        <time>2011-09-25T07:40:46Z</time>
      </trkpt>
      <trkpt lat="44.36017" lon="1.11438">
        <ele>246.23</ele>
        <time>2011-09-25T07:40:58Z</time>
      </trkpt>
      <trkpt lat="44.36016" lon="1.11473">
        <ele>248.16</ele>
        <time>2011-09-25T07:41:06Z</time>
      </trkpt>
      <trkpt lat="44.36013" lon="1.11492">
        <ele>248.64</ele>
        <time>2011-09-25T07:41:11Z</time>
      </trkpt>
      <trkpt lat="44.3601" lon="1.11494">
        <ele>248.64</ele>
        <time>2011-09-25T07:41:12Z</time>
      </trkpt>
      <trkpt lat="44.36002" lon="1.11502">
        <ele>248.64</ele>
        <time>2011-09-25T07:41:15Z</time>
      </trkpt>
      <trkpt lat="44.36" lon="1.11505">
        <ele>248.64</ele>
        <time>2011-09-25T07:41:16Z</time>
      </trkpt>
      <trkpt lat="44.35999" lon="1.1151">
        <ele>248.64</ele>
        <time>2011-09-25T07:41:17Z</time>
      </trkpt>
      <trkpt lat="44.35997" lon="1.11512">
        <ele>248.16</ele>
        <time>2011-09-25T07:41:18Z</time>
      </trkpt>
      <trkpt lat="44.35994" lon="1.11513">
        <ele>248.16</ele>
        <time>2011-09-25T07:41:19Z</time>
      </trkpt>
      <trkpt lat="44.35992" lon="1.11515">
        <ele>247.68</ele>
        <time>2011-09-25T07:41:20Z</time>
      </trkpt>
      <trkpt lat="44.35989" lon="1.11517">
        <ele>247.68</ele>
        <time>2011-09-25T07:41:21Z</time>
      </trkpt>
      <trkpt lat="44.35969" lon="1.11536">
        <ele>246.72</ele>
        <time>2011-09-25T07:41:27Z</time>
      </trkpt>
      <trkpt lat="44.35965" lon="1.11541">
        <ele>246.72</ele>
        <time>2011-09-25T07:41:28Z</time>
      </trkpt>
      <trkpt lat="44.3595" lon="1.11559">
        <ele>246.23</ele>
        <time>2011-09-25T07:41:32Z</time>
      </trkpt>
      <trkpt lat="44.35947" lon="1.11565">
        <ele>245.75</ele>
        <time>2011-09-25T07:41:33Z</time>
      </trkpt>
      <trkpt lat="44.35944" lon="1.1157">
        <ele>246.23</ele>
        <time>2011-09-25T07:41:34Z</time>
      </trkpt>
      <trkpt lat="44.3594" lon="1.11574">
        <ele>245.75</ele>
        <time>2011-09-25T07:41:35Z</time>
      </trkpt>
      <trkpt lat="44.35936" lon="1.11578">
        <ele>245.75</ele>
        <time>2011-09-25T07:41:36Z</time>
      </trkpt>
      <trkpt lat="44.35933" lon="1.11581">
        <ele>245.27</ele>
        <time>2011-09-25T07:41:37Z</time>
      </trkpt>
      <trkpt lat="44.3593" lon="1.11587">
        <ele>245.27</ele>
        <time>2011-09-25T07:41:38Z</time>
      </trkpt>
      <trkpt lat="44.35926" lon="1.11592">
        <ele>245.27</ele>
        <time>2011-09-25T07:41:39Z</time>
      </trkpt>
      <trkpt lat="44.35923" lon="1.11598">
        <ele>244.79</ele>
        <time>2011-09-25T07:41:40Z</time>
      </trkpt>
      <trkpt lat="44.3592" lon="1.11604">
        <ele>244.79</ele>
        <time>2011-09-25T07:41:41Z</time>
      </trkpt>
      <trkpt lat="44.35917" lon="1.1161">
        <ele>244.79</ele>
        <time>2011-09-25T07:41:42Z</time>
      </trkpt>
      <trkpt lat="44.35915" lon="1.11615">
        <ele>244.31</ele>
        <time>2011-09-25T07:41:43Z</time>
      </trkpt>
      <trkpt lat="44.35927" lon="1.11652">
        <ele>241.91</ele>
        <time>2011-09-25T07:41:50Z</time>
      </trkpt>
      <trkpt lat="44.35928" lon="1.11658">
        <ele>241.43</ele>
        <time>2011-09-25T07:41:51Z</time>
      </trkpt>
      <trkpt lat="44.35931" lon="1.11677">
        <ele>240.47</ele>
        <time>2011-09-25T07:41:54Z</time>
      </trkpt>
      <trkpt lat="44.35932" lon="1.11696">
        <ele>239.51</ele>
        <time>2011-09-25T07:41:57Z</time>
      </trkpt>
      <trkpt lat="44.35933" lon="1.11709">
        <ele>239.51</ele>
        <time>2011-09-25T07:41:59Z</time>
      </trkpt>
      <trkpt lat="44.35938" lon="1.11751">
        <ele>238.54</ele>
        <time>2011-09-25T07:42:06Z</time>
      </trkpt>
      <trkpt lat="44.35941" lon="1.11762">
        <ele>238.06</ele>
        <time>2011-09-25T07:42:08Z</time>
      </trkpt>
      <trkpt lat="44.35947" lon="1.11809">
        <ele>236.14</ele>
        <time>2011-09-25T07:42:16Z</time>
      </trkpt>
      <trkpt lat="44.35949" lon="1.11819">
        <ele>235.18</ele>
        <time>2011-09-25T07:42:18Z</time>
      </trkpt>
      <trkpt lat="44.35945" lon="1.11849">
        <ele>234.22</ele>
        <time>2011-09-25T07:42:22Z</time>
      </trkpt>
      <trkpt lat="44.35943" lon="1.11863">
        <ele>233.26</ele>
        <time>2011-09-25T07:42:24Z</time>
      </trkpt>
      <trkpt lat="44.35942" lon="1.11869">
        <ele>232.78</ele>
        <time>2011-09-25T07:42:25Z</time>
      </trkpt>
      <trkpt lat="44.35944" lon="1.11888">
        <ele>229.41</ele>
        <time>2011-09-25T07:42:33Z</time>
      </trkpt>
      <trkpt lat="44.35949" lon="1.11889">
        <ele>227.97</ele>
        <time>2011-09-25T07:42:35Z</time>
      </trkpt>
      <trkpt lat="44.35959" lon="1.11887">
        <ele>225.57</ele>
        <time>2011-09-25T07:42:38Z</time>
      </trkpt>
      <trkpt lat="44.35975" lon="1.1188">
        <ele>222.2</ele>
        <time>2011-09-25T07:42:42Z</time>
      </trkpt>
      <trkpt lat="44.35992" lon="1.11872">
        <ele>219.32</ele>
        <time>2011-09-25T07:42:45Z</time>
      </trkpt>
      <trkpt lat="44.36012" lon="1.11873">
        <ele>216.43</ele>
        <time>2011-09-25T07:42:49Z</time>
      </trkpt>
      <trkpt lat="44.36018" lon="1.11872">
        <ele>215.47</ele>
        <time>2011-09-25T07:42:51Z</time>
      </trkpt>
      <trkpt lat="44.36029" lon="1.11876">
        <ele>213.07</ele>
        <time>2011-09-25T07:42:55Z</time>
      </trkpt>
      <trkpt lat="44.36044" lon="1.11887">
        <ele>210.67</ele>
        <time>2011-09-25T07:42:58Z</time>
      </trkpt>
      <trkpt lat="44.36052" lon="1.11899">
        <ele>209.22</ele>
        <time>2011-09-25T07:43:00Z</time>
      </trkpt>
      <trkpt lat="44.36071" lon="1.11911">
        <ele>206.82</ele>
        <time>2011-09-25T07:43:04Z</time>
      </trkpt>
      <trkpt lat="44.36082" lon="1.11913">
        <ele>205.38</ele>
        <time>2011-09-25T07:43:06Z</time>
      </trkpt>
      <trkpt lat="44.36102" lon="1.11924">
        <ele>203.46</ele>
        <time>2011-09-25T07:43:10Z</time>
      </trkpt>
      <trkpt lat="44.36104" lon="1.11927">
        <ele>202.98</ele>
        <time>2011-09-25T07:43:11Z</time>
      </trkpt>
      <trkpt lat="44.36128" lon="1.11967">
        <ele>199.13</ele>
        <time>2011-09-25T07:43:24Z</time>
      </trkpt>
      <trkpt lat="44.36141" lon="1.12">
        <ele>196.73</ele>
        <time>2011-09-25T07:43:30Z</time>
      </trkpt>
      <trkpt lat="44.36161" lon="1.11997">
        <ele>197.69</ele>
        <time>2011-09-25T07:43:38Z</time>
      </trkpt>
      <trkpt lat="44.3618" lon="1.11987">
        <ele>196.73</ele>
        <time>2011-09-25T07:43:44Z</time>
      </trkpt>
      <trkpt lat="44.36184" lon="1.11989">
        <ele>196.25</ele>
        <time>2011-09-25T07:43:45Z</time>
      </trkpt>
      <trkpt lat="44.36191" lon="1.12">
        <ele>195.77</ele>
        <time>2011-09-25T07:43:47Z</time>
      </trkpt>
      <trkpt lat="44.36195" lon="1.12003">
        <ele>195.77</ele>
        <time>2011-09-25T07:43:48Z</time>
      </trkpt>
      <trkpt lat="44.36199" lon="1.12003">
        <ele>195.77</ele>
        <time>2011-09-25T07:43:49Z</time>
      </trkpt>
      <trkpt lat="44.36203" lon="1.12002">
        <ele>196.25</ele>
        <time>2011-09-25T07:43:50Z</time>
      </trkpt>
      <trkpt lat="44.36208" lon="1.12">
        <ele>196.25</ele>
        <time>2011-09-25T07:43:51Z</time>
      </trkpt>
      <trkpt lat="44.36214" lon="1.12">
        <ele>196.73</ele>
        <time>2011-09-25T07:43:52Z</time>
      </trkpt>
      <trkpt lat="44.36219" lon="1.11999">
        <ele>196.73</ele>
        <time>2011-09-25T07:43:53Z</time>
      </trkpt>
      <trkpt lat="44.36224" lon="1.12">
        <ele>196.73</ele>
        <time>2011-09-25T07:43:54Z</time>
      </trkpt>
      <trkpt lat="44.36229" lon="1.12001">
        <ele>197.21</ele>
        <time>2011-09-25T07:43:55Z</time>
      </trkpt>
      <trkpt lat="44.36234" lon="1.12004">
        <ele>197.69</ele>
        <time>2011-09-25T07:43:56Z</time>
      </trkpt>
      <trkpt lat="44.36237" lon="1.12008">
        <ele>198.65</ele>
        <time>2011-09-25T07:43:57Z</time>
      </trkpt>
      <trkpt lat="44.3624" lon="1.12011">
        <ele>198.65</ele>
        <time>2011-09-25T07:43:58Z</time>
      </trkpt>
      <trkpt lat="44.36243" lon="1.12015">
        <ele>199.13</ele>
        <time>2011-09-25T07:43:59Z</time>
      </trkpt>
      <trkpt lat="44.36279" lon="1.12047">
        <ele>202.01</ele>
        <time>2011-09-25T07:44:11Z</time>
      </trkpt>
      <trkpt lat="44.36297" lon="1.12064">
        <ele>202.49</ele>
        <time>2011-09-25T07:44:17Z</time>
      </trkpt>
      <trkpt lat="44.36299" lon="1.12067">
        <ele>202.49</ele>
        <time>2011-09-25T07:44:18Z</time>
      </trkpt>
      <trkpt lat="44.36303" lon="1.1207">
        <ele>202.01</ele>
        <time>2011-09-25T07:44:19Z</time>
      </trkpt>
      <trkpt lat="44.36355" lon="1.12107">
        <ele>202.01</ele>
        <time>2011-09-25T07:44:32Z</time>
      </trkpt>
      <trkpt lat="44.36367" lon="1.12117">
        <ele>201.53</ele>
        <time>2011-09-25T07:44:35Z</time>
      </trkpt>
      <trkpt lat="44.36371" lon="1.12119">
        <ele>201.53</ele>
        <time>2011-09-25T07:44:36Z</time>
      </trkpt>
      <trkpt lat="44.36376" lon="1.12121">
        <ele>202.01</ele>
        <time>2011-09-25T07:44:37Z</time>
      </trkpt>
      <trkpt lat="44.36394" lon="1.1213">
        <ele>202.49</ele>
        <time>2011-09-25T07:44:41Z</time>
      </trkpt>
      <trkpt lat="44.36418" lon="1.12144">
        <ele>202.49</ele>
        <time>2011-09-25T07:44:46Z</time>
      </trkpt>
      <trkpt lat="44.36466" lon="1.12181">
        <ele>202.01</ele>
        <time>2011-09-25T07:44:57Z</time>
      </trkpt>
      <trkpt lat="44.3647" lon="1.12183">
        <ele>202.49</ele>
        <time>2011-09-25T07:44:58Z</time>
      </trkpt>
      <trkpt lat="44.36474" lon="1.12186">
        <ele>202.49</ele>
        <time>2011-09-25T07:44:59Z</time>
      </trkpt>
      <trkpt lat="44.365" lon="1.12212">
        <ele>204.9</ele>
        <time>2011-09-25T07:45:08Z</time>
      </trkpt>
      <trkpt lat="44.36501" lon="1.12216">
        <ele>204.9</ele>
        <time>2011-09-25T07:45:09Z</time>
      </trkpt>
      <trkpt lat="44.36501" lon="1.1222">
        <ele>204.9</ele>
        <time>2011-09-25T07:45:10Z</time>
      </trkpt>
      <trkpt lat="44.36501" lon="1.12242">
        <ele>203.46</ele>
        <time>2011-09-25T07:45:14Z</time>
      </trkpt>
      <trkpt lat="44.36501" lon="1.12249">
        <ele>202.98</ele>
        <time>2011-09-25T07:45:15Z</time>
      </trkpt>
      <trkpt lat="44.36501" lon="1.12255">
        <ele>202.98</ele>
        <time>2011-09-25T07:45:16Z</time>
      </trkpt>
      <trkpt lat="44.365" lon="1.12261">
        <ele>202.98</ele>
        <time>2011-09-25T07:45:17Z</time>
      </trkpt>
      <trkpt lat="44.36499" lon="1.12267">
        <ele>202.49</ele>
        <time>2011-09-25T07:45:18Z</time>
      </trkpt>
      <trkpt lat="44.36496" lon="1.12273">
        <ele>202.98</ele>
        <time>2011-09-25T07:45:19Z</time>
      </trkpt>
      <trkpt lat="44.36493" lon="1.12279">
        <ele>202.49</ele>
        <time>2011-09-25T07:45:20Z</time>
      </trkpt>
      <trkpt lat="44.3649" lon="1.12285">
        <ele>202.49</ele>
        <time>2011-09-25T07:45:21Z</time>
      </trkpt>
      <trkpt lat="44.36486" lon="1.1229">
        <ele>202.49</ele>
        <time>2011-09-25T07:45:22Z</time>
      </trkpt>
      <trkpt lat="44.36482" lon="1.12295">
        <ele>202.01</ele>
        <time>2011-09-25T07:45:23Z</time>
      </trkpt>
      <trkpt lat="44.36478" lon="1.12299">
        <ele>202.01</ele>
        <time>2011-09-25T07:45:24Z</time>
      </trkpt>
      <trkpt lat="44.36475" lon="1.12303">
        <ele>202.49</ele>
        <time>2011-09-25T07:45:25Z</time>
      </trkpt>
      <trkpt lat="44.36472" lon="1.12308">
        <ele>202.49</ele>
        <time>2011-09-25T07:45:26Z</time>
      </trkpt>
      <trkpt lat="44.3647" lon="1.12313">
        <ele>202.01</ele>
        <time>2011-09-25T07:45:27Z</time>
      </trkpt>
      <trkpt lat="44.36466" lon="1.12316">
        <ele>202.49</ele>
        <time>2011-09-25T07:45:28Z</time>
      </trkpt>
      <trkpt lat="44.36462" lon="1.12315">
        <ele>202.01</ele>
        <time>2011-09-25T07:45:29Z</time>
      </trkpt>
      <trkpt lat="44.36459" lon="1.12314">
        <ele>202.01</ele>
        <time>2011-09-25T07:45:30Z</time>
      </trkpt>
      <trkpt lat="44.36455" lon="1.12311">
        <ele>202.49</ele>
        <time>2011-09-25T07:45:31Z</time>
      </trkpt>
      <trkpt lat="44.36453" lon="1.12308">
        <ele>202.49</ele>
        <time>2011-09-25T07:45:32Z</time>
      </trkpt>
      <trkpt lat="44.36422" lon="1.12287">
        <ele>202.01</ele>
        <time>2011-09-25T07:45:42Z</time>
      </trkpt>
      <trkpt lat="44.36419" lon="1.12284">
        <ele>202.01</ele>
        <time>2011-09-25T07:45:43Z</time>
      </trkpt>
      <trkpt lat="44.36395" lon="1.12263">
        <ele>200.57</ele>
        <time>2011-09-25T07:45:48Z</time>
      </trkpt>
      <trkpt lat="44.3639" lon="1.1226">
        <ele>200.57</ele>
        <time>2011-09-25T07:45:49Z</time>
      </trkpt>
      <trkpt lat="44.36369" lon="1.12244">
        <ele>200.57</ele>
        <time>2011-09-25T07:45:53Z</time>
      </trkpt>
      <trkpt lat="44.36364" lon="1.12241">
        <ele>200.09</ele>
        <time>2011-09-25T07:45:54Z</time>
      </trkpt>
      <trkpt lat="44.3636" lon="1.12239">
        <ele>200.57</ele>
        <time>2011-09-25T07:45:55Z</time>
      </trkpt>
      <trkpt lat="44.36325" lon="1.12224">
        <ele>202.49</ele>
        <time>2011-09-25T07:46:05Z</time>
      </trkpt>
      <trkpt lat="44.36294" lon="1.12217">
        <ele>205.86</ele>
        <time>2011-09-25T07:46:17Z</time>
      </trkpt>
      <trkpt lat="44.36256" lon="1.12214">
        <ele>208.26</ele>
        <time>2011-09-25T07:46:30Z</time>
      </trkpt>
      <trkpt lat="44.36239" lon="1.12218">
        <ele>209.7</ele>
        <time>2011-09-25T07:46:37Z</time>
      </trkpt>
      <trkpt lat="44.36237" lon="1.12219">
        <ele>210.67</ele>
        <time>2011-09-25T07:46:38Z</time>
      </trkpt>
      <trkpt lat="44.36235" lon="1.1222">
        <ele>210.67</ele>
        <time>2011-09-25T07:46:39Z</time>
      </trkpt>
      <trkpt lat="44.36232" lon="1.12221">
        <ele>210.67</ele>
        <time>2011-09-25T07:46:40Z</time>
      </trkpt>
      <trkpt lat="44.3623" lon="1.12222">
        <ele>211.15</ele>
        <time>2011-09-25T07:46:41Z</time>
      </trkpt>
      <trkpt lat="44.36228" lon="1.12223">
        <ele>211.15</ele>
        <time>2011-09-25T07:46:42Z</time>
      </trkpt>
      <trkpt lat="44.36226" lon="1.12223">
        <ele>211.15</ele>
        <time>2011-09-25T07:46:43Z</time>
      </trkpt>
      <trkpt lat="44.36223" lon="1.12224">
        <ele>211.15</ele>
        <time>2011-09-25T07:46:44Z</time>
      </trkpt>
      <trkpt lat="44.36221" lon="1.12224">
        <ele>211.15</ele>
        <time>2011-09-25T07:46:45Z</time>
      </trkpt>
      <trkpt lat="44.36219" lon="1.12225">
        <ele>211.15</ele>
        <time>2011-09-25T07:46:46Z</time>
      </trkpt>
      <trkpt lat="44.36217" lon="1.12225">
        <ele>212.11</ele>
        <time>2011-09-25T07:46:47Z</time>
      </trkpt>
      <trkpt lat="44.36214" lon="1.12226">
        <ele>211.15</ele>
        <time>2011-09-25T07:46:48Z</time>
      </trkpt>
      <trkpt lat="44.36212" lon="1.12227">
        <ele>211.15</ele>
        <time>2011-09-25T07:46:49Z</time>
      </trkpt>
      <trkpt lat="44.3621" lon="1.12227">
        <ele>211.15</ele>
        <time>2011-09-25T07:46:50Z</time>
      </trkpt>
      <trkpt lat="44.36207" lon="1.12228">
        <ele>211.15</ele>
        <time>2011-09-25T07:46:51Z</time>
      </trkpt>
      <trkpt lat="44.36205" lon="1.12229">
        <ele>211.63</ele>
        <time>2011-09-25T07:46:52Z</time>
      </trkpt>
      <trkpt lat="44.36202" lon="1.12229">
        <ele>211.63</ele>
        <time>2011-09-25T07:46:53Z</time>
      </trkpt>
      <trkpt lat="44.362" lon="1.1223">
        <ele>211.63</ele>
        <time>2011-09-25T07:46:54Z</time>
      </trkpt>
      <trkpt lat="44.36197" lon="1.12231">
        <ele>212.11</ele>
        <time>2011-09-25T07:46:55Z</time>
      </trkpt>
      <trkpt lat="44.36179" lon="1.12231">
        <ele>211.63</ele>
        <time>2011-09-25T07:47:02Z</time>
      </trkpt>
      <trkpt lat="44.36176" lon="1.12231">
        <ele>212.11</ele>
        <time>2011-09-25T07:47:03Z</time>
      </trkpt>
      <trkpt lat="44.36174" lon="1.1223">
        <ele>211.63</ele>
        <time>2011-09-25T07:47:04Z</time>
      </trkpt>
      <trkpt lat="44.3617" lon="1.1223">
        <ele>212.11</ele>
        <time>2011-09-25T07:47:05Z</time>
      </trkpt>
      <trkpt lat="44.36167" lon="1.12229">
        <ele>211.63</ele>
        <time>2011-09-25T07:47:06Z</time>
      </trkpt>
      <trkpt lat="44.36134" lon="1.12218">
        <ele>212.59</ele>
        <time>2011-09-25T07:47:16Z</time>
      </trkpt>
      <trkpt lat="44.36086" lon="1.12224">
        <ele>212.59</ele>
        <time>2011-09-25T07:47:27Z</time>
      </trkpt>
      <trkpt lat="44.36044" lon="1.12257">
        <ele>214.03</ele>
        <time>2011-09-25T07:47:39Z</time>
      </trkpt>
      <trkpt lat="44.3601" lon="1.12292">
        <ele>215.95</ele>
        <time>2011-09-25T07:47:50Z</time>
      </trkpt>
      <trkpt lat="44.35997" lon="1.12316">
        <ele>217.88</ele>
        <time>2011-09-25T07:47:59Z</time>
      </trkpt>
      <trkpt lat="44.35992" lon="1.12331">
        <ele>220.28</ele>
        <time>2011-09-25T07:48:07Z</time>
      </trkpt>
      <trkpt lat="44.3599" lon="1.12337">
        <ele>220.76</ele>
        <time>2011-09-25T07:48:11Z</time>
      </trkpt>
      <trkpt lat="44.35989" lon="1.12344">
        <ele>221.24</ele>
        <time>2011-09-25T07:48:16Z</time>
      </trkpt>
      <trkpt lat="44.35977" lon="1.12364">
        <ele>222.68</ele>
        <time>2011-09-25T07:48:29Z</time>
      </trkpt>
      <trkpt lat="44.35972" lon="1.12367">
        <ele>222.68</ele>
        <time>2011-09-25T07:48:42Z</time>
      </trkpt>
      <trkpt lat="44.35959" lon="1.12378">
        <ele>223.16</ele>
        <time>2011-09-25T07:48:59Z</time>
      </trkpt>
      <trkpt lat="44.35946" lon="1.12387">
        <ele>224.12</ele>
        <time>2011-09-25T07:49:11Z</time>
      </trkpt>
      <trkpt lat="44.35939" lon="1.12393">
        <ele>226.05</ele>
        <time>2011-09-25T07:49:23Z</time>
      </trkpt>
      <trkpt lat="44.35939" lon="1.12393">
        <ele>224.61</ele>
        <time>2011-09-25T07:49:30Z</time>
      </trkpt>
      <trkpt lat="44.35922" lon="1.12397">
        <ele>221.24</ele>
        <time>2011-09-25T07:49:36Z</time>
      </trkpt>
      <trkpt lat="44.35918" lon="1.12397">
        <ele>220.28</ele>
        <time>2011-09-25T07:49:37Z</time>
      </trkpt>
      <trkpt lat="44.35914" lon="1.12392">
        <ele>218.84</ele>
        <time>2011-09-25T07:49:39Z</time>
      </trkpt>
      <trkpt lat="44.35905" lon="1.12375">
        <ele>215.95</ele>
        <time>2011-09-25T07:49:42Z</time>
      </trkpt>
      <trkpt lat="44.35901" lon="1.1237">
        <ele>214.51</ele>
        <time>2011-09-25T07:49:44Z</time>
      </trkpt>
      <trkpt lat="44.35888" lon="1.12375">
        <ele>215.95</ele>
        <time>2011-09-25T07:49:50Z</time>
      </trkpt>
      <trkpt lat="44.3588" lon="1.12381">
        <ele>217.4</ele>
        <time>2011-09-25T07:49:53Z</time>
      </trkpt>
      <trkpt lat="44.35873" lon="1.12388">
        <ele>217.4</ele>
        <time>2011-09-25T07:49:56Z</time>
      </trkpt>
      <trkpt lat="44.3584" lon="1.1241">
        <ele>216.91</ele>
        <time>2011-09-25T07:50:07Z</time>
      </trkpt>
      <trkpt lat="44.35826" lon="1.12423">
        <ele>214.51</ele>
        <time>2011-09-25T07:50:12Z</time>
      </trkpt>
      <trkpt lat="44.35822" lon="1.12426">
        <ele>213.55</ele>
        <time>2011-09-25T07:50:13Z</time>
      </trkpt>
      <trkpt lat="44.35811" lon="1.1243">
        <ele>213.07</ele>
        <time>2011-09-25T07:50:18Z</time>
      </trkpt>
      <trkpt lat="44.358" lon="1.12434">
        <ele>211.15</ele>
        <time>2011-09-25T07:50:21Z</time>
      </trkpt>
      <trkpt lat="44.35785" lon="1.12442">
        <ele>209.7</ele>
        <time>2011-09-25T07:50:25Z</time>
      </trkpt>
      <trkpt lat="44.35778" lon="1.12449">
        <ele>209.7</ele>
        <time>2011-09-25T07:50:27Z</time>
      </trkpt>
      <trkpt lat="44.35775" lon="1.12454">
        <ele>209.7</ele>
        <time>2011-09-25T07:50:28Z</time>
      </trkpt>
      <trkpt lat="44.35771" lon="1.12458">
        <ele>209.7</ele>
        <time>2011-09-25T07:50:29Z</time>
      </trkpt>
      <trkpt lat="44.35768" lon="1.12462">
        <ele>209.7</ele>
        <time>2011-09-25T07:50:30Z</time>
      </trkpt>
      <trkpt lat="44.35766" lon="1.12466">
        <ele>210.19</ele>
        <time>2011-09-25T07:50:31Z</time>
      </trkpt>
      <trkpt lat="44.35763" lon="1.12469">
        <ele>210.19</ele>
        <time>2011-09-25T07:50:32Z</time>
      </trkpt>
      <trkpt lat="44.35761" lon="1.12472">
        <ele>210.19</ele>
        <time>2011-09-25T07:50:33Z</time>
      </trkpt>
      <trkpt lat="44.35754" lon="1.12478">
        <ele>211.15</ele>
        <time>2011-09-25T07:50:36Z</time>
      </trkpt>
      <trkpt lat="44.35752" lon="1.12478">
        <ele>210.67</ele>
        <time>2011-09-25T07:50:37Z</time>
      </trkpt>
      <trkpt lat="44.3575" lon="1.12479">
        <ele>211.15</ele>
        <time>2011-09-25T07:50:38Z</time>
      </trkpt>
      <trkpt lat="44.35748" lon="1.1248">
        <ele>211.63</ele>
        <time>2011-09-25T07:50:39Z</time>
      </trkpt>
      <trkpt lat="44.35745" lon="1.12481">
        <ele>211.63</ele>
        <time>2011-09-25T07:50:40Z</time>
      </trkpt>
      <trkpt lat="44.35727" lon="1.1248">
        <ele>208.26</ele>
        <time>2011-09-25T07:50:49Z</time>
      </trkpt>
      <trkpt lat="44.3572" lon="1.12478">
        <ele>207.3</ele>
        <time>2011-09-25T07:50:51Z</time>
      </trkpt>
      <trkpt lat="44.35703" lon="1.12474">
        <ele>204.42</ele>
        <time>2011-09-25T07:50:56Z</time>
      </trkpt>
      <trkpt lat="44.35683" lon="1.12475">
        <ele>201.53</ele>
        <time>2011-09-25T07:51:00Z</time>
      </trkpt>
      <trkpt lat="44.35674" lon="1.12476">
        <ele>201.05</ele>
        <time>2011-09-25T07:51:02Z</time>
      </trkpt>
      <trkpt lat="44.35671" lon="1.12477">
        <ele>201.53</ele>
        <time>2011-09-25T07:51:03Z</time>
      </trkpt>
      <trkpt lat="44.35666" lon="1.12479">
        <ele>201.53</ele>
        <time>2011-09-25T07:51:05Z</time>
      </trkpt>
      <trkpt lat="44.35662" lon="1.12477">
        <ele>201.05</ele>
        <time>2011-09-25T07:51:06Z</time>
      </trkpt>
      <trkpt lat="44.35654" lon="1.12474">
        <ele>199.13</ele>
        <time>2011-09-25T07:51:08Z</time>
      </trkpt>
      <trkpt lat="44.35652" lon="1.12475">
        <ele>198.17</ele>
        <time>2011-09-25T07:51:09Z</time>
      </trkpt>
      <trkpt lat="44.35651" lon="1.12477">
        <ele>198.65</ele>
        <time>2011-09-25T07:51:10Z</time>
      </trkpt>
      <trkpt lat="44.35648" lon="1.12476">
        <ele>199.13</ele>
        <time>2011-09-25T07:51:11Z</time>
      </trkpt>
      <trkpt lat="44.35645" lon="1.12477">
        <ele>199.61</ele>
        <time>2011-09-25T07:51:12Z</time>
      </trkpt>
      <trkpt lat="44.35642" lon="1.12478">
        <ele>199.61</ele>
        <time>2011-09-25T07:51:13Z</time>
      </trkpt>
      <trkpt lat="44.35638" lon="1.12479">
        <ele>199.61</ele>
        <time>2011-09-25T07:51:14Z</time>
      </trkpt>
      <trkpt lat="44.35598" lon="1.12492">
        <ele>199.13</ele>
        <time>2011-09-25T07:51:25Z</time>
      </trkpt>
      <trkpt lat="44.35549" lon="1.12509">
        <ele>199.13</ele>
        <time>2011-09-25T07:51:33Z</time>
      </trkpt>
      <trkpt lat="44.35543" lon="1.12509">
        <ele>199.13</ele>
        <time>2011-09-25T07:51:34Z</time>
      </trkpt>
      <trkpt lat="44.35523" lon="1.1251">
        <ele>196.25</ele>
        <time>2011-09-25T07:51:37Z</time>
      </trkpt>
      <trkpt lat="44.35516" lon="1.12512">
        <ele>196.25</ele>
        <time>2011-09-25T07:51:38Z</time>
      </trkpt>
      <trkpt lat="44.3551" lon="1.12515">
        <ele>196.25</ele>
        <time>2011-09-25T07:51:39Z</time>
      </trkpt>
      <trkpt lat="44.35461" lon="1.12557">
        <ele>195.28</ele>
        <time>2011-09-25T07:51:47Z</time>
      </trkpt>
      <trkpt lat="44.35457" lon="1.12564">
        <ele>194.32</ele>
        <time>2011-09-25T07:51:48Z</time>
      </trkpt>
      <trkpt lat="44.35452" lon="1.12572">
        <ele>194.8</ele>
        <time>2011-09-25T07:51:49Z</time>
      </trkpt>
      <trkpt lat="44.35441" lon="1.12595">
        <ele>197.69</ele>
        <time>2011-09-25T07:51:52Z</time>
      </trkpt>
      <trkpt lat="44.3543" lon="1.12617">
        <ele>199.61</ele>
        <time>2011-09-25T07:51:56Z</time>
      </trkpt>
      <trkpt lat="44.35427" lon="1.12621">
        <ele>200.09</ele>
        <time>2011-09-25T07:51:57Z</time>
      </trkpt>
      <trkpt lat="44.35423" lon="1.12626">
        <ele>200.09</ele>
        <time>2011-09-25T07:51:58Z</time>
      </trkpt>
      <trkpt lat="44.3542" lon="1.1263">
        <ele>200.57</ele>
        <time>2011-09-25T07:51:59Z</time>
      </trkpt>
      <trkpt lat="44.35416" lon="1.12634">
        <ele>200.57</ele>
        <time>2011-09-25T07:52:00Z</time>
      </trkpt>
      <trkpt lat="44.35413" lon="1.12638">
        <ele>200.57</ele>
        <time>2011-09-25T07:52:01Z</time>
      </trkpt>
      <trkpt lat="44.35409" lon="1.12643">
        <ele>201.05</ele>
        <time>2011-09-25T07:52:02Z</time>
      </trkpt>
      <trkpt lat="44.35404" lon="1.12647">
        <ele>201.53</ele>
        <time>2011-09-25T07:52:03Z</time>
      </trkpt>
      <trkpt lat="44.35399" lon="1.12652">
        <ele>201.05</ele>
        <time>2011-09-25T07:52:04Z</time>
      </trkpt>
      <trkpt lat="44.35394" lon="1.12656">
        <ele>201.05</ele>
        <time>2011-09-25T07:52:05Z</time>
      </trkpt>
      <trkpt lat="44.35389" lon="1.12661">
        <ele>199.61</ele>
        <time>2011-09-25T07:52:06Z</time>
      </trkpt>
      <trkpt lat="44.35383" lon="1.12667">
        <ele>199.13</ele>
        <time>2011-09-25T07:52:07Z</time>
      </trkpt>
      <trkpt lat="44.35378" lon="1.12671">
        <ele>198.65</ele>
        <time>2011-09-25T07:52:08Z</time>
      </trkpt>
      <trkpt lat="44.35372" lon="1.12674">
        <ele>197.69</ele>
        <time>2011-09-25T07:52:09Z</time>
      </trkpt>
      <trkpt lat="44.35355" lon="1.12663">
        <ele>194.32</ele>
        <time>2011-09-25T07:52:12Z</time>
      </trkpt>
      <trkpt lat="44.35338" lon="1.12652">
        <ele>191.92</ele>
        <time>2011-09-25T07:52:18Z</time>
      </trkpt>
      <trkpt lat="44.35332" lon="1.12656">
        <ele>191.92</ele>
        <time>2011-09-25T07:52:21Z</time>
      </trkpt>
      <trkpt lat="44.3533" lon="1.12673">
        <ele>190.96</ele>
        <time>2011-09-25T07:52:26Z</time>
      </trkpt>
      <trkpt lat="44.3533" lon="1.12678">
        <ele>190.96</ele>
        <time>2011-09-25T07:52:27Z</time>
      </trkpt>
      <trkpt lat="44.35331" lon="1.12683">
        <ele>191.44</ele>
        <time>2011-09-25T07:52:28Z</time>
      </trkpt>
      <trkpt lat="44.35332" lon="1.12688">
        <ele>190.96</ele>
        <time>2011-09-25T07:52:29Z</time>
      </trkpt>
      <trkpt lat="44.35334" lon="1.12691">
        <ele>191.44</ele>
        <time>2011-09-25T07:52:30Z</time>
      </trkpt>
      <trkpt lat="44.35336" lon="1.12695">
        <ele>191.44</ele>
        <time>2011-09-25T07:52:31Z</time>
      </trkpt>
      <trkpt lat="44.35337" lon="1.127">
        <ele>190.48</ele>
        <time>2011-09-25T07:52:32Z</time>
      </trkpt>
      <trkpt lat="44.35337" lon="1.12707">
        <ele>189.52</ele>
        <time>2011-09-25T07:52:33Z</time>
      </trkpt>
      <trkpt lat="44.35337" lon="1.12713">
        <ele>189.04</ele>
        <time>2011-09-25T07:52:34Z</time>
      </trkpt>
      <trkpt lat="44.35337" lon="1.1272">
        <ele>188.08</ele>
        <time>2011-09-25T07:52:35Z</time>
      </trkpt>
      <trkpt lat="44.35338" lon="1.12728">
        <ele>187.11</ele>
        <time>2011-09-25T07:52:36Z</time>
      </trkpt>
      <trkpt lat="44.35338" lon="1.12736">
        <ele>187.59</ele>
        <time>2011-09-25T07:52:37Z</time>
      </trkpt>
      <trkpt lat="44.35339" lon="1.12743">
        <ele>186.63</ele>
        <time>2011-09-25T07:52:38Z</time>
      </trkpt>
      <trkpt lat="44.3534" lon="1.12749">
        <ele>186.15</ele>
        <time>2011-09-25T07:52:39Z</time>
      </trkpt>
      <trkpt lat="44.35339" lon="1.12754">
        <ele>186.15</ele>
        <time>2011-09-25T07:52:40Z</time>
      </trkpt>
      <trkpt lat="44.3533" lon="1.12759">
        <ele>185.19</ele>
        <time>2011-09-25T07:52:43Z</time>
      </trkpt>
      <trkpt lat="44.35326" lon="1.12756">
        <ele>184.23</ele>
        <time>2011-09-25T07:52:44Z</time>
      </trkpt>
      <trkpt lat="44.35323" lon="1.12753">
        <ele>184.23</ele>
        <time>2011-09-25T07:52:45Z</time>
      </trkpt>
      <trkpt lat="44.35321" lon="1.12752">
        <ele>183.75</ele>
        <time>2011-09-25T07:52:46Z</time>
      </trkpt>
      <trkpt lat="44.35316" lon="1.12763">
        <ele>181.83</ele>
        <time>2011-09-25T07:52:49Z</time>
      </trkpt>
      <trkpt lat="44.35314" lon="1.1277">
        <ele>180.87</ele>
        <time>2011-09-25T07:52:50Z</time>
      </trkpt>
      <trkpt lat="44.35311" lon="1.12777">
        <ele>180.38</ele>
        <time>2011-09-25T07:52:51Z</time>
      </trkpt>
      <trkpt lat="44.35295" lon="1.12818">
        <ele>177.02</ele>
        <time>2011-09-25T07:52:56Z</time>
      </trkpt>
      <trkpt lat="44.35278" lon="1.12866">
        <ele>172.69</ele>
        <time>2011-09-25T07:53:01Z</time>
      </trkpt>
      <trkpt lat="44.35271" lon="1.12888">
        <ele>171.25</ele>
        <time>2011-09-25T07:53:03Z</time>
      </trkpt>
      <trkpt lat="44.35264" lon="1.12917">
        <ele>170.77</ele>
        <time>2011-09-25T07:53:06Z</time>
      </trkpt>
      <trkpt lat="44.35267" lon="1.12944">
        <ele>170.77</ele>
        <time>2011-09-25T07:53:10Z</time>
      </trkpt>
      <trkpt lat="44.35274" lon="1.12961">
        <ele>171.73</ele>
        <time>2011-09-25T07:53:13Z</time>
      </trkpt>
      <trkpt lat="44.3528" lon="1.12977">
        <ele>171.25</ele>
        <time>2011-09-25T07:53:16Z</time>
      </trkpt>
      <trkpt lat="44.35285" lon="1.12998">
        <ele>171.73</ele>
        <time>2011-09-25T07:53:20Z</time>
      </trkpt>
      <trkpt lat="44.35278" lon="1.13011">
        <ele>172.69</ele>
        <time>2011-09-25T07:53:27Z</time>
      </trkpt>
      <trkpt lat="44.35276" lon="1.13006">
        <ele>172.21</ele>
        <time>2011-09-25T07:53:29Z</time>
      </trkpt>
      <trkpt lat="44.35257" lon="1.1294">
        <ele>172.21</ele>
        <time>2011-09-25T07:53:43Z</time>
      </trkpt>
      <trkpt lat="44.35242" lon="1.12914">
        <ele>172.21</ele>
        <time>2011-09-25T07:53:52Z</time>
      </trkpt>
      <trkpt lat="44.35219" lon="1.12865">
        <ele>172.69</ele>
        <time>2011-09-25T07:54:05Z</time>
      </trkpt>
      <trkpt lat="44.35204" lon="1.12841">
        <ele>173.17</ele>
        <time>2011-09-25T07:54:15Z</time>
      </trkpt>
      <trkpt lat="44.35183" lon="1.12853">
        <ele>174.14</ele>
        <time>2011-09-25T07:54:24Z</time>
      </trkpt>
      <trkpt lat="44.35172" lon="1.12862">
        <ele>175.1</ele>
        <time>2011-09-25T07:54:30Z</time>
      </trkpt>
      <trkpt lat="44.35169" lon="1.12892">
        <ele>177.98</ele>
        <time>2011-09-25T07:54:42Z</time>
      </trkpt>
      <trkpt lat="44.35169" lon="1.12909">
        <ele>180.38</ele>
        <time>2011-09-25T07:54:52Z</time>
      </trkpt>
      <trkpt lat="44.3517" lon="1.12944">
        <ele>183.27</ele>
        <time>2011-09-25T07:55:06Z</time>
      </trkpt>
      <trkpt lat="44.3517" lon="1.12952">
        <ele>184.71</ele>
        <time>2011-09-25T07:55:09Z</time>
      </trkpt>
      <trkpt lat="44.35161" lon="1.12966">
        <ele>186.15</ele>
        <time>2011-09-25T07:55:20Z</time>
      </trkpt>
      <trkpt lat="44.35154" lon="1.1297">
        <ele>187.11</ele>
        <time>2011-09-25T07:55:26Z</time>
      </trkpt>
      <trkpt lat="44.35152" lon="1.12974">
        <ele>187.59</ele>
        <time>2011-09-25T07:55:29Z</time>
      </trkpt>
      <trkpt lat="44.35153" lon="1.12977">
        <ele>188.08</ele>
        <time>2011-09-25T07:55:31Z</time>
      </trkpt>
      <trkpt lat="44.3515" lon="1.12995">
        <ele>189.52</ele>
        <time>2011-09-25T07:55:43Z</time>
      </trkpt>
      <trkpt lat="44.35149" lon="1.13002">
        <ele>190</ele>
        <time>2011-09-25T07:55:47Z</time>
      </trkpt>
      <trkpt lat="44.3515" lon="1.13018">
        <ele>191.92</ele>
        <time>2011-09-25T07:55:55Z</time>
      </trkpt>
      <trkpt lat="44.35149" lon="1.1303">
        <ele>192.88</ele>
        <time>2011-09-25T07:56:01Z</time>
      </trkpt>
      <trkpt lat="44.3515" lon="1.13041">
        <ele>193.84</ele>
        <time>2011-09-25T07:56:06Z</time>
      </trkpt>
      <trkpt lat="44.35152" lon="1.13054">
        <ele>194.32</ele>
        <time>2011-09-25T07:56:12Z</time>
      </trkpt>
      <trkpt lat="44.35151" lon="1.13058">
        <ele>194.32</ele>
        <time>2011-09-25T07:56:14Z</time>
      </trkpt>
      <trkpt lat="44.35156" lon="1.1307">
        <ele>194.8</ele>
        <time>2011-09-25T07:56:21Z</time>
      </trkpt>
      <trkpt lat="44.35156" lon="1.13077">
        <ele>195.28</ele>
        <time>2011-09-25T07:56:26Z</time>
      </trkpt>
      <trkpt lat="44.35151" lon="1.13079">
        <ele>196.25</ele>
        <time>2011-09-25T07:56:30Z</time>
      </trkpt>
      <trkpt lat="44.35143" lon="1.13076">
        <ele>198.65</ele>
        <time>2011-09-25T07:56:39Z</time>
      </trkpt>
      <trkpt lat="44.35138" lon="1.13071">
        <ele>199.61</ele>
        <time>2011-09-25T07:56:44Z</time>
      </trkpt>
      <trkpt lat="44.3513" lon="1.13061">
        <ele>201.53</ele>
        <time>2011-09-25T07:56:53Z</time>
      </trkpt>
      <trkpt lat="44.35117" lon="1.13038">
        <ele>204.42</ele>
        <time>2011-09-25T07:57:07Z</time>
      </trkpt>
      <trkpt lat="44.35112" lon="1.1303">
        <ele>205.38</ele>
        <time>2011-09-25T07:57:12Z</time>
      </trkpt>
      <trkpt lat="44.35105" lon="1.13022">
        <ele>205.86</ele>
        <time>2011-09-25T07:57:18Z</time>
      </trkpt>
      <trkpt lat="44.35091" lon="1.1301">
        <ele>207.3</ele>
        <time>2011-09-25T07:57:30Z</time>
      </trkpt>
      <trkpt lat="44.35082" lon="1.13005">
        <ele>208.74</ele>
        <time>2011-09-25T07:57:37Z</time>
      </trkpt>
      <trkpt lat="44.35061" lon="1.13005">
        <ele>210.19</ele>
        <time>2011-09-25T07:57:50Z</time>
      </trkpt>
      <trkpt lat="44.35059" lon="1.13008">
        <ele>211.15</ele>
        <time>2011-09-25T07:57:53Z</time>
      </trkpt>
      <trkpt lat="44.35065" lon="1.13013">
        <ele>212.11</ele>
        <time>2011-09-25T07:57:59Z</time>
      </trkpt>
      <trkpt lat="44.35072" lon="1.1302">
        <ele>213.55</ele>
        <time>2011-09-25T07:58:13Z</time>
      </trkpt>
      <trkpt lat="44.35072" lon="1.1302">
        <ele>214.03</ele>
        <time>2011-09-25T07:58:18Z</time>
      </trkpt>
      <trkpt lat="44.35082" lon="1.13037">
        <ele>216.43</ele>
        <time>2011-09-25T07:58:32Z</time>
      </trkpt>
      <trkpt lat="44.35084" lon="1.13039">
        <ele>216.43</ele>
        <time>2011-09-25T07:58:34Z</time>
      </trkpt>
      <trkpt lat="44.35086" lon="1.13044">
        <ele>217.4</ele>
        <time>2011-09-25T07:58:37Z</time>
      </trkpt>
      <trkpt lat="44.35087" lon="1.13046">
        <ele>217.4</ele>
        <time>2011-09-25T07:58:39Z</time>
      </trkpt>
      <trkpt lat="44.35091" lon="1.13059">
        <ele>219.32</ele>
        <time>2011-09-25T07:58:47Z</time>
      </trkpt>
      <trkpt lat="44.35087" lon="1.13069">
        <ele>219.32</ele>
        <time>2011-09-25T07:58:55Z</time>
      </trkpt>
      <trkpt lat="44.35073" lon="1.13079">
        <ele>221.72</ele>
        <time>2011-09-25T07:59:10Z</time>
      </trkpt>
      <trkpt lat="44.3507" lon="1.13079">
        <ele>221.72</ele>
        <time>2011-09-25T07:59:12Z</time>
      </trkpt>
      <trkpt lat="44.35061" lon="1.13085">
        <ele>223.16</ele>
        <time>2011-09-25T07:59:21Z</time>
      </trkpt>
      <trkpt lat="44.35046" lon="1.13096">
        <ele>225.57</ele>
        <time>2011-09-25T07:59:35Z</time>
      </trkpt>
      <trkpt lat="44.35041" lon="1.13103">
        <ele>226.53</ele>
        <time>2011-09-25T07:59:41Z</time>
      </trkpt>
      <trkpt lat="44.35026" lon="1.13112">
        <ele>228.45</ele>
        <time>2011-09-25T07:59:55Z</time>
      </trkpt>
      <trkpt lat="44.35009" lon="1.13112">
        <ele>229.89</ele>
        <time>2011-09-25T08:00:07Z</time>
      </trkpt>
      <trkpt lat="44.35003" lon="1.13113">
        <ele>230.37</ele>
        <time>2011-09-25T08:00:11Z</time>
      </trkpt>
      <trkpt lat="44.34998" lon="1.13115">
        <ele>230.85</ele>
        <time>2011-09-25T08:00:14Z</time>
      </trkpt>
      <trkpt lat="44.34974" lon="1.13128">
        <ele>232.3</ele>
        <time>2011-09-25T08:00:28Z</time>
      </trkpt>
      <trkpt lat="44.34964" lon="1.13127">
        <ele>233.26</ele>
        <time>2011-09-25T08:00:35Z</time>
      </trkpt>
      <trkpt lat="44.3496" lon="1.13137">
        <ele>233.26</ele>
        <time>2011-09-25T08:00:40Z</time>
      </trkpt>
      <trkpt lat="44.34957" lon="1.13161">
        <ele>232.78</ele>
        <time>2011-09-25T08:00:47Z</time>
      </trkpt>
      <trkpt lat="44.34926" lon="1.13169">
        <ele>235.18</ele>
        <time>2011-09-25T08:01:04Z</time>
      </trkpt>
      <trkpt lat="44.34903" lon="1.13173">
        <ele>237.58</ele>
        <time>2011-09-25T08:01:17Z</time>
      </trkpt>
      <trkpt lat="44.34892" lon="1.13174">
        <ele>239.02</ele>
        <time>2011-09-25T08:01:24Z</time>
      </trkpt>
      <trkpt lat="44.34885" lon="1.13174">
        <ele>239.51</ele>
        <time>2011-09-25T08:01:28Z</time>
      </trkpt>
      <trkpt lat="44.3488" lon="1.13175">
        <ele>240.95</ele>
        <time>2011-09-25T08:01:33Z</time>
      </trkpt>
      <trkpt lat="44.34863" lon="1.1318">
        <ele>244.31</ele>
        <time>2011-09-25T08:01:47Z</time>
      </trkpt>
      <trkpt lat="44.34861" lon="1.1318">
        <ele>243.83</ele>
        <time>2011-09-25T08:01:48Z</time>
      </trkpt>
      <trkpt lat="44.3485" lon="1.13181">
        <ele>246.23</ele>
        <time>2011-09-25T08:01:59Z</time>
      </trkpt>
      <trkpt lat="44.34843" lon="1.13183">
        <ele>246.72</ele>
        <time>2011-09-25T08:02:04Z</time>
      </trkpt>
      <trkpt lat="44.34827" lon="1.13186">
        <ele>247.2</ele>
        <time>2011-09-25T08:02:16Z</time>
      </trkpt>
      <trkpt lat="44.34824" lon="1.13184">
        <ele>247.2</ele>
        <time>2011-09-25T08:02:18Z</time>
      </trkpt>
      <trkpt lat="44.34823" lon="1.13183">
        <ele>246.72</ele>
        <time>2011-09-25T08:02:31Z</time>
      </trkpt>
      <trkpt lat="44.34821" lon="1.13185">
        <ele>246.72</ele>
        <time>2011-09-25T08:02:58Z</time>
      </trkpt>
      <trkpt lat="44.34821" lon="1.13192">
        <ele>247.2</ele>
        <time>2011-09-25T08:03:02Z</time>
      </trkpt>
      <trkpt lat="44.34826" lon="1.13234">
        <ele>246.72</ele>
        <time>2011-09-25T08:03:14Z</time>
      </trkpt>
      <trkpt lat="44.34823" lon="1.13292">
        <ele>245.27</ele>
        <time>2011-09-25T08:03:26Z</time>
      </trkpt>
      <trkpt lat="44.34816" lon="1.13335">
        <ele>244.31</ele>
        <time>2011-09-25T08:03:33Z</time>
      </trkpt>
      <trkpt lat="44.34811" lon="1.13361">
        <ele>243.83</ele>
        <time>2011-09-25T08:03:37Z</time>
      </trkpt>
      <trkpt lat="44.34811" lon="1.13368">
        <ele>243.83</ele>
        <time>2011-09-25T08:03:38Z</time>
      </trkpt>
      <trkpt lat="44.34811" lon="1.13375">
        <ele>244.31</ele>
        <time>2011-09-25T08:03:39Z</time>
      </trkpt>
      <trkpt lat="44.34811" lon="1.13382">
        <ele>243.83</ele>
        <time>2011-09-25T08:03:40Z</time>
      </trkpt>
      <trkpt lat="44.34812" lon="1.13388">
        <ele>244.31</ele>
        <time>2011-09-25T08:03:41Z</time>
      </trkpt>
      <trkpt lat="44.34813" lon="1.13395">
        <ele>243.83</ele>
        <time>2011-09-25T08:03:42Z</time>
      </trkpt>
      <trkpt lat="44.34814" lon="1.13401">
        <ele>243.83</ele>
        <time>2011-09-25T08:03:43Z</time>
      </trkpt>
      <trkpt lat="44.34817" lon="1.13414">
        <ele>244.31</ele>
        <time>2011-09-25T08:03:45Z</time>
      </trkpt>
      <trkpt lat="44.34818" lon="1.1342">
        <ele>243.83</ele>
        <time>2011-09-25T08:03:46Z</time>
      </trkpt>
      <trkpt lat="44.34821" lon="1.13426">
        <ele>243.83</ele>
        <time>2011-09-25T08:03:47Z</time>
      </trkpt>
      <trkpt lat="44.34829" lon="1.1345">
        <ele>243.83</ele>
        <time>2011-09-25T08:03:51Z</time>
      </trkpt>
      <trkpt lat="44.34831" lon="1.13456">
        <ele>243.83</ele>
        <time>2011-09-25T08:03:52Z</time>
      </trkpt>
      <trkpt lat="44.34835" lon="1.13469">
        <ele>243.83</ele>
        <time>2011-09-25T08:03:54Z</time>
      </trkpt>
      <trkpt lat="44.34836" lon="1.13475">
        <ele>243.83</ele>
        <time>2011-09-25T08:03:55Z</time>
      </trkpt>
      <trkpt lat="44.34836" lon="1.13495">
        <ele>243.35</ele>
        <time>2011-09-25T08:03:58Z</time>
      </trkpt>
      <trkpt lat="44.34834" lon="1.13517">
        <ele>242.39</ele>
        <time>2011-09-25T08:04:01Z</time>
      </trkpt>
      <trkpt lat="44.34834" lon="1.13538">
        <ele>242.39</ele>
        <time>2011-09-25T08:04:04Z</time>
      </trkpt>
      <trkpt lat="44.34834" lon="1.13589">
        <ele>242.39</ele>
        <time>2011-09-25T08:04:11Z</time>
      </trkpt>
      <trkpt lat="44.34834" lon="1.13596">
        <ele>242.39</ele>
        <time>2011-09-25T08:04:12Z</time>
      </trkpt>
      <trkpt lat="44.34836" lon="1.13608">
        <ele>243.35</ele>
        <time>2011-09-25T08:04:14Z</time>
      </trkpt>
      <trkpt lat="44.34828" lon="1.13675">
        <ele>243.35</ele>
        <time>2011-09-25T08:04:25Z</time>
      </trkpt>
      <trkpt lat="44.34827" lon="1.13681">
        <ele>243.35</ele>
        <time>2011-09-25T08:04:26Z</time>
      </trkpt>
      <trkpt lat="44.34817" lon="1.13715">
        <ele>243.35</ele>
        <time>2011-09-25T08:04:32Z</time>
      </trkpt>
      <trkpt lat="44.34812" lon="1.13725">
        <ele>242.87</ele>
        <time>2011-09-25T08:04:34Z</time>
      </trkpt>
      <trkpt lat="44.34809" lon="1.1373">
        <ele>243.35</ele>
        <time>2011-09-25T08:04:35Z</time>
      </trkpt>
      <trkpt lat="44.34805" lon="1.13739">
        <ele>243.35</ele>
        <time>2011-09-25T08:04:37Z</time>
      </trkpt>
      <trkpt lat="44.34787" lon="1.13816">
        <ele>243.35</ele>
        <time>2011-09-25T08:04:51Z</time>
      </trkpt>
      <trkpt lat="44.3478" lon="1.13885">
        <ele>246.72</ele>
        <time>2011-09-25T08:05:06Z</time>
      </trkpt>
      <trkpt lat="44.34786" lon="1.1395">
        <ele>247.2</ele>
        <time>2011-09-25T08:05:22Z</time>
      </trkpt>
      <trkpt lat="44.34807" lon="1.14025">
        <ele>248.64</ele>
        <time>2011-09-25T08:05:40Z</time>
      </trkpt>
      <trkpt lat="44.34822" lon="1.14043">
        <ele>249.6</ele>
        <time>2011-09-25T08:05:47Z</time>
      </trkpt>
      <trkpt lat="44.34824" lon="1.14042">
        <ele>249.6</ele>
        <time>2011-09-25T08:05:48Z</time>
      </trkpt>
      <trkpt lat="44.34827" lon="1.1404">
        <ele>250.08</ele>
        <time>2011-09-25T08:05:49Z</time>
      </trkpt>
      <trkpt lat="44.34829" lon="1.14038">
        <ele>249.6</ele>
        <time>2011-09-25T08:05:50Z</time>
      </trkpt>
      <trkpt lat="44.34832" lon="1.14036">
        <ele>249.12</ele>
        <time>2011-09-25T08:05:51Z</time>
      </trkpt>
      <trkpt lat="44.34885" lon="1.13992">
        <ele>246.23</ele>
        <time>2011-09-25T08:06:04Z</time>
      </trkpt>
      <trkpt lat="44.34891" lon="1.13989">
        <ele>245.75</ele>
        <time>2011-09-25T08:06:05Z</time>
      </trkpt>
      <trkpt lat="44.34898" lon="1.13986">
        <ele>245.27</ele>
        <time>2011-09-25T08:06:06Z</time>
      </trkpt>
      <trkpt lat="44.34919" lon="1.13979">
        <ele>243.83</ele>
        <time>2011-09-25T08:06:09Z</time>
      </trkpt>
      <trkpt lat="44.34972" lon="1.13967">
        <ele>241.43</ele>
        <time>2011-09-25T08:06:16Z</time>
      </trkpt>
      <trkpt lat="44.34979" lon="1.13961">
        <ele>240.95</ele>
        <time>2011-09-25T08:06:17Z</time>
      </trkpt>
      <trkpt lat="44.34985" lon="1.13955">
        <ele>240.95</ele>
        <time>2011-09-25T08:06:18Z</time>
      </trkpt>
      <trkpt lat="44.35019" lon="1.13911">
        <ele>239.02</ele>
        <time>2011-09-25T08:06:24Z</time>
      </trkpt>
      <trkpt lat="44.35025" lon="1.13907">
        <ele>239.02</ele>
        <time>2011-09-25T08:06:25Z</time>
      </trkpt>
      <trkpt lat="44.35032" lon="1.13905">
        <ele>239.51</ele>
        <time>2011-09-25T08:06:26Z</time>
      </trkpt>
      <trkpt lat="44.35037" lon="1.13907">
        <ele>239.51</ele>
        <time>2011-09-25T08:06:27Z</time>
      </trkpt>
      <trkpt lat="44.35042" lon="1.13911">
        <ele>239.02</ele>
        <time>2011-09-25T08:06:28Z</time>
      </trkpt>
      <trkpt lat="44.35045" lon="1.13917">
        <ele>239.02</ele>
        <time>2011-09-25T08:06:29Z</time>
      </trkpt>
      <trkpt lat="44.35048" lon="1.13924">
        <ele>239.02</ele>
        <time>2011-09-25T08:06:30Z</time>
      </trkpt>
      <trkpt lat="44.3505" lon="1.1393">
        <ele>239.02</ele>
        <time>2011-09-25T08:06:31Z</time>
      </trkpt>
      <trkpt lat="44.35053" lon="1.13936">
        <ele>239.51</ele>
        <time>2011-09-25T08:06:32Z</time>
      </trkpt>
      <trkpt lat="44.35057" lon="1.13947">
        <ele>240.47</ele>
        <time>2011-09-25T08:06:34Z</time>
      </trkpt>
      <trkpt lat="44.35058" lon="1.13952">
        <ele>240.95</ele>
        <time>2011-09-25T08:06:35Z</time>
      </trkpt>
      <trkpt lat="44.3506" lon="1.13956">
        <ele>240.95</ele>
        <time>2011-09-25T08:06:36Z</time>
      </trkpt>
      <trkpt lat="44.35099" lon="1.14021">
        <ele>243.35</ele>
        <time>2011-09-25T08:06:51Z</time>
      </trkpt>
      <trkpt lat="44.35102" lon="1.14025">
        <ele>243.35</ele>
        <time>2011-09-25T08:06:52Z</time>
      </trkpt>
      <trkpt lat="44.35109" lon="1.14039">
        <ele>243.83</ele>
        <time>2011-09-25T08:06:55Z</time>
      </trkpt>
      <trkpt lat="44.3511" lon="1.14045">
        <ele>244.31</ele>
        <time>2011-09-25T08:06:56Z</time>
      </trkpt>
      <trkpt lat="44.35109" lon="1.1405">
        <ele>244.31</ele>
        <time>2011-09-25T08:06:57Z</time>
      </trkpt>
      <trkpt lat="44.35107" lon="1.14055">
        <ele>243.83</ele>
        <time>2011-09-25T08:06:58Z</time>
      </trkpt>
      <trkpt lat="44.35105" lon="1.14059">
        <ele>243.83</ele>
        <time>2011-09-25T08:06:59Z</time>
      </trkpt>
      <trkpt lat="44.35103" lon="1.14064">
        <ele>244.31</ele>
        <time>2011-09-25T08:07:00Z</time>
      </trkpt>
      <trkpt lat="44.35103" lon="1.1407">
        <ele>244.31</ele>
        <time>2011-09-25T08:07:01Z</time>
      </trkpt>
      <trkpt lat="44.35104" lon="1.14076">
        <ele>244.31</ele>
        <time>2011-09-25T08:07:02Z</time>
      </trkpt>
      <trkpt lat="44.35107" lon="1.14081">
        <ele>243.35</ele>
        <time>2011-09-25T08:07:03Z</time>
      </trkpt>
      <trkpt lat="44.3511" lon="1.14085">
        <ele>243.83</ele>
        <time>2011-09-25T08:07:04Z</time>
      </trkpt>
      <trkpt lat="44.35113" lon="1.14091">
        <ele>243.35</ele>
        <time>2011-09-25T08:07:05Z</time>
      </trkpt>
      <trkpt lat="44.3512" lon="1.14103">
        <ele>242.87</ele>
        <time>2011-09-25T08:07:07Z</time>
      </trkpt>
      <trkpt lat="44.35129" lon="1.14137">
        <ele>240.47</ele>
        <time>2011-09-25T08:07:11Z</time>
      </trkpt>
      <trkpt lat="44.35132" lon="1.14156">
        <ele>239.51</ele>
        <time>2011-09-25T08:07:13Z</time>
      </trkpt>
      <trkpt lat="44.35136" lon="1.14187">
        <ele>239.02</ele>
        <time>2011-09-25T08:07:16Z</time>
      </trkpt>
      <trkpt lat="44.35137" lon="1.14198">
        <ele>238.54</ele>
        <time>2011-09-25T08:07:17Z</time>
      </trkpt>
      <trkpt lat="44.35136" lon="1.14208">
        <ele>238.06</ele>
        <time>2011-09-25T08:07:18Z</time>
      </trkpt>
      <trkpt lat="44.35138" lon="1.14266">
        <ele>236.62</ele>
        <time>2011-09-25T08:07:24Z</time>
      </trkpt>
      <trkpt lat="44.35142" lon="1.14283">
        <ele>235.18</ele>
        <time>2011-09-25T08:07:26Z</time>
      </trkpt>
      <trkpt lat="44.35159" lon="1.14316">
        <ele>232.3</ele>
        <time>2011-09-25T08:07:31Z</time>
      </trkpt>
      <trkpt lat="44.35162" lon="1.14319">
        <ele>231.33</ele>
        <time>2011-09-25T08:07:32Z</time>
      </trkpt>
      <trkpt lat="44.35166" lon="1.14322">
        <ele>230.37</ele>
        <time>2011-09-25T08:07:33Z</time>
      </trkpt>
      <trkpt lat="44.3518" lon="1.14332">
        <ele>229.41</ele>
        <time>2011-09-25T08:07:37Z</time>
      </trkpt>
      <trkpt lat="44.35188" lon="1.1433">
        <ele>228.93</ele>
        <time>2011-09-25T08:07:40Z</time>
      </trkpt>
      <trkpt lat="44.35203" lon="1.1432">
        <ele>228.45</ele>
        <time>2011-09-25T08:07:44Z</time>
      </trkpt>
      <trkpt lat="44.35209" lon="1.14318">
        <ele>227.97</ele>
        <time>2011-09-25T08:07:45Z</time>
      </trkpt>
      <trkpt lat="44.35214" lon="1.14314">
        <ele>227.49</ele>
        <time>2011-09-25T08:07:46Z</time>
      </trkpt>
      <trkpt lat="44.35219" lon="1.1431">
        <ele>227.49</ele>
        <time>2011-09-25T08:07:47Z</time>
      </trkpt>
      <trkpt lat="44.35224" lon="1.14306">
        <ele>227.97</ele>
        <time>2011-09-25T08:07:48Z</time>
      </trkpt>
      <trkpt lat="44.35228" lon="1.14303">
        <ele>227.01</ele>
        <time>2011-09-25T08:07:49Z</time>
      </trkpt>
      <trkpt lat="44.35232" lon="1.14302">
        <ele>227.49</ele>
        <time>2011-09-25T08:07:50Z</time>
      </trkpt>
      <trkpt lat="44.35236" lon="1.14302">
        <ele>227.01</ele>
        <time>2011-09-25T08:07:51Z</time>
      </trkpt>
      <trkpt lat="44.35241" lon="1.14302">
        <ele>226.53</ele>
        <time>2011-09-25T08:07:52Z</time>
      </trkpt>
      <trkpt lat="44.35246" lon="1.14301">
        <ele>226.05</ele>
        <time>2011-09-25T08:07:53Z</time>
      </trkpt>
      <trkpt lat="44.35251" lon="1.14298">
        <ele>225.57</ele>
        <time>2011-09-25T08:07:54Z</time>
      </trkpt>
      <trkpt lat="44.35263" lon="1.14292">
        <ele>225.09</ele>
        <time>2011-09-25T08:07:56Z</time>
      </trkpt>
      <trkpt lat="44.35268" lon="1.14289">
        <ele>225.09</ele>
        <time>2011-09-25T08:07:57Z</time>
      </trkpt>
      <trkpt lat="44.35277" lon="1.14283">
        <ele>226.05</ele>
        <time>2011-09-25T08:07:59Z</time>
      </trkpt>
      <trkpt lat="44.35282" lon="1.14282">
        <ele>225.57</ele>
        <time>2011-09-25T08:08:00Z</time>
      </trkpt>
      <trkpt lat="44.35288" lon="1.14283">
        <ele>225.57</ele>
        <time>2011-09-25T08:08:01Z</time>
      </trkpt>
      <trkpt lat="44.35309" lon="1.14286">
        <ele>224.12</ele>
        <time>2011-09-25T08:08:06Z</time>
      </trkpt>
      <trkpt lat="44.35313" lon="1.14287">
        <ele>223.16</ele>
        <time>2011-09-25T08:08:07Z</time>
      </trkpt>
      <trkpt lat="44.3533" lon="1.14294">
        <ele>218.84</ele>
        <time>2011-09-25T08:08:11Z</time>
      </trkpt>
      <trkpt lat="44.35335" lon="1.14294">
        <ele>217.88</ele>
        <time>2011-09-25T08:08:12Z</time>
      </trkpt>
      <trkpt lat="44.35352" lon="1.14295">
        <ele>214.51</ele>
        <time>2011-09-25T08:08:15Z</time>
      </trkpt>
      <trkpt lat="44.35361" lon="1.14295">
        <ele>212.59</ele>
        <time>2011-09-25T08:08:17Z</time>
      </trkpt>
      <trkpt lat="44.35381" lon="1.1429">
        <ele>208.74</ele>
        <time>2011-09-25T08:08:21Z</time>
      </trkpt>
      <trkpt lat="44.35387" lon="1.14289">
        <ele>207.78</ele>
        <time>2011-09-25T08:08:22Z</time>
      </trkpt>
      <trkpt lat="44.35396" lon="1.14287">
        <ele>205.86</ele>
        <time>2011-09-25T08:08:24Z</time>
      </trkpt>
      <trkpt lat="44.35405" lon="1.14289">
        <ele>204.42</ele>
        <time>2011-09-25T08:08:26Z</time>
      </trkpt>
      <trkpt lat="44.35409" lon="1.14289">
        <ele>203.94</ele>
        <time>2011-09-25T08:08:27Z</time>
      </trkpt>
      <trkpt lat="44.35412" lon="1.14288">
        <ele>203.46</ele>
        <time>2011-09-25T08:08:28Z</time>
      </trkpt>
      <trkpt lat="44.35413" lon="1.14288">
        <ele>202.98</ele>
        <time>2011-09-25T08:08:29Z</time>
      </trkpt>
      <trkpt lat="44.35415" lon="1.14288">
        <ele>202.49</ele>
        <time>2011-09-25T08:08:30Z</time>
      </trkpt>
      <trkpt lat="44.35417" lon="1.14289">
        <ele>202.01</ele>
        <time>2011-09-25T08:08:31Z</time>
      </trkpt>
      <trkpt lat="44.3542" lon="1.14289">
        <ele>201.53</ele>
        <time>2011-09-25T08:08:32Z</time>
      </trkpt>
      <trkpt lat="44.35422" lon="1.1429">
        <ele>201.53</ele>
        <time>2011-09-25T08:08:33Z</time>
      </trkpt>
      <trkpt lat="44.35425" lon="1.1429">
        <ele>200.57</ele>
        <time>2011-09-25T08:08:34Z</time>
      </trkpt>
      <trkpt lat="44.35428" lon="1.14289">
        <ele>200.09</ele>
        <time>2011-09-25T08:08:35Z</time>
      </trkpt>
      <trkpt lat="44.35431" lon="1.14288">
        <ele>199.61</ele>
        <time>2011-09-25T08:08:36Z</time>
      </trkpt>
      <trkpt lat="44.35434" lon="1.14289">
        <ele>199.61</ele>
        <time>2011-09-25T08:08:37Z</time>
      </trkpt>
      <trkpt lat="44.35439" lon="1.14289">
        <ele>198.17</ele>
        <time>2011-09-25T08:08:38Z</time>
      </trkpt>
      <trkpt lat="44.35442" lon="1.14286">
        <ele>197.69</ele>
        <time>2011-09-25T08:08:39Z</time>
      </trkpt>
      <trkpt lat="44.35444" lon="1.14282">
        <ele>198.17</ele>
        <time>2011-09-25T08:08:40Z</time>
      </trkpt>
      <trkpt lat="44.35447" lon="1.14276">
        <ele>196.73</ele>
        <time>2011-09-25T08:08:41Z</time>
      </trkpt>
      <trkpt lat="44.35458" lon="1.14251">
        <ele>195.28</ele>
        <time>2011-09-25T08:08:46Z</time>
      </trkpt>
      <trkpt lat="44.35462" lon="1.14248">
        <ele>194.8</ele>
        <time>2011-09-25T08:08:47Z</time>
      </trkpt>
      <trkpt lat="44.35467" lon="1.14249">
        <ele>193.36</ele>
        <time>2011-09-25T08:08:48Z</time>
      </trkpt>
      <trkpt lat="44.35472" lon="1.14253">
        <ele>192.88</ele>
        <time>2011-09-25T08:08:49Z</time>
      </trkpt>
      <trkpt lat="44.35476" lon="1.1426">
        <ele>192.4</ele>
        <time>2011-09-25T08:08:50Z</time>
      </trkpt>
      <trkpt lat="44.35479" lon="1.14269">
        <ele>191.92</ele>
        <time>2011-09-25T08:08:51Z</time>
      </trkpt>
      <trkpt lat="44.35482" lon="1.14278">
        <ele>190.96</ele>
        <time>2011-09-25T08:08:52Z</time>
      </trkpt>
      <trkpt lat="44.35484" lon="1.14288">
        <ele>190.96</ele>
        <time>2011-09-25T08:08:53Z</time>
      </trkpt>
      <trkpt lat="44.35497" lon="1.14331">
        <ele>186.15</ele>
        <time>2011-09-25T08:08:57Z</time>
      </trkpt>
      <trkpt lat="44.35501" lon="1.14342">
        <ele>188.56</ele>
        <time>2011-09-25T08:08:58Z</time>
      </trkpt>
      <trkpt lat="44.35505" lon="1.14352">
        <ele>187.59</ele>
        <time>2011-09-25T08:08:59Z</time>
      </trkpt>
      <trkpt lat="44.3551" lon="1.1436">
        <ele>187.11</ele>
        <time>2011-09-25T08:09:00Z</time>
      </trkpt>
      <trkpt lat="44.35516" lon="1.14366">
        <ele>186.15</ele>
        <time>2011-09-25T08:09:01Z</time>
      </trkpt>
      <trkpt lat="44.35524" lon="1.1437">
        <ele>185.67</ele>
        <time>2011-09-25T08:09:02Z</time>
      </trkpt>
      <trkpt lat="44.35531" lon="1.14373">
        <ele>185.19</ele>
        <time>2011-09-25T08:09:03Z</time>
      </trkpt>
      <trkpt lat="44.3554" lon="1.14374">
        <ele>185.19</ele>
        <time>2011-09-25T08:09:04Z</time>
      </trkpt>
      <trkpt lat="44.35548" lon="1.14374">
        <ele>184.71</ele>
        <time>2011-09-25T08:09:05Z</time>
      </trkpt>
      <trkpt lat="44.35557" lon="1.14373">
        <ele>183.75</ele>
        <time>2011-09-25T08:09:06Z</time>
      </trkpt>
      <trkpt lat="44.35566" lon="1.14371">
        <ele>183.27</ele>
        <time>2011-09-25T08:09:07Z</time>
      </trkpt>
      <trkpt lat="44.3567" lon="1.14342">
        <ele>180.38</ele>
        <time>2011-09-25T08:09:19Z</time>
      </trkpt>
      <trkpt lat="44.35678" lon="1.14343">
        <ele>180.38</ele>
        <time>2011-09-25T08:09:20Z</time>
      </trkpt>
      <trkpt lat="44.35686" lon="1.14346">
        <ele>179.9</ele>
        <time>2011-09-25T08:09:21Z</time>
      </trkpt>
      <trkpt lat="44.35693" lon="1.1435">
        <ele>178.94</ele>
        <time>2011-09-25T08:09:22Z</time>
      </trkpt>
      <trkpt lat="44.357" lon="1.14356">
        <ele>179.42</ele>
        <time>2011-09-25T08:09:23Z</time>
      </trkpt>
      <trkpt lat="44.35706" lon="1.14363">
        <ele>179.9</ele>
        <time>2011-09-25T08:09:24Z</time>
      </trkpt>
      <trkpt lat="44.35711" lon="1.1437">
        <ele>179.42</ele>
        <time>2011-09-25T08:09:25Z</time>
      </trkpt>
      <trkpt lat="44.35784" lon="1.14464">
        <ele>179.9</ele>
        <time>2011-09-25T08:09:40Z</time>
      </trkpt>
      <trkpt lat="44.35844" lon="1.14541">
        <ele>181.35</ele>
        <time>2011-09-25T08:09:55Z</time>
      </trkpt>
      <trkpt lat="44.35848" lon="1.14545">
        <ele>181.35</ele>
        <time>2011-09-25T08:09:56Z</time>
      </trkpt>
      <trkpt lat="44.35852" lon="1.14547">
        <ele>181.35</ele>
        <time>2011-09-25T08:09:57Z</time>
      </trkpt>
      <trkpt lat="44.35861" lon="1.14552">
        <ele>181.35</ele>
        <time>2011-09-25T08:09:59Z</time>
      </trkpt>
      <trkpt lat="44.35865" lon="1.14553">
        <ele>181.35</ele>
        <time>2011-09-25T08:10:00Z</time>
      </trkpt>
      <trkpt lat="44.35869" lon="1.14552">
        <ele>181.83</ele>
        <time>2011-09-25T08:10:01Z</time>
      </trkpt>
      <trkpt lat="44.35909" lon="1.14557">
        <ele>184.23</ele>
        <time>2011-09-25T08:10:15Z</time>
      </trkpt>
      <trkpt lat="44.35924" lon="1.14573">
        <ele>186.15</ele>
        <time>2011-09-25T08:10:27Z</time>
      </trkpt>
      <trkpt lat="44.35942" lon="1.14597">
        <ele>188.08</ele>
        <time>2011-09-25T08:10:41Z</time>
      </trkpt>
      <trkpt lat="44.35948" lon="1.14605">
        <ele>188.08</ele>
        <time>2011-09-25T08:10:47Z</time>
      </trkpt>
      <trkpt lat="44.35949" lon="1.14607">
        <ele>188.08</ele>
        <time>2011-09-25T08:10:48Z</time>
      </trkpt>
      <trkpt lat="44.35951" lon="1.14608">
        <ele>188.56</ele>
        <time>2011-09-25T08:10:49Z</time>
      </trkpt>
      <trkpt lat="44.35952" lon="1.14609">
        <ele>188.08</ele>
        <time>2011-09-25T08:10:50Z</time>
      </trkpt>
      <trkpt lat="44.35953" lon="1.1461">
        <ele>188.56</ele>
        <time>2011-09-25T08:10:51Z</time>
      </trkpt>
      <trkpt lat="44.35954" lon="1.14611">
        <ele>189.04</ele>
        <time>2011-09-25T08:10:52Z</time>
      </trkpt>
      <trkpt lat="44.35961" lon="1.14615">
        <ele>189.52</ele>
        <time>2011-09-25T08:10:59Z</time>
      </trkpt>
      <trkpt lat="44.35962" lon="1.14617">
        <ele>190</ele>
        <time>2011-09-25T08:11:01Z</time>
      </trkpt>
      <trkpt lat="44.35963" lon="1.14619">
        <ele>189.52</ele>
        <time>2011-09-25T08:11:02Z</time>
      </trkpt>
      <trkpt lat="44.35964" lon="1.1462">
        <ele>190</ele>
        <time>2011-09-25T08:11:03Z</time>
      </trkpt>
      <trkpt lat="44.35965" lon="1.14621">
        <ele>190</ele>
        <time>2011-09-25T08:11:04Z</time>
      </trkpt>
      <trkpt lat="44.35966" lon="1.14623">
        <ele>190.48</ele>
        <time>2011-09-25T08:11:05Z</time>
      </trkpt>
      <trkpt lat="44.35966" lon="1.14624">
        <ele>190</ele>
        <time>2011-09-25T08:11:06Z</time>
      </trkpt>
      <trkpt lat="44.35969" lon="1.14627">
        <ele>190.48</ele>
        <time>2011-09-25T08:11:09Z</time>
      </trkpt>
      <trkpt lat="44.35973" lon="1.14631">
        <ele>190.48</ele>
        <time>2011-09-25T08:11:13Z</time>
      </trkpt>
      <trkpt lat="44.35974" lon="1.14633">
        <ele>190.96</ele>
        <time>2011-09-25T08:11:14Z</time>
      </trkpt>
      <trkpt lat="44.35975" lon="1.14634">
        <ele>190.96</ele>
        <time>2011-09-25T08:11:15Z</time>
      </trkpt>
      <trkpt lat="44.35976" lon="1.14635">
        <ele>190.96</ele>
        <time>2011-09-25T08:11:16Z</time>
      </trkpt>
      <trkpt lat="44.35977" lon="1.14637">
        <ele>191.44</ele>
        <time>2011-09-25T08:11:17Z</time>
      </trkpt>
      <trkpt lat="44.35978" lon="1.14638">
        <ele>191.44</ele>
        <time>2011-09-25T08:11:18Z</time>
      </trkpt>
      <trkpt lat="44.3598" lon="1.14637">
        <ele>191.92</ele>
        <time>2011-09-25T08:11:21Z</time>
      </trkpt>
      <trkpt lat="44.3598" lon="1.14635">
        <ele>191.92</ele>
        <time>2011-09-25T08:11:22Z</time>
      </trkpt>
      <trkpt lat="44.3598" lon="1.14632">
        <ele>192.4</ele>
        <time>2011-09-25T08:11:24Z</time>
      </trkpt>
      <trkpt lat="44.35982" lon="1.14626">
        <ele>192.4</ele>
        <time>2011-09-25T08:11:29Z</time>
      </trkpt>
      <trkpt lat="44.35982" lon="1.14624">
        <ele>192.88</ele>
        <time>2011-09-25T08:11:30Z</time>
      </trkpt>
      <trkpt lat="44.35983" lon="1.14611">
        <ele>194.32</ele>
        <time>2011-09-25T08:11:43Z</time>
      </trkpt>
      <trkpt lat="44.35982" lon="1.14603">
        <ele>196.25</ele>
        <time>2011-09-25T08:11:56Z</time>
      </trkpt>
      <trkpt lat="44.35979" lon="1.14591">
        <ele>199.61</ele>
        <time>2011-09-25T08:12:09Z</time>
      </trkpt>
      <trkpt lat="44.35974" lon="1.14573">
        <ele>202.01</ele>
        <time>2011-09-25T08:12:25Z</time>
      </trkpt>
      <trkpt lat="44.35973" lon="1.14566">
        <ele>202.98</ele>
        <time>2011-09-25T08:12:39Z</time>
      </trkpt>
      <trkpt lat="44.35972" lon="1.14543">
        <ele>205.38</ele>
        <time>2011-09-25T08:12:53Z</time>
      </trkpt>
      <trkpt lat="44.35972" lon="1.1454">
        <ele>205.86</ele>
        <time>2011-09-25T08:12:54Z</time>
      </trkpt>
      <trkpt lat="44.35972" lon="1.14538">
        <ele>205.86</ele>
        <time>2011-09-25T08:12:55Z</time>
      </trkpt>
      <trkpt lat="44.35972" lon="1.14536">
        <ele>205.86</ele>
        <time>2011-09-25T08:12:56Z</time>
      </trkpt>
      <trkpt lat="44.35972" lon="1.14534">
        <ele>205.86</ele>
        <time>2011-09-25T08:12:57Z</time>
      </trkpt>
      <trkpt lat="44.35972" lon="1.14531">
        <ele>205.38</ele>
        <time>2011-09-25T08:12:58Z</time>
      </trkpt>
      <trkpt lat="44.3597" lon="1.14494">
        <ele>205.86</ele>
        <time>2011-09-25T08:13:10Z</time>
      </trkpt>
      <trkpt lat="44.35985" lon="1.14463">
        <ele>207.78</ele>
        <time>2011-09-25T08:13:24Z</time>
      </trkpt>
      <trkpt lat="44.35992" lon="1.14453">
        <ele>209.7</ele>
        <time>2011-09-25T08:13:30Z</time>
      </trkpt>
      <trkpt lat="44.36002" lon="1.14441">
        <ele>211.63</ele>
        <time>2011-09-25T08:13:41Z</time>
      </trkpt>
      <trkpt lat="44.3601" lon="1.14431">
        <ele>213.07</ele>
        <time>2011-09-25T08:13:49Z</time>
      </trkpt>
      <trkpt lat="44.36018" lon="1.14412">
        <ele>215.47</ele>
        <time>2011-09-25T08:14:01Z</time>
      </trkpt>
      <trkpt lat="44.36026" lon="1.14397">
        <ele>217.4</ele>
        <time>2011-09-25T08:14:14Z</time>
      </trkpt>
      <trkpt lat="44.36035" lon="1.14383">
        <ele>219.8</ele>
        <time>2011-09-25T08:14:25Z</time>
      </trkpt>
      <trkpt lat="44.36041" lon="1.14375">
        <ele>221.24</ele>
        <time>2011-09-25T08:14:32Z</time>
      </trkpt>
      <trkpt lat="44.36047" lon="1.14366">
        <ele>222.2</ele>
        <time>2011-09-25T08:14:38Z</time>
      </trkpt>
      <trkpt lat="44.36061" lon="1.14351">
        <ele>224.12</ele>
        <time>2011-09-25T08:14:52Z</time>
      </trkpt>
      <trkpt lat="44.36065" lon="1.14342">
        <ele>225.57</ele>
        <time>2011-09-25T08:14:59Z</time>
      </trkpt>
      <trkpt lat="44.36067" lon="1.14346">
        <ele>226.05</ele>
        <time>2011-09-25T08:15:04Z</time>
      </trkpt>
      <trkpt lat="44.36064" lon="1.14354">
        <ele>227.49</ele>
        <time>2011-09-25T08:15:09Z</time>
      </trkpt>
      <trkpt lat="44.36062" lon="1.14363">
        <ele>227.49</ele>
        <time>2011-09-25T08:15:14Z</time>
      </trkpt>
      <trkpt lat="44.36058" lon="1.14387">
        <ele>229.89</ele>
        <time>2011-09-25T08:15:28Z</time>
      </trkpt>
      <trkpt lat="44.36054" lon="1.14395">
        <ele>230.85</ele>
        <time>2011-09-25T08:15:34Z</time>
      </trkpt>
      <trkpt lat="44.36046" lon="1.14426">
        <ele>231.33</ele>
        <time>2011-09-25T08:15:48Z</time>
      </trkpt>
      <trkpt lat="44.36047" lon="1.14443">
        <ele>232.3</ele>
        <time>2011-09-25T08:15:54Z</time>
      </trkpt>
      <trkpt lat="44.36042" lon="1.14455">
        <ele>231.81</ele>
        <time>2011-09-25T08:15:58Z</time>
      </trkpt>
      <trkpt lat="44.36035" lon="1.14469">
        <ele>230.37</ele>
        <time>2011-09-25T08:16:01Z</time>
      </trkpt>
      <trkpt lat="44.36023" lon="1.14487">
        <ele>228.45</ele>
        <time>2011-09-25T08:16:04Z</time>
      </trkpt>
      <trkpt lat="44.36016" lon="1.145">
        <ele>228.45</ele>
        <time>2011-09-25T08:16:06Z</time>
      </trkpt>
      <trkpt lat="44.36014" lon="1.14508">
        <ele>228.45</ele>
        <time>2011-09-25T08:16:07Z</time>
      </trkpt>
      <trkpt lat="44.36013" lon="1.14515">
        <ele>228.45</ele>
        <time>2011-09-25T08:16:08Z</time>
      </trkpt>
      <trkpt lat="44.36013" lon="1.14521">
        <ele>228.93</ele>
        <time>2011-09-25T08:16:09Z</time>
      </trkpt>
      <trkpt lat="44.36015" lon="1.14527">
        <ele>229.41</ele>
        <time>2011-09-25T08:16:10Z</time>
      </trkpt>
      <trkpt lat="44.36015" lon="1.14531">
        <ele>229.89</ele>
        <time>2011-09-25T08:16:11Z</time>
      </trkpt>
      <trkpt lat="44.36024" lon="1.14553">
        <ele>231.81</ele>
        <time>2011-09-25T08:16:19Z</time>
      </trkpt>
      <trkpt lat="44.36026" lon="1.14554">
        <ele>231.81</ele>
        <time>2011-09-25T08:16:20Z</time>
      </trkpt>
      <trkpt lat="44.36028" lon="1.14556">
        <ele>231.81</ele>
        <time>2011-09-25T08:16:21Z</time>
      </trkpt>
      <trkpt lat="44.36045" lon="1.14566">
        <ele>231.33</ele>
        <time>2011-09-25T08:16:28Z</time>
      </trkpt>
      <trkpt lat="44.36047" lon="1.14565">
        <ele>231.81</ele>
        <time>2011-09-25T08:16:29Z</time>
      </trkpt>
      <trkpt lat="44.3605" lon="1.14564">
        <ele>231.33</ele>
        <time>2011-09-25T08:16:30Z</time>
      </trkpt>
      <trkpt lat="44.36052" lon="1.14561">
        <ele>231.81</ele>
        <time>2011-09-25T08:16:31Z</time>
      </trkpt>
      <trkpt lat="44.36054" lon="1.14559">
        <ele>231.81</ele>
        <time>2011-09-25T08:16:32Z</time>
      </trkpt>
      <trkpt lat="44.36056" lon="1.14556">
        <ele>231.81</ele>
        <time>2011-09-25T08:16:33Z</time>
      </trkpt>
      <trkpt lat="44.36085" lon="1.14515">
        <ele>233.74</ele>
        <time>2011-09-25T08:16:48Z</time>
      </trkpt>
      <trkpt lat="44.3611" lon="1.14475">
        <ele>235.66</ele>
        <time>2011-09-25T08:17:01Z</time>
      </trkpt>
      <trkpt lat="44.36135" lon="1.1443">
        <ele>237.1</ele>
        <time>2011-09-25T08:17:15Z</time>
      </trkpt>
      <trkpt lat="44.36169" lon="1.14384">
        <ele>239.51</ele>
        <time>2011-09-25T08:17:31Z</time>
      </trkpt>
      <trkpt lat="44.3621" lon="1.14348">
        <ele>241.91</ele>
        <time>2011-09-25T08:17:48Z</time>
      </trkpt>
      <trkpt lat="44.36243" lon="1.14328">
        <ele>242.39</ele>
        <time>2011-09-25T08:18:01Z</time>
      </trkpt>
      <trkpt lat="44.36286" lon="1.143">
        <ele>243.83</ele>
        <time>2011-09-25T08:18:17Z</time>
      </trkpt>
      <trkpt lat="44.36332" lon="1.14264">
        <ele>245.27</ele>
        <time>2011-09-25T08:18:34Z</time>
      </trkpt>
      <trkpt lat="44.36375" lon="1.14221">
        <ele>248.64</ele>
        <time>2011-09-25T08:18:52Z</time>
      </trkpt>
      <trkpt lat="44.36415" lon="1.14178">
        <ele>252</ele>
        <time>2011-09-25T08:19:11Z</time>
      </trkpt>
      <trkpt lat="44.36451" lon="1.14141">
        <ele>252</ele>
        <time>2011-09-25T08:19:26Z</time>
      </trkpt>
      <trkpt lat="44.36508" lon="1.14088">
        <ele>251.52</ele>
        <time>2011-09-25T08:19:42Z</time>
      </trkpt>
      <trkpt lat="44.36561" lon="1.14054">
        <ele>250.56</ele>
        <time>2011-09-25T08:19:57Z</time>
      </trkpt>
      <trkpt lat="44.36607" lon="1.14027">
        <ele>252.48</ele>
        <time>2011-09-25T08:20:10Z</time>
      </trkpt>
      <trkpt lat="44.3666" lon="1.13991">
        <ele>253.44</ele>
        <time>2011-09-25T08:20:25Z</time>
      </trkpt>
      <trkpt lat="44.36699" lon="1.13934">
        <ele>254.41</ele>
        <time>2011-09-25T08:20:40Z</time>
      </trkpt>
      <trkpt lat="44.36731" lon="1.13883">
        <ele>256.33</ele>
        <time>2011-09-25T08:20:54Z</time>
      </trkpt>
      <trkpt lat="44.36781" lon="1.13822">
        <ele>257.29</ele>
        <time>2011-09-25T08:21:12Z</time>
      </trkpt>
      <trkpt lat="44.36807" lon="1.13775">
        <ele>259.21</ele>
        <time>2011-09-25T08:21:25Z</time>
      </trkpt>
      <trkpt lat="44.36834" lon="1.13728">
        <ele>260.65</ele>
        <time>2011-09-25T08:21:39Z</time>
      </trkpt>
      <trkpt lat="44.36848" lon="1.13697">
        <ele>263.54</ele>
        <time>2011-09-25T08:21:53Z</time>
      </trkpt>
      <trkpt lat="44.3685" lon="1.13694">
        <ele>264.02</ele>
        <time>2011-09-25T08:21:55Z</time>
      </trkpt>
      <trkpt lat="44.3685" lon="1.13692">
        <ele>264.5</ele>
        <time>2011-09-25T08:21:56Z</time>
      </trkpt>
      <trkpt lat="44.36851" lon="1.1369">
        <ele>264.5</ele>
        <time>2011-09-25T08:21:57Z</time>
      </trkpt>
      <trkpt lat="44.36853" lon="1.13686">
        <ele>265.46</ele>
        <time>2011-09-25T08:22:00Z</time>
      </trkpt>
      <trkpt lat="44.36854" lon="1.13684">
        <ele>265.46</ele>
        <time>2011-09-25T08:22:01Z</time>
      </trkpt>
      <trkpt lat="44.36855" lon="1.13682">
        <ele>265.46</ele>
        <time>2011-09-25T08:22:02Z</time>
      </trkpt>
      <trkpt lat="44.36858" lon="1.13675">
        <ele>266.42</ele>
        <time>2011-09-25T08:22:06Z</time>
      </trkpt>
      <trkpt lat="44.36874" lon="1.13649">
        <ele>267.38</ele>
        <time>2011-09-25T08:22:20Z</time>
      </trkpt>
      <trkpt lat="44.36894" lon="1.13616">
        <ele>268.35</ele>
        <time>2011-09-25T08:22:34Z</time>
      </trkpt>
      <trkpt lat="44.36908" lon="1.13578">
        <ele>269.31</ele>
        <time>2011-09-25T08:22:46Z</time>
      </trkpt>
      <trkpt lat="44.36939" lon="1.13551">
        <ele>270.27</ele>
        <time>2011-09-25T08:22:59Z</time>
      </trkpt>
      <trkpt lat="44.36982" lon="1.13511">
        <ele>270.75</ele>
        <time>2011-09-25T08:23:14Z</time>
      </trkpt>
      <trkpt lat="44.37024" lon="1.13472">
        <ele>272.67</ele>
        <time>2011-09-25T08:23:29Z</time>
      </trkpt>
      <trkpt lat="44.3706" lon="1.13427">
        <ele>273.15</ele>
        <time>2011-09-25T08:23:44Z</time>
      </trkpt>
      <trkpt lat="44.37091" lon="1.13375">
        <ele>273.15</ele>
        <time>2011-09-25T08:23:58Z</time>
      </trkpt>
      <trkpt lat="44.371" lon="1.13363">
        <ele>273.15</ele>
        <time>2011-09-25T08:24:01Z</time>
      </trkpt>
      <trkpt lat="44.37103" lon="1.13359">
        <ele>273.15</ele>
        <time>2011-09-25T08:24:02Z</time>
      </trkpt>
      <trkpt lat="44.37107" lon="1.13357">
        <ele>272.67</ele>
        <time>2011-09-25T08:24:03Z</time>
      </trkpt>
      <trkpt lat="44.37111" lon="1.13354">
        <ele>272.67</ele>
        <time>2011-09-25T08:24:04Z</time>
      </trkpt>
      <trkpt lat="44.37115" lon="1.13353">
        <ele>272.19</ele>
        <time>2011-09-25T08:24:05Z</time>
      </trkpt>
      <trkpt lat="44.37119" lon="1.1335">
        <ele>272.19</ele>
        <time>2011-09-25T08:24:06Z</time>
      </trkpt>
      <trkpt lat="44.37123" lon="1.13347">
        <ele>272.19</ele>
        <time>2011-09-25T08:24:07Z</time>
      </trkpt>
      <trkpt lat="44.37126" lon="1.13342">
        <ele>272.19</ele>
        <time>2011-09-25T08:24:08Z</time>
      </trkpt>
      <trkpt lat="44.37129" lon="1.13338">
        <ele>272.19</ele>
        <time>2011-09-25T08:24:09Z</time>
      </trkpt>
      <trkpt lat="44.37131" lon="1.13333">
        <ele>272.19</ele>
        <time>2011-09-25T08:24:10Z</time>
      </trkpt>
      <trkpt lat="44.37133" lon="1.13328">
        <ele>273.15</ele>
        <time>2011-09-25T08:24:11Z</time>
      </trkpt>
      <trkpt lat="44.37135" lon="1.13323">
        <ele>272.67</ele>
        <time>2011-09-25T08:24:12Z</time>
      </trkpt>
      <trkpt lat="44.37137" lon="1.13317">
        <ele>272.67</ele>
        <time>2011-09-25T08:24:13Z</time>
      </trkpt>
      <trkpt lat="44.37138" lon="1.13311">
        <ele>273.15</ele>
        <time>2011-09-25T08:24:14Z</time>
      </trkpt>
      <trkpt lat="44.37139" lon="1.13306">
        <ele>273.15</ele>
        <time>2011-09-25T08:24:15Z</time>
      </trkpt>
      <trkpt lat="44.37141" lon="1.133">
        <ele>273.15</ele>
        <time>2011-09-25T08:24:16Z</time>
      </trkpt>
      <trkpt lat="44.37156" lon="1.13243">
        <ele>271.23</ele>
        <time>2011-09-25T08:24:24Z</time>
      </trkpt>
      <trkpt lat="44.37191" lon="1.13161">
        <ele>270.75</ele>
        <time>2011-09-25T08:24:35Z</time>
      </trkpt>
      <trkpt lat="44.37194" lon="1.13154">
        <ele>270.27</ele>
        <time>2011-09-25T08:24:36Z</time>
      </trkpt>
      <trkpt lat="44.37216" lon="1.1309">
        <ele>271.23</ele>
        <time>2011-09-25T08:24:45Z</time>
      </trkpt>
      <trkpt lat="44.37217" lon="1.13083">
        <ele>271.23</ele>
        <time>2011-09-25T08:24:46Z</time>
      </trkpt>
      <trkpt lat="44.37219" lon="1.13077">
        <ele>271.23</ele>
        <time>2011-09-25T08:24:47Z</time>
      </trkpt>
      <trkpt lat="44.37222" lon="1.1307">
        <ele>271.71</ele>
        <time>2011-09-25T08:24:48Z</time>
      </trkpt>
      <trkpt lat="44.37223" lon="1.13064">
        <ele>272.19</ele>
        <time>2011-09-25T08:24:49Z</time>
      </trkpt>
      <trkpt lat="44.37259" lon="1.12964">
        <ele>272.67</ele>
        <time>2011-09-25T08:25:05Z</time>
      </trkpt>
      <trkpt lat="44.37261" lon="1.12956">
        <ele>272.19</ele>
        <time>2011-09-25T08:25:06Z</time>
      </trkpt>
      <trkpt lat="44.37262" lon="1.12949">
        <ele>271.71</ele>
        <time>2011-09-25T08:25:07Z</time>
      </trkpt>
      <trkpt lat="44.37265" lon="1.12941">
        <ele>271.71</ele>
        <time>2011-09-25T08:25:08Z</time>
      </trkpt>
      <trkpt lat="44.37291" lon="1.12837">
        <ele>268.83</ele>
        <time>2011-09-25T08:25:21Z</time>
      </trkpt>
      <trkpt lat="44.37296" lon="1.12792">
        <ele>266.9</ele>
        <time>2011-09-25T08:25:26Z</time>
      </trkpt>
      <trkpt lat="44.373" lon="1.1275">
        <ele>264.98</ele>
        <time>2011-09-25T08:25:30Z</time>
      </trkpt>
      <trkpt lat="44.37305" lon="1.12682">
        <ele>261.62</ele>
        <time>2011-09-25T08:25:36Z</time>
      </trkpt>
      <trkpt lat="44.37304" lon="1.12659">
        <ele>261.14</ele>
        <time>2011-09-25T08:25:38Z</time>
      </trkpt>
      <trkpt lat="44.37303" lon="1.12649">
        <ele>261.14</ele>
        <time>2011-09-25T08:25:39Z</time>
      </trkpt>
      <trkpt lat="44.37301" lon="1.12638">
        <ele>261.14</ele>
        <time>2011-09-25T08:25:40Z</time>
      </trkpt>
      <trkpt lat="44.37299" lon="1.12628">
        <ele>261.14</ele>
        <time>2011-09-25T08:25:41Z</time>
      </trkpt>
      <trkpt lat="44.37296" lon="1.12619">
        <ele>261.14</ele>
        <time>2011-09-25T08:25:42Z</time>
      </trkpt>
      <trkpt lat="44.37291" lon="1.126">
        <ele>260.65</ele>
        <time>2011-09-25T08:25:44Z</time>
      </trkpt>
      <trkpt lat="44.37289" lon="1.12591">
        <ele>261.62</ele>
        <time>2011-09-25T08:25:45Z</time>
      </trkpt>
      <trkpt lat="44.37277" lon="1.12549">
        <ele>262.1</ele>
        <time>2011-09-25T08:25:50Z</time>
      </trkpt>
      <trkpt lat="44.37276" lon="1.12541">
        <ele>262.1</ele>
        <time>2011-09-25T08:25:51Z</time>
      </trkpt>
      <trkpt lat="44.37273" lon="1.12511">
        <ele>263.54</ele>
        <time>2011-09-25T08:25:55Z</time>
      </trkpt>
      <trkpt lat="44.3727" lon="1.12416">
        <ele>264.98</ele>
        <time>2011-09-25T08:26:09Z</time>
      </trkpt>
      <trkpt lat="44.3727" lon="1.12402">
        <ele>264.98</ele>
        <time>2011-09-25T08:26:11Z</time>
      </trkpt>
      <trkpt lat="44.37269" lon="1.12395">
        <ele>264.5</ele>
        <time>2011-09-25T08:26:12Z</time>
      </trkpt>
      <trkpt lat="44.3726" lon="1.12302">
        <ele>264.5</ele>
        <time>2011-09-25T08:26:26Z</time>
      </trkpt>
      <trkpt lat="44.37248" lon="1.12209">
        <ele>264.98</ele>
        <time>2011-09-25T08:26:40Z</time>
      </trkpt>
      <trkpt lat="44.37246" lon="1.12157">
        <ele>261.14</ele>
        <time>2011-09-25T08:26:46Z</time>
      </trkpt>
      <trkpt lat="44.37246" lon="1.12147">
        <ele>261.14</ele>
        <time>2011-09-25T08:26:47Z</time>
      </trkpt>
      <trkpt lat="44.37245" lon="1.12128">
        <ele>260.65</ele>
        <time>2011-09-25T08:26:49Z</time>
      </trkpt>
      <trkpt lat="44.37243" lon="1.12118">
        <ele>260.65</ele>
        <time>2011-09-25T08:26:50Z</time>
      </trkpt>
      <trkpt lat="44.37231" lon="1.12076">
        <ele>260.65</ele>
        <time>2011-09-25T08:26:55Z</time>
      </trkpt>
      <trkpt lat="44.37208" lon="1.11999">
        <ele>257.77</ele>
        <time>2011-09-25T08:27:04Z</time>
      </trkpt>
      <trkpt lat="44.37173" lon="1.11889">
        <ele>257.29</ele>
        <time>2011-09-25T08:27:16Z</time>
      </trkpt>
      <trkpt lat="44.37169" lon="1.11871">
        <ele>256.81</ele>
        <time>2011-09-25T08:27:18Z</time>
      </trkpt>
      <trkpt lat="44.37153" lon="1.11791">
        <ele>257.29</ele>
        <time>2011-09-25T08:27:27Z</time>
      </trkpt>
      <trkpt lat="44.3714" lon="1.11745">
        <ele>260.65</ele>
        <time>2011-09-25T08:27:35Z</time>
      </trkpt>
      <trkpt lat="44.37131" lon="1.11707">
        <ele>263.54</ele>
        <time>2011-09-25T08:27:45Z</time>
      </trkpt>
      <trkpt lat="44.37109" lon="1.11681">
        <ele>263.06</ele>
        <time>2011-09-25T08:27:55Z</time>
      </trkpt>
      <trkpt lat="44.37066" lon="1.11668">
        <ele>262.58</ele>
        <time>2011-09-25T08:28:08Z</time>
      </trkpt>
      <trkpt lat="44.37008" lon="1.11685">
        <ele>264.5</ele>
        <time>2011-09-25T08:28:26Z</time>
      </trkpt>
      <trkpt lat="44.36985" lon="1.11673">
        <ele>265.46</ele>
        <time>2011-09-25T08:28:36Z</time>
      </trkpt>
      <trkpt lat="44.36973" lon="1.11643">
        <ele>266.9</ele>
        <time>2011-09-25T08:28:46Z</time>
      </trkpt>
      <trkpt lat="44.36972" lon="1.11637">
        <ele>267.38</ele>
        <time>2011-09-25T08:28:48Z</time>
      </trkpt>
      <trkpt lat="44.36978" lon="1.11595">
        <ele>268.83</ele>
        <time>2011-09-25T08:29:00Z</time>
      </trkpt>
      <trkpt lat="44.36979" lon="1.11587">
        <ele>268.83</ele>
        <time>2011-09-25T08:29:02Z</time>
      </trkpt>
      <trkpt lat="44.36988" lon="1.11549">
        <ele>270.75</ele>
        <time>2011-09-25T08:29:13Z</time>
      </trkpt>
      <trkpt lat="44.36994" lon="1.11527">
        <ele>270.27</ele>
        <time>2011-09-25T08:29:19Z</time>
      </trkpt>
      <trkpt lat="44.37004" lon="1.11479">
        <ele>270.75</ele>
        <time>2011-09-25T08:29:30Z</time>
      </trkpt>
      <trkpt lat="44.3701" lon="1.11438">
        <ele>270.27</ele>
        <time>2011-09-25T08:29:39Z</time>
      </trkpt>
      <trkpt lat="44.37014" lon="1.11377">
        <ele>271.23</ele>
        <time>2011-09-25T08:29:51Z</time>
      </trkpt>
      <trkpt lat="44.37016" lon="1.11315">
        <ele>271.71</ele>
        <time>2011-09-25T08:30:03Z</time>
      </trkpt>
      <trkpt lat="44.37018" lon="1.11282">
        <ele>271.23</ele>
        <time>2011-09-25T08:30:09Z</time>
      </trkpt>
      <trkpt lat="44.37019" lon="1.1127">
        <ele>271.23</ele>
        <time>2011-09-25T08:30:11Z</time>
      </trkpt>
      <trkpt lat="44.37022" lon="1.11246">
        <ele>271.23</ele>
        <time>2011-09-25T08:30:15Z</time>
      </trkpt>
      <trkpt lat="44.37026" lon="1.11217">
        <ele>271.23</ele>
        <time>2011-09-25T08:30:20Z</time>
      </trkpt>
      <trkpt lat="44.37026" lon="1.11167">
        <ele>270.27</ele>
        <time>2011-09-25T08:30:27Z</time>
      </trkpt>
      <trkpt lat="44.37026" lon="1.1113">
        <ele>269.79</ele>
        <time>2011-09-25T08:30:32Z</time>
      </trkpt>
      <trkpt lat="44.37033" lon="1.11088">
        <ele>270.27</ele>
        <time>2011-09-25T08:30:38Z</time>
      </trkpt>
      <trkpt lat="44.37036" lon="1.11051">
        <ele>270.27</ele>
        <time>2011-09-25T08:30:43Z</time>
      </trkpt>
      <trkpt lat="44.37028" lon="1.10971">
        <ele>268.83</ele>
        <time>2011-09-25T08:30:53Z</time>
      </trkpt>
      <trkpt lat="44.37027" lon="1.10962">
        <ele>268.83</ele>
        <time>2011-09-25T08:30:54Z</time>
      </trkpt>
      <trkpt lat="44.37025" lon="1.10927">
        <ele>268.35</ele>
        <time>2011-09-25T08:30:58Z</time>
      </trkpt>
      <trkpt lat="44.37022" lon="1.10901">
        <ele>268.83</ele>
        <time>2011-09-25T08:31:01Z</time>
      </trkpt>
      <trkpt lat="44.37018" lon="1.1085">
        <ele>267.38</ele>
        <time>2011-09-25T08:31:07Z</time>
      </trkpt>
      <trkpt lat="44.37018" lon="1.10747">
        <ele>266.42</ele>
        <time>2011-09-25T08:31:19Z</time>
      </trkpt>
      <trkpt lat="44.37018" lon="1.10741">
        <ele>266.42</ele>
        <time>2011-09-25T08:31:20Z</time>
      </trkpt>
      <trkpt lat="44.37023" lon="1.10719">
        <ele>266.9</ele>
        <time>2011-09-25T08:31:24Z</time>
      </trkpt>
      <trkpt lat="44.37013" lon="1.10651">
        <ele>268.35</ele>
        <time>2011-09-25T08:31:36Z</time>
      </trkpt>
      <trkpt lat="44.37008" lon="1.10628">
        <ele>269.79</ele>
        <time>2011-09-25T08:31:41Z</time>
      </trkpt>
      <trkpt lat="44.36998" lon="1.10574">
        <ele>269.31</ele>
        <time>2011-09-25T08:31:54Z</time>
      </trkpt>
      <trkpt lat="44.36996" lon="1.10568">
        <ele>269.31</ele>
        <time>2011-09-25T08:31:55Z</time>
      </trkpt>
      <trkpt lat="44.36994" lon="1.10563">
        <ele>268.83</ele>
        <time>2011-09-25T08:31:56Z</time>
      </trkpt>
      <trkpt lat="44.36992" lon="1.10558">
        <ele>268.83</ele>
        <time>2011-09-25T08:31:57Z</time>
      </trkpt>
      <trkpt lat="44.36988" lon="1.10553">
        <ele>268.83</ele>
        <time>2011-09-25T08:31:58Z</time>
      </trkpt>
      <trkpt lat="44.36985" lon="1.10548">
        <ele>268.83</ele>
        <time>2011-09-25T08:31:59Z</time>
      </trkpt>
      <trkpt lat="44.36982" lon="1.10544">
        <ele>268.35</ele>
        <time>2011-09-25T08:32:00Z</time>
      </trkpt>
      <trkpt lat="44.36978" lon="1.1054">
        <ele>268.35</ele>
        <time>2011-09-25T08:32:01Z</time>
      </trkpt>
      <trkpt lat="44.36959" lon="1.1052">
        <ele>267.86</ele>
        <time>2011-09-25T08:32:06Z</time>
      </trkpt>
      <trkpt lat="44.36927" lon="1.10472">
        <ele>268.83</ele>
        <time>2011-09-25T08:32:18Z</time>
      </trkpt>
      <trkpt lat="44.36909" lon="1.10425">
        <ele>270.27</ele>
        <time>2011-09-25T08:32:30Z</time>
      </trkpt>
      <trkpt lat="44.36898" lon="1.10369">
        <ele>271.71</ele>
        <time>2011-09-25T08:32:46Z</time>
      </trkpt>
      <trkpt lat="44.36885" lon="1.10348">
        <ele>273.15</ele>
        <time>2011-09-25T08:32:57Z</time>
      </trkpt>
      <trkpt lat="44.36861" lon="1.10358">
        <ele>273.63</ele>
        <time>2011-09-25T08:33:09Z</time>
      </trkpt>
      <trkpt lat="44.36849" lon="1.10351">
        <ele>276.52</ele>
        <time>2011-09-25T08:33:18Z</time>
      </trkpt>
      <trkpt lat="44.36848" lon="1.10348">
        <ele>277</ele>
        <time>2011-09-25T08:33:20Z</time>
      </trkpt>
      <trkpt lat="44.36846" lon="1.10341">
        <ele>277.96</ele>
        <time>2011-09-25T08:33:24Z</time>
      </trkpt>
      <trkpt lat="44.36844" lon="1.10337">
        <ele>278.92</ele>
        <time>2011-09-25T08:33:27Z</time>
      </trkpt>
      <trkpt lat="44.36843" lon="1.10335">
        <ele>279.4</ele>
        <time>2011-09-25T08:33:29Z</time>
      </trkpt>
      <trkpt lat="44.36834" lon="1.10323">
        <ele>281.8</ele>
        <time>2011-09-25T08:33:40Z</time>
      </trkpt>
      <trkpt lat="44.36824" lon="1.10308">
        <ele>284.21</ele>
        <time>2011-09-25T08:33:54Z</time>
      </trkpt>
      <trkpt lat="44.3682" lon="1.10305">
        <ele>284.69</ele>
        <time>2011-09-25T08:33:59Z</time>
      </trkpt>
      <trkpt lat="44.36802" lon="1.10297">
        <ele>285.65</ele>
        <time>2011-09-25T08:34:12Z</time>
      </trkpt>
      <trkpt lat="44.36773" lon="1.10294">
        <ele>286.13</ele>
        <time>2011-09-25T08:34:26Z</time>
      </trkpt>
      <trkpt lat="44.36741" lon="1.10288">
        <ele>284.69</ele>
        <time>2011-09-25T08:34:37Z</time>
      </trkpt>
      <trkpt lat="44.36737" lon="1.10287">
        <ele>284.21</ele>
        <time>2011-09-25T08:34:38Z</time>
      </trkpt>
      <trkpt lat="44.36733" lon="1.10284">
        <ele>284.21</ele>
        <time>2011-09-25T08:34:39Z</time>
      </trkpt>
      <trkpt lat="44.36728" lon="1.1028">
        <ele>283.73</ele>
        <time>2011-09-25T08:34:40Z</time>
      </trkpt>
      <trkpt lat="44.36707" lon="1.10259">
        <ele>279.88</ele>
        <time>2011-09-25T08:34:44Z</time>
      </trkpt>
      <trkpt lat="44.36686" lon="1.10238">
        <ele>277</ele>
        <time>2011-09-25T08:34:47Z</time>
      </trkpt>
      <trkpt lat="44.36678" lon="1.10233">
        <ele>276.52</ele>
        <time>2011-09-25T08:34:48Z</time>
      </trkpt>
      <trkpt lat="44.3667" lon="1.1023">
        <ele>276.04</ele>
        <time>2011-09-25T08:34:49Z</time>
      </trkpt>
      <trkpt lat="44.36661" lon="1.10228">
        <ele>274.59</ele>
        <time>2011-09-25T08:34:50Z</time>
      </trkpt>
      <trkpt lat="44.36652" lon="1.10227">
        <ele>274.59</ele>
        <time>2011-09-25T08:34:51Z</time>
      </trkpt>
      <trkpt lat="44.36618" lon="1.10227">
        <ele>275.56</ele>
        <time>2011-09-25T08:34:56Z</time>
      </trkpt>
      <trkpt lat="44.36614" lon="1.1023">
        <ele>275.56</ele>
        <time>2011-09-25T08:34:57Z</time>
      </trkpt>
      <trkpt lat="44.3661" lon="1.10234">
        <ele>275.56</ele>
        <time>2011-09-25T08:34:58Z</time>
      </trkpt>
      <trkpt lat="44.36608" lon="1.1024">
        <ele>274.59</ele>
        <time>2011-09-25T08:34:59Z</time>
      </trkpt>
      <trkpt lat="44.36606" lon="1.10247">
        <ele>274.59</ele>
        <time>2011-09-25T08:35:00Z</time>
      </trkpt>
      <trkpt lat="44.36603" lon="1.10253">
        <ele>274.11</ele>
        <time>2011-09-25T08:35:01Z</time>
      </trkpt>
      <trkpt lat="44.366" lon="1.1026">
        <ele>274.11</ele>
        <time>2011-09-25T08:35:02Z</time>
      </trkpt>
      <trkpt lat="44.36596" lon="1.10266">
        <ele>273.63</ele>
        <time>2011-09-25T08:35:03Z</time>
      </trkpt>
      <trkpt lat="44.36583" lon="1.10287">
        <ele>272.19</ele>
        <time>2011-09-25T08:35:06Z</time>
      </trkpt>
      <trkpt lat="44.36578" lon="1.10294">
        <ele>271.71</ele>
        <time>2011-09-25T08:35:07Z</time>
      </trkpt>
      <trkpt lat="44.36568" lon="1.10308">
        <ele>270.75</ele>
        <time>2011-09-25T08:35:09Z</time>
      </trkpt>
      <trkpt lat="44.36527" lon="1.10368">
        <ele>267.86</ele>
        <time>2011-09-25T08:35:17Z</time>
      </trkpt>
      <trkpt lat="44.36509" lon="1.10414">
        <ele>265.94</ele>
        <time>2011-09-25T08:35:22Z</time>
      </trkpt>
      <trkpt lat="44.36505" lon="1.10422">
        <ele>265.94</ele>
        <time>2011-09-25T08:35:23Z</time>
      </trkpt>
      <trkpt lat="44.365" lon="1.1043">
        <ele>265.46</ele>
        <time>2011-09-25T08:35:24Z</time>
      </trkpt>
      <trkpt lat="44.36494" lon="1.10436">
        <ele>265.46</ele>
        <time>2011-09-25T08:35:25Z</time>
      </trkpt>
      <trkpt lat="44.36488" lon="1.10442">
        <ele>265.46</ele>
        <time>2011-09-25T08:35:26Z</time>
      </trkpt>
      <trkpt lat="44.36482" lon="1.10446">
        <ele>265.46</ele>
        <time>2011-09-25T08:35:27Z</time>
      </trkpt>
      <trkpt lat="44.36461" lon="1.10458">
        <ele>265.94</ele>
        <time>2011-09-25T08:35:30Z</time>
      </trkpt>
      <trkpt lat="44.36422" lon="1.10477">
        <ele>267.86</ele>
        <time>2011-09-25T08:35:39Z</time>
      </trkpt>
      <trkpt lat="44.36398" lon="1.10489">
        <ele>266.42</ele>
        <time>2011-09-25T08:35:45Z</time>
      </trkpt>
      <trkpt lat="44.36393" lon="1.10491">
        <ele>266.42</ele>
        <time>2011-09-25T08:35:46Z</time>
      </trkpt>
      <trkpt lat="44.36388" lon="1.10493">
        <ele>266.42</ele>
        <time>2011-09-25T08:35:47Z</time>
      </trkpt>
      <trkpt lat="44.3638" lon="1.10497">
        <ele>265.94</ele>
        <time>2011-09-25T08:35:49Z</time>
      </trkpt>
      <trkpt lat="44.36356" lon="1.10509">
        <ele>264.02</ele>
        <time>2011-09-25T08:35:54Z</time>
      </trkpt>
      <trkpt lat="44.36341" lon="1.10518">
        <ele>262.58</ele>
        <time>2011-09-25T08:35:57Z</time>
      </trkpt>
      <trkpt lat="44.36335" lon="1.10522">
        <ele>261.62</ele>
        <time>2011-09-25T08:35:59Z</time>
      </trkpt>
      <trkpt lat="44.36332" lon="1.10524">
        <ele>260.65</ele>
        <time>2011-09-25T08:36:00Z</time>
      </trkpt>
      <trkpt lat="44.36319" lon="1.10534">
        <ele>257.29</ele>
        <time>2011-09-25T08:36:05Z</time>
      </trkpt>
      <trkpt lat="44.363" lon="1.10531">
        <ele>256.33</ele>
        <time>2011-09-25T08:36:09Z</time>
      </trkpt>
      <trkpt lat="44.3629" lon="1.10527">
        <ele>256.81</ele>
        <time>2011-09-25T08:36:11Z</time>
      </trkpt>
      <trkpt lat="44.36259" lon="1.10529">
        <ele>254.89</ele>
        <time>2011-09-25T08:36:17Z</time>
      </trkpt>
      <trkpt lat="44.36231" lon="1.10543">
        <ele>251.52</ele>
        <time>2011-09-25T08:36:22Z</time>
      </trkpt>
      <trkpt lat="44.36214" lon="1.10556">
        <ele>250.56</ele>
        <time>2011-09-25T08:36:25Z</time>
      </trkpt>
      <trkpt lat="44.36203" lon="1.10561">
        <ele>249.12</ele>
        <time>2011-09-25T08:36:27Z</time>
      </trkpt>
      <trkpt lat="44.36186" lon="1.10568">
        <ele>247.68</ele>
        <time>2011-09-25T08:36:30Z</time>
      </trkpt>
      <trkpt lat="44.36123" lon="1.10568">
        <ele>248.16</ele>
        <time>2011-09-25T08:36:41Z</time>
      </trkpt>
      <trkpt lat="44.36107" lon="1.10572">
        <ele>247.2</ele>
        <time>2011-09-25T08:36:44Z</time>
      </trkpt>
      <trkpt lat="44.36102" lon="1.10574">
        <ele>247.2</ele>
        <time>2011-09-25T08:36:45Z</time>
      </trkpt>
      <trkpt lat="44.36088" lon="1.10581">
        <ele>246.23</ele>
        <time>2011-09-25T08:36:48Z</time>
      </trkpt>
      <trkpt lat="44.36084" lon="1.10584">
        <ele>245.75</ele>
        <time>2011-09-25T08:36:49Z</time>
      </trkpt>
      <trkpt lat="44.36081" lon="1.10587">
        <ele>246.23</ele>
        <time>2011-09-25T08:36:50Z</time>
      </trkpt>
      <trkpt lat="44.36074" lon="1.10596">
        <ele>246.23</ele>
        <time>2011-09-25T08:36:52Z</time>
      </trkpt>
      <trkpt lat="44.3607" lon="1.106">
        <ele>246.72</ele>
        <time>2011-09-25T08:36:53Z</time>
      </trkpt>
      <trkpt lat="44.36067" lon="1.10605">
        <ele>246.72</ele>
        <time>2011-09-25T08:36:54Z</time>
      </trkpt>
      <trkpt lat="44.36063" lon="1.1061">
        <ele>246.72</ele>
        <time>2011-09-25T08:36:55Z</time>
      </trkpt>
      <trkpt lat="44.3606" lon="1.10615">
        <ele>247.2</ele>
        <time>2011-09-25T08:36:56Z</time>
      </trkpt>
      <trkpt lat="44.36056" lon="1.10619">
        <ele>247.2</ele>
        <time>2011-09-25T08:36:57Z</time>
      </trkpt>
      <trkpt lat="44.36052" lon="1.10624">
        <ele>247.2</ele>
        <time>2011-09-25T08:36:58Z</time>
      </trkpt>
      <trkpt lat="44.36048" lon="1.10629">
        <ele>247.68</ele>
        <time>2011-09-25T08:36:59Z</time>
      </trkpt>
      <trkpt lat="44.36044" lon="1.10634">
        <ele>247.68</ele>
        <time>2011-09-25T08:37:00Z</time>
      </trkpt>
      <trkpt lat="44.36037" lon="1.10644">
        <ele>248.16</ele>
        <time>2011-09-25T08:37:02Z</time>
      </trkpt>
      <trkpt lat="44.36019" lon="1.10669">
        <ele>248.16</ele>
        <time>2011-09-25T08:37:07Z</time>
      </trkpt>
      <trkpt lat="44.36015" lon="1.10674">
        <ele>248.16</ele>
        <time>2011-09-25T08:37:08Z</time>
      </trkpt>
      <trkpt lat="44.36011" lon="1.10678">
        <ele>248.16</ele>
        <time>2011-09-25T08:37:09Z</time>
      </trkpt>
      <trkpt lat="44.35995" lon="1.10693">
        <ele>248.16</ele>
        <time>2011-09-25T08:37:13Z</time>
      </trkpt>
      <trkpt lat="44.3595" lon="1.10719">
        <ele>248.64</ele>
        <time>2011-09-25T08:37:23Z</time>
      </trkpt>
      <trkpt lat="44.35946" lon="1.10721">
        <ele>248.64</ele>
        <time>2011-09-25T08:37:24Z</time>
      </trkpt>
      <trkpt lat="44.35941" lon="1.10723">
        <ele>248.64</ele>
        <time>2011-09-25T08:37:25Z</time>
      </trkpt>
      <trkpt lat="44.35864" lon="1.1077">
        <ele>246.72</ele>
        <time>2011-09-25T08:37:42Z</time>
      </trkpt>
      <trkpt lat="44.35859" lon="1.10774">
        <ele>247.2</ele>
        <time>2011-09-25T08:37:43Z</time>
      </trkpt>
      <trkpt lat="44.35855" lon="1.10779">
        <ele>246.72</ele>
        <time>2011-09-25T08:37:44Z</time>
      </trkpt>
      <trkpt lat="44.35794" lon="1.10849">
        <ele>245.75</ele>
        <time>2011-09-25T08:37:58Z</time>
      </trkpt>
      <trkpt lat="44.3579" lon="1.10851">
        <ele>245.75</ele>
        <time>2011-09-25T08:37:59Z</time>
      </trkpt>
      <trkpt lat="44.35785" lon="1.10852">
        <ele>245.27</ele>
        <time>2011-09-25T08:38:00Z</time>
      </trkpt>
      <trkpt lat="44.35779" lon="1.10851">
        <ele>244.79</ele>
        <time>2011-09-25T08:38:01Z</time>
      </trkpt>
      <trkpt lat="44.35774" lon="1.10849">
        <ele>244.79</ele>
        <time>2011-09-25T08:38:02Z</time>
      </trkpt>
      <trkpt lat="44.35748" lon="1.10841">
        <ele>245.27</ele>
        <time>2011-09-25T08:38:07Z</time>
      </trkpt>
      <trkpt lat="44.35745" lon="1.10844">
        <ele>245.27</ele>
        <time>2011-09-25T08:38:08Z</time>
      </trkpt>
      <trkpt lat="44.35742" lon="1.10848">
        <ele>245.75</ele>
        <time>2011-09-25T08:38:09Z</time>
      </trkpt>
      <trkpt lat="44.35741" lon="1.10854">
        <ele>245.75</ele>
        <time>2011-09-25T08:38:10Z</time>
      </trkpt>
      <trkpt lat="44.35741" lon="1.10859">
        <ele>246.23</ele>
        <time>2011-09-25T08:38:11Z</time>
      </trkpt>
      <trkpt lat="44.3573" lon="1.10928">
        <ele>248.16</ele>
        <time>2011-09-25T08:38:24Z</time>
      </trkpt>
      <trkpt lat="44.35706" lon="1.10993">
        <ele>249.12</ele>
        <time>2011-09-25T08:38:38Z</time>
      </trkpt>
      <trkpt lat="44.35672" lon="1.11044">
        <ele>251.52</ele>
        <time>2011-09-25T08:38:52Z</time>
      </trkpt>
      <trkpt lat="44.3567" lon="1.11047">
        <ele>252</ele>
        <time>2011-09-25T08:38:53Z</time>
      </trkpt>
      <trkpt lat="44.35654" lon="1.11076">
        <ele>253.44</ele>
        <time>2011-09-25T08:39:04Z</time>
      </trkpt>
      <trkpt lat="44.35648" lon="1.11081">
        <ele>252.48</ele>
        <time>2011-09-25T08:39:06Z</time>
      </trkpt>
      <trkpt lat="44.35636" lon="1.11091">
        <ele>249.6</ele>
        <time>2011-09-25T08:39:09Z</time>
      </trkpt>
      <trkpt lat="44.35614" lon="1.11116">
        <ele>247.2</ele>
        <time>2011-09-25T08:39:17Z</time>
      </trkpt>
      <trkpt lat="44.35613" lon="1.11119">
        <ele>247.68</ele>
        <time>2011-09-25T08:39:21Z</time>
      </trkpt>
      <trkpt lat="44.35612" lon="1.1112">
        <ele>247.2</ele>
        <time>2011-09-25T08:39:22Z</time>
      </trkpt>
      <trkpt lat="44.3561" lon="1.11121">
        <ele>247.2</ele>
        <time>2011-09-25T08:39:23Z</time>
      </trkpt>
      <trkpt lat="44.35609" lon="1.11123">
        <ele>246.72</ele>
        <time>2011-09-25T08:39:24Z</time>
      </trkpt>
      <trkpt lat="44.35605" lon="1.1112">
        <ele>246.23</ele>
        <time>2011-09-25T08:39:28Z</time>
      </trkpt>
      <trkpt lat="44.35604" lon="1.11122">
        <ele>245.27</ele>
        <time>2011-09-25T08:39:41Z</time>
      </trkpt>
      <trkpt lat="44.35604" lon="1.11122">
        <ele>245.75</ele>
        <time>2011-09-25T08:40:06Z</time>
      </trkpt>
      <trkpt lat="44.35604" lon="1.11121">
        <ele>245.27</ele>
        <time>2011-09-25T08:40:36Z</time>
      </trkpt>
      <trkpt lat="44.35604" lon="1.11122">
        <ele>244.79</ele>
        <time>2011-09-25T08:41:00Z</time>
      </trkpt>
      <trkpt lat="44.35604" lon="1.11122">
        <ele>245.27</ele>
        <time>2011-09-25T08:41:28Z</time>
      </trkpt>
      <trkpt lat="44.35603" lon="1.11122">
        <ele>245.75</ele>
        <time>2011-09-25T08:41:33Z</time>
      </trkpt>
      <trkpt lat="44.35603" lon="1.11122">
        <ele>246.72</ele>
        <time>2011-09-25T08:41:35Z</time>
      </trkpt>
      <trkpt lat="44.35603" lon="1.11123">
        <ele>245.75</ele>
        <time>2011-09-25T08:41:47Z</time>
      </trkpt>
      <trkpt lat="44.35576" lon="1.11147">
        <ele>243.35</ele>
        <time>2011-09-25T08:41:55Z</time>
      </trkpt>
      <trkpt lat="44.35572" lon="1.11151">
        <ele>242.87</ele>
        <time>2011-09-25T08:41:56Z</time>
      </trkpt>
      <trkpt lat="44.35568" lon="1.11154">
        <ele>242.39</ele>
        <time>2011-09-25T08:41:57Z</time>
      </trkpt>
      <trkpt lat="44.35563" lon="1.11157">
        <ele>242.39</ele>
        <time>2011-09-25T08:41:58Z</time>
      </trkpt>
      <trkpt lat="44.35527" lon="1.11171">
        <ele>239.99</ele>
        <time>2011-09-25T08:42:05Z</time>
      </trkpt>
      <trkpt lat="44.35486" lon="1.11188">
        <ele>238.06</ele>
        <time>2011-09-25T08:42:12Z</time>
      </trkpt>
      <trkpt lat="44.35473" lon="1.11195">
        <ele>237.58</ele>
        <time>2011-09-25T08:42:14Z</time>
      </trkpt>
      <trkpt lat="44.35452" lon="1.11198">
        <ele>237.58</ele>
        <time>2011-09-25T08:42:17Z</time>
      </trkpt>
      <trkpt lat="44.35447" lon="1.11201">
        <ele>237.58</ele>
        <time>2011-09-25T08:42:18Z</time>
      </trkpt>
      <trkpt lat="44.35441" lon="1.11204">
        <ele>237.58</ele>
        <time>2011-09-25T08:42:19Z</time>
      </trkpt>
      <trkpt lat="44.35435" lon="1.11206">
        <ele>237.58</ele>
        <time>2011-09-25T08:42:20Z</time>
      </trkpt>
      <trkpt lat="44.35429" lon="1.11209">
        <ele>238.06</ele>
        <time>2011-09-25T08:42:21Z</time>
      </trkpt>
      <trkpt lat="44.35414" lon="1.1122">
        <ele>237.1</ele>
        <time>2011-09-25T08:42:24Z</time>
      </trkpt>
      <trkpt lat="44.354" lon="1.11233">
        <ele>236.14</ele>
        <time>2011-09-25T08:42:27Z</time>
      </trkpt>
      <trkpt lat="44.35386" lon="1.11252">
        <ele>235.66</ele>
        <time>2011-09-25T08:42:30Z</time>
      </trkpt>
      <trkpt lat="44.3537" lon="1.11278">
        <ele>234.22</ele>
        <time>2011-09-25T08:42:34Z</time>
      </trkpt>
      <trkpt lat="44.35366" lon="1.11284">
        <ele>233.74</ele>
        <time>2011-09-25T08:42:35Z</time>
      </trkpt>
      <trkpt lat="44.35354" lon="1.1131">
        <ele>232.3</ele>
        <time>2011-09-25T08:42:42Z</time>
      </trkpt>
      <trkpt lat="44.35353" lon="1.11313">
        <ele>231.81</ele>
        <time>2011-09-25T08:42:43Z</time>
      </trkpt>
      <trkpt lat="44.35349" lon="1.11331">
        <ele>228.45</ele>
        <time>2011-09-25T08:42:46Z</time>
      </trkpt>
      <trkpt lat="44.35346" lon="1.11338">
        <ele>227.01</ele>
        <time>2011-09-25T08:42:47Z</time>
      </trkpt>
      <trkpt lat="44.35342" lon="1.11346">
        <ele>226.05</ele>
        <time>2011-09-25T08:42:48Z</time>
      </trkpt>
      <trkpt lat="44.35333" lon="1.11356">
        <ele>225.09</ele>
        <time>2011-09-25T08:42:50Z</time>
      </trkpt>
      <trkpt lat="44.35328" lon="1.1136">
        <ele>224.61</ele>
        <time>2011-09-25T08:42:51Z</time>
      </trkpt>
      <trkpt lat="44.35308" lon="1.11381">
        <ele>222.68</ele>
        <time>2011-09-25T08:42:55Z</time>
      </trkpt>
      <trkpt lat="44.35284" lon="1.114">
        <ele>218.36</ele>
        <time>2011-09-25T08:43:00Z</time>
      </trkpt>
      <trkpt lat="44.35263" lon="1.1142">
        <ele>214.51</ele>
        <time>2011-09-25T08:43:05Z</time>
      </trkpt>
      <trkpt lat="44.35249" lon="1.1143">
        <ele>212.11</ele>
        <time>2011-09-25T08:43:08Z</time>
      </trkpt>
      <trkpt lat="44.35245" lon="1.11432">
        <ele>211.15</ele>
        <time>2011-09-25T08:43:09Z</time>
      </trkpt>
      <trkpt lat="44.35226" lon="1.11449">
        <ele>207.78</ele>
        <time>2011-09-25T08:43:14Z</time>
      </trkpt>
      <trkpt lat="44.35223" lon="1.11452">
        <ele>206.82</ele>
        <time>2011-09-25T08:43:15Z</time>
      </trkpt>
      <trkpt lat="44.35214" lon="1.11467">
        <ele>204.9</ele>
        <time>2011-09-25T08:43:18Z</time>
      </trkpt>
      <trkpt lat="44.35199" lon="1.1147">
        <ele>201.53</ele>
        <time>2011-09-25T08:43:23Z</time>
      </trkpt>
      <trkpt lat="44.35196" lon="1.11446">
        <ele>198.17</ele>
        <time>2011-09-25T08:43:30Z</time>
      </trkpt>
      <trkpt lat="44.35187" lon="1.11466">
        <ele>196.73</ele>
        <time>2011-09-25T08:43:34Z</time>
      </trkpt>
      <trkpt lat="44.35164" lon="1.11508">
        <ele>193.36</ele>
        <time>2011-09-25T08:43:40Z</time>
      </trkpt>
      <trkpt lat="44.35148" lon="1.11527">
        <ele>192.88</ele>
        <time>2011-09-25T08:43:43Z</time>
      </trkpt>
      <trkpt lat="44.35119" lon="1.1155">
        <ele>190.48</ele>
        <time>2011-09-25T08:43:48Z</time>
      </trkpt>
      <trkpt lat="44.35104" lon="1.11566">
        <ele>190</ele>
        <time>2011-09-25T08:43:51Z</time>
      </trkpt>
      <trkpt lat="44.35082" lon="1.11605">
        <ele>190.48</ele>
        <time>2011-09-25T08:43:57Z</time>
      </trkpt>
      <trkpt lat="44.35071" lon="1.11626">
        <ele>190.48</ele>
        <time>2011-09-25T08:44:00Z</time>
      </trkpt>
      <trkpt lat="44.35056" lon="1.11666">
        <ele>189.04</ele>
        <time>2011-09-25T08:44:05Z</time>
      </trkpt>
      <trkpt lat="44.35046" lon="1.11698">
        <ele>186.15</ele>
        <time>2011-09-25T08:44:09Z</time>
      </trkpt>
      <trkpt lat="44.35041" lon="1.11715">
        <ele>184.23</ele>
        <time>2011-09-25T08:44:11Z</time>
      </trkpt>
      <trkpt lat="44.3503" lon="1.11735">
        <ele>182.31</ele>
        <time>2011-09-25T08:44:14Z</time>
      </trkpt>
      <trkpt lat="44.35019" lon="1.1177">
        <ele>179.9</ele>
        <time>2011-09-25T08:44:19Z</time>
      </trkpt>
      <trkpt lat="44.34994" lon="1.11813">
        <ele>176.06</ele>
        <time>2011-09-25T08:44:25Z</time>
      </trkpt>
      <trkpt lat="44.34975" lon="1.11842">
        <ele>175.58</ele>
        <time>2011-09-25T08:44:29Z</time>
      </trkpt>
      <trkpt lat="44.34971" lon="1.11848">
        <ele>175.58</ele>
        <time>2011-09-25T08:44:30Z</time>
      </trkpt>
      <trkpt lat="44.34967" lon="1.11852">
        <ele>175.58</ele>
        <time>2011-09-25T08:44:31Z</time>
      </trkpt>
      <trkpt lat="44.34943" lon="1.11862">
        <ele>175.58</ele>
        <time>2011-09-25T08:44:37Z</time>
      </trkpt>
      <trkpt lat="44.34893" lon="1.11864">
        <ele>176.06</ele>
        <time>2011-09-25T08:44:49Z</time>
      </trkpt>
      <trkpt lat="44.34891" lon="1.11867">
        <ele>176.06</ele>
        <time>2011-09-25T08:44:50Z</time>
      </trkpt>
      <trkpt lat="44.34889" lon="1.11871">
        <ele>175.58</ele>
        <time>2011-09-25T08:44:51Z</time>
      </trkpt>
      <trkpt lat="44.34886" lon="1.11882">
        <ele>176.06</ele>
        <time>2011-09-25T08:44:53Z</time>
      </trkpt>
      <trkpt lat="44.34883" lon="1.11893">
        <ele>175.58</ele>
        <time>2011-09-25T08:44:55Z</time>
      </trkpt>
      <trkpt lat="44.34879" lon="1.11897">
        <ele>175.58</ele>
        <time>2011-09-25T08:44:56Z</time>
      </trkpt>
      <trkpt lat="44.34874" lon="1.11898">
        <ele>174.62</ele>
        <time>2011-09-25T08:44:57Z</time>
      </trkpt>
      <trkpt lat="44.34868" lon="1.11897">
        <ele>173.66</ele>
        <time>2011-09-25T08:44:58Z</time>
      </trkpt>
      <trkpt lat="44.34862" lon="1.11894">
        <ele>173.17</ele>
        <time>2011-09-25T08:44:59Z</time>
      </trkpt>
      <trkpt lat="44.34856" lon="1.11891">
        <ele>173.17</ele>
        <time>2011-09-25T08:45:00Z</time>
      </trkpt>
      <trkpt lat="44.34849" lon="1.1189">
        <ele>172.69</ele>
        <time>2011-09-25T08:45:01Z</time>
      </trkpt>
      <trkpt lat="44.34843" lon="1.11889">
        <ele>172.69</ele>
        <time>2011-09-25T08:45:02Z</time>
      </trkpt>
      <trkpt lat="44.34836" lon="1.11889">
        <ele>172.69</ele>
        <time>2011-09-25T08:45:03Z</time>
      </trkpt>
      <trkpt lat="44.3483" lon="1.11889">
        <ele>172.69</ele>
        <time>2011-09-25T08:45:04Z</time>
      </trkpt>
      <trkpt lat="44.34779" lon="1.11902">
        <ele>173.66</ele>
        <time>2011-09-25T08:45:13Z</time>
      </trkpt>
      <trkpt lat="44.34765" lon="1.11906">
        <ele>173.66</ele>
        <time>2011-09-25T08:45:16Z</time>
      </trkpt>
      <trkpt lat="44.34763" lon="1.11889">
        <ele>173.17</ele>
        <time>2011-09-25T08:45:20Z</time>
      </trkpt>
      <trkpt lat="44.34765" lon="1.11883">
        <ele>173.17</ele>
        <time>2011-09-25T08:45:21Z</time>
      </trkpt>
      <trkpt lat="44.34766" lon="1.11877">
        <ele>173.17</ele>
        <time>2011-09-25T08:45:22Z</time>
      </trkpt>
      <trkpt lat="44.34767" lon="1.11871">
        <ele>172.69</ele>
        <time>2011-09-25T08:45:23Z</time>
      </trkpt>
      <trkpt lat="44.34768" lon="1.11865">
        <ele>173.17</ele>
        <time>2011-09-25T08:45:24Z</time>
      </trkpt>
      <trkpt lat="44.34768" lon="1.11846">
        <ele>173.17</ele>
        <time>2011-09-25T08:45:27Z</time>
      </trkpt>
      <trkpt lat="44.34766" lon="1.11841">
        <ele>173.17</ele>
        <time>2011-09-25T08:45:28Z</time>
      </trkpt>
      <trkpt lat="44.34763" lon="1.11835">
        <ele>173.17</ele>
        <time>2011-09-25T08:45:29Z</time>
      </trkpt>
      <trkpt lat="44.34759" lon="1.11831">
        <ele>172.69</ele>
        <time>2011-09-25T08:45:30Z</time>
      </trkpt>
      <trkpt lat="44.34755" lon="1.11827">
        <ele>172.69</ele>
        <time>2011-09-25T08:45:31Z</time>
      </trkpt>
      <trkpt lat="44.34751" lon="1.11825">
        <ele>172.69</ele>
        <time>2011-09-25T08:45:32Z</time>
      </trkpt>
      <trkpt lat="44.34747" lon="1.11823">
        <ele>172.69</ele>
        <time>2011-09-25T08:45:33Z</time>
      </trkpt>
      <trkpt lat="44.34733" lon="1.11815">
        <ele>173.17</ele>
        <time>2011-09-25T08:45:36Z</time>
      </trkpt>
      <trkpt lat="44.34729" lon="1.11812">
        <ele>173.17</ele>
        <time>2011-09-25T08:45:37Z</time>
      </trkpt>
      <trkpt lat="44.34726" lon="1.11807">
        <ele>173.17</ele>
        <time>2011-09-25T08:45:38Z</time>
      </trkpt>
      <trkpt lat="44.34673" lon="1.11734">
        <ele>172.21</ele>
        <time>2011-09-25T08:45:53Z</time>
      </trkpt>
      <trkpt lat="44.34669" lon="1.11731">
        <ele>172.21</ele>
        <time>2011-09-25T08:45:54Z</time>
      </trkpt>
      <trkpt lat="44.34665" lon="1.11728">
        <ele>172.69</ele>
        <time>2011-09-25T08:45:55Z</time>
      </trkpt>
      <trkpt lat="44.34654" lon="1.11726">
        <ele>171.73</ele>
        <time>2011-09-25T08:45:57Z</time>
      </trkpt>
      <trkpt lat="44.34635" lon="1.1172">
        <ele>171.73</ele>
        <time>2011-09-25T08:46:01Z</time>
      </trkpt>
      <trkpt lat="44.34618" lon="1.11708">
        <ele>171.73</ele>
        <time>2011-09-25T08:46:05Z</time>
      </trkpt>
      <trkpt lat="44.34598" lon="1.11653">
        <ele>171.25</ele>
        <time>2011-09-25T08:46:14Z</time>
      </trkpt>
      <trkpt lat="44.34596" lon="1.11647">
        <ele>171.73</ele>
        <time>2011-09-25T08:46:15Z</time>
      </trkpt>
      <trkpt lat="44.34592" lon="1.11641">
        <ele>171.25</ele>
        <time>2011-09-25T08:46:16Z</time>
      </trkpt>
      <trkpt lat="44.34584" lon="1.11624">
        <ele>171.25</ele>
        <time>2011-09-25T08:46:19Z</time>
      </trkpt>
      <trkpt lat="44.34578" lon="1.11613">
        <ele>171.25</ele>
        <time>2011-09-25T08:46:21Z</time>
      </trkpt>
      <trkpt lat="44.34573" lon="1.11602">
        <ele>170.77</ele>
        <time>2011-09-25T08:46:23Z</time>
      </trkpt>
      <trkpt lat="44.34572" lon="1.11596">
        <ele>171.25</ele>
        <time>2011-09-25T08:46:24Z</time>
      </trkpt>
      <trkpt lat="44.34561" lon="1.11568">
        <ele>171.25</ele>
        <time>2011-09-25T08:46:29Z</time>
      </trkpt>
      <trkpt lat="44.34555" lon="1.11558">
        <ele>171.73</ele>
        <time>2011-09-25T08:46:31Z</time>
      </trkpt>
      <trkpt lat="44.34551" lon="1.11553">
        <ele>171.73</ele>
        <time>2011-09-25T08:46:32Z</time>
      </trkpt>
      <trkpt lat="44.34547" lon="1.11549">
        <ele>171.25</ele>
        <time>2011-09-25T08:46:33Z</time>
      </trkpt>
      <trkpt lat="44.34544" lon="1.11546">
        <ele>171.25</ele>
        <time>2011-09-25T08:46:34Z</time>
      </trkpt>
      <trkpt lat="44.34539" lon="1.11543">
        <ele>171.25</ele>
        <time>2011-09-25T08:46:35Z</time>
      </trkpt>
      <trkpt lat="44.34535" lon="1.11542">
        <ele>171.25</ele>
        <time>2011-09-25T08:46:36Z</time>
      </trkpt>
      <trkpt lat="44.34531" lon="1.1154">
        <ele>171.25</ele>
        <time>2011-09-25T08:46:37Z</time>
      </trkpt>
      <trkpt lat="44.34527" lon="1.11539">
        <ele>171.25</ele>
        <time>2011-09-25T08:46:38Z</time>
      </trkpt>
      <trkpt lat="44.34515" lon="1.11538">
        <ele>171.73</ele>
        <time>2011-09-25T08:46:41Z</time>
      </trkpt>
      <trkpt lat="44.34503" lon="1.11532">
        <ele>171.25</ele>
        <time>2011-09-25T08:46:44Z</time>
      </trkpt>
      <trkpt lat="44.34493" lon="1.11521">
        <ele>171.25</ele>
        <time>2011-09-25T08:46:47Z</time>
      </trkpt>
      <trkpt lat="44.34433" lon="1.11473">
        <ele>171.25</ele>
        <time>2011-09-25T08:47:03Z</time>
      </trkpt>
      <trkpt lat="44.34426" lon="1.11466">
        <ele>170.77</ele>
        <time>2011-09-25T08:47:05Z</time>
      </trkpt>
      <trkpt lat="44.34399" lon="1.11432">
        <ele>172.69</ele>
        <time>2011-09-25T08:47:16Z</time>
      </trkpt>
      <trkpt lat="44.34395" lon="1.11425">
        <ele>173.17</ele>
        <time>2011-09-25T08:47:18Z</time>
      </trkpt>
      <trkpt lat="44.34369" lon="1.11412">
        <ele>174.14</ele>
        <time>2011-09-25T08:47:27Z</time>
      </trkpt>
      <trkpt lat="44.34353" lon="1.11415">
        <ele>177.02</ele>
        <time>2011-09-25T08:47:38Z</time>
      </trkpt>
      <trkpt lat="44.34341" lon="1.11415">
        <ele>178.94</ele>
        <time>2011-09-25T08:47:49Z</time>
      </trkpt>
      <trkpt lat="44.3433" lon="1.11416">
        <ele>180.38</ele>
        <time>2011-09-25T08:47:57Z</time>
      </trkpt>
      <trkpt lat="44.34316" lon="1.11421">
        <ele>182.79</ele>
        <time>2011-09-25T08:48:08Z</time>
      </trkpt>
      <trkpt lat="44.34311" lon="1.11421">
        <ele>183.75</ele>
        <time>2011-09-25T08:48:11Z</time>
      </trkpt>
      <trkpt lat="44.34294" lon="1.11422">
        <ele>184.71</ele>
        <time>2011-09-25T08:48:21Z</time>
      </trkpt>
      <trkpt lat="44.34275" lon="1.11431">
        <ele>186.63</ele>
        <time>2011-09-25T08:48:34Z</time>
      </trkpt>
      <trkpt lat="44.34269" lon="1.11434">
        <ele>187.11</ele>
        <time>2011-09-25T08:48:38Z</time>
      </trkpt>
      <trkpt lat="44.34262" lon="1.11436">
        <ele>188.08</ele>
        <time>2011-09-25T08:48:43Z</time>
      </trkpt>
      <trkpt lat="44.34258" lon="1.11437">
        <ele>188.08</ele>
        <time>2011-09-25T08:48:46Z</time>
      </trkpt>
      <trkpt lat="44.34239" lon="1.11443">
        <ele>190.96</ele>
        <time>2011-09-25T08:49:00Z</time>
      </trkpt>
      <trkpt lat="44.34231" lon="1.11444">
        <ele>191.44</ele>
        <time>2011-09-25T08:49:05Z</time>
      </trkpt>
      <trkpt lat="44.34214" lon="1.11449">
        <ele>192.4</ele>
        <time>2011-09-25T08:49:15Z</time>
      </trkpt>
      <trkpt lat="44.34199" lon="1.11455">
        <ele>193.84</ele>
        <time>2011-09-25T08:49:26Z</time>
      </trkpt>
      <trkpt lat="44.34177" lon="1.11462">
        <ele>194.8</ele>
        <time>2011-09-25T08:49:41Z</time>
      </trkpt>
      <trkpt lat="44.3416" lon="1.11469">
        <ele>195.77</ele>
        <time>2011-09-25T08:49:52Z</time>
      </trkpt>
      <trkpt lat="44.34155" lon="1.11477">
        <ele>196.25</ele>
        <time>2011-09-25T08:49:56Z</time>
      </trkpt>
      <trkpt lat="44.34153" lon="1.11487">
        <ele>197.21</ele>
        <time>2011-09-25T08:50:01Z</time>
      </trkpt>
      <trkpt lat="44.34152" lon="1.1149">
        <ele>197.21</ele>
        <time>2011-09-25T08:50:03Z</time>
      </trkpt>
      <trkpt lat="44.34132" lon="1.11516">
        <ele>198.17</ele>
        <time>2011-09-25T08:50:16Z</time>
      </trkpt>
      <trkpt lat="44.34121" lon="1.11555">
        <ele>201.05</ele>
        <time>2011-09-25T08:50:34Z</time>
      </trkpt>
      <trkpt lat="44.34118" lon="1.1157">
        <ele>201.05</ele>
        <time>2011-09-25T08:50:41Z</time>
      </trkpt>
      <trkpt lat="44.34113" lon="1.11582">
        <ele>201.53</ele>
        <time>2011-09-25T08:50:46Z</time>
      </trkpt>
      <trkpt lat="44.34094" lon="1.11619">
        <ele>200.09</ele>
        <time>2011-09-25T08:50:55Z</time>
      </trkpt>
      <trkpt lat="44.34089" lon="1.11624">
        <ele>199.13</ele>
        <time>2011-09-25T08:50:57Z</time>
      </trkpt>
      <trkpt lat="44.34077" lon="1.11633">
        <ele>198.17</ele>
        <time>2011-09-25T08:51:00Z</time>
      </trkpt>
      <trkpt lat="44.34051" lon="1.11629">
        <ele>196.25</ele>
        <time>2011-09-25T08:51:05Z</time>
      </trkpt>
      <trkpt lat="44.34042" lon="1.11624">
        <ele>196.25</ele>
        <time>2011-09-25T08:51:07Z</time>
      </trkpt>
      <trkpt lat="44.34027" lon="1.1161">
        <ele>194.8</ele>
        <time>2011-09-25T08:51:10Z</time>
      </trkpt>
      <trkpt lat="44.34001" lon="1.11591">
        <ele>197.69</ele>
        <time>2011-09-25T08:51:15Z</time>
      </trkpt>
      <trkpt lat="44.33992" lon="1.11585">
        <ele>199.61</ele>
        <time>2011-09-25T08:51:18Z</time>
      </trkpt>
      <trkpt lat="44.33984" lon="1.11577">
        <ele>200.09</ele>
        <time>2011-09-25T08:51:22Z</time>
      </trkpt>
      <trkpt lat="44.33963" lon="1.11544">
        <ele>197.69</ele>
        <time>2011-09-25T08:51:29Z</time>
      </trkpt>
      <trkpt lat="44.33947" lon="1.11521">
        <ele>194.8</ele>
        <time>2011-09-25T08:51:33Z</time>
      </trkpt>
      <trkpt lat="44.33942" lon="1.11517">
        <ele>195.28</ele>
        <time>2011-09-25T08:51:34Z</time>
      </trkpt>
      <trkpt lat="44.33938" lon="1.11515">
        <ele>194.8</ele>
        <time>2011-09-25T08:51:35Z</time>
      </trkpt>
      <trkpt lat="44.33934" lon="1.11514">
        <ele>194.32</ele>
        <time>2011-09-25T08:51:36Z</time>
      </trkpt>
      <trkpt lat="44.33931" lon="1.11514">
        <ele>193.84</ele>
        <time>2011-09-25T08:51:37Z</time>
      </trkpt>
      <trkpt lat="44.33929" lon="1.11513">
        <ele>193.36</ele>
        <time>2011-09-25T08:51:38Z</time>
      </trkpt>
      <trkpt lat="44.33928" lon="1.11511">
        <ele>192.88</ele>
        <time>2011-09-25T08:51:39Z</time>
      </trkpt>
      <trkpt lat="44.33932" lon="1.11502">
        <ele>191.92</ele>
        <time>2011-09-25T08:51:43Z</time>
      </trkpt>
      <trkpt lat="44.33927" lon="1.11489">
        <ele>190.48</ele>
        <time>2011-09-25T08:51:46Z</time>
      </trkpt>
      <trkpt lat="44.33923" lon="1.11487">
        <ele>190</ele>
        <time>2011-09-25T08:51:47Z</time>
      </trkpt>
      <trkpt lat="44.33918" lon="1.11486">
        <ele>189.52</ele>
        <time>2011-09-25T08:51:48Z</time>
      </trkpt>
      <trkpt lat="44.33913" lon="1.11485">
        <ele>189.52</ele>
        <time>2011-09-25T08:51:49Z</time>
      </trkpt>
      <trkpt lat="44.33908" lon="1.11482">
        <ele>189.04</ele>
        <time>2011-09-25T08:51:50Z</time>
      </trkpt>
      <trkpt lat="44.33902" lon="1.11479">
        <ele>188.08</ele>
        <time>2011-09-25T08:51:51Z</time>
      </trkpt>
      <trkpt lat="44.33896" lon="1.11477">
        <ele>187.11</ele>
        <time>2011-09-25T08:51:52Z</time>
      </trkpt>
      <trkpt lat="44.33883" lon="1.11472">
        <ele>185.67</ele>
        <time>2011-09-25T08:51:54Z</time>
      </trkpt>
      <trkpt lat="44.33877" lon="1.11471">
        <ele>185.19</ele>
        <time>2011-09-25T08:51:55Z</time>
      </trkpt>
      <trkpt lat="44.3387" lon="1.1147">
        <ele>184.71</ele>
        <time>2011-09-25T08:51:56Z</time>
      </trkpt>
      <trkpt lat="44.33864" lon="1.11469">
        <ele>183.75</ele>
        <time>2011-09-25T08:51:57Z</time>
      </trkpt>
      <trkpt lat="44.33858" lon="1.11467">
        <ele>183.27</ele>
        <time>2011-09-25T08:51:58Z</time>
      </trkpt>
      <trkpt lat="44.33853" lon="1.11464">
        <ele>182.79</ele>
        <time>2011-09-25T08:51:59Z</time>
      </trkpt>
      <trkpt lat="44.33849" lon="1.11459">
        <ele>181.83</ele>
        <time>2011-09-25T08:52:00Z</time>
      </trkpt>
      <trkpt lat="44.33848" lon="1.11452">
        <ele>180.87</ele>
        <time>2011-09-25T08:52:01Z</time>
      </trkpt>
      <trkpt lat="44.33849" lon="1.11444">
        <ele>179.9</ele>
        <time>2011-09-25T08:52:02Z</time>
      </trkpt>
      <trkpt lat="44.33852" lon="1.11435">
        <ele>179.42</ele>
        <time>2011-09-25T08:52:03Z</time>
      </trkpt>
      <trkpt lat="44.33856" lon="1.11425">
        <ele>177.5</ele>
        <time>2011-09-25T08:52:04Z</time>
      </trkpt>
      <trkpt lat="44.3386" lon="1.11415">
        <ele>176.06</ele>
        <time>2011-09-25T08:52:05Z</time>
      </trkpt>
      <trkpt lat="44.33868" lon="1.11381">
        <ele>172.21</ele>
        <time>2011-09-25T08:52:08Z</time>
      </trkpt>
      <trkpt lat="44.33878" lon="1.11344">
        <ele>168.85</ele>
        <time>2011-09-25T08:52:11Z</time>
      </trkpt>
      <trkpt lat="44.33918" lon="1.11202">
        <ele>166.45</ele>
        <time>2011-09-25T08:52:23Z</time>
      </trkpt>
      <trkpt lat="44.33954" lon="1.1109">
        <ele>167.41</ele>
        <time>2011-09-25T08:52:36Z</time>
      </trkpt>
      <trkpt lat="44.33955" lon="1.11084">
        <ele>167.41</ele>
        <time>2011-09-25T08:52:37Z</time>
      </trkpt>
      <trkpt lat="44.33954" lon="1.11079">
        <ele>167.41</ele>
        <time>2011-09-25T08:52:38Z</time>
      </trkpt>
      <trkpt lat="44.3395" lon="1.11077">
        <ele>166.93</ele>
        <time>2011-09-25T08:52:39Z</time>
      </trkpt>
      <trkpt lat="44.33945" lon="1.11076">
        <ele>166.93</ele>
        <time>2011-09-25T08:52:40Z</time>
      </trkpt>
      <trkpt lat="44.3394" lon="1.11074">
        <ele>166.93</ele>
        <time>2011-09-25T08:52:41Z</time>
      </trkpt>
      <trkpt lat="44.33935" lon="1.11072">
        <ele>166.45</ele>
        <time>2011-09-25T08:52:42Z</time>
      </trkpt>
      <trkpt lat="44.3393" lon="1.11069">
        <ele>166.45</ele>
        <time>2011-09-25T08:52:43Z</time>
      </trkpt>
      <trkpt lat="44.33926" lon="1.11066">
        <ele>166.45</ele>
        <time>2011-09-25T08:52:44Z</time>
      </trkpt>
      <trkpt lat="44.33898" lon="1.11048">
        <ele>165.96</ele>
        <time>2011-09-25T08:52:50Z</time>
      </trkpt>
      <trkpt lat="44.33888" lon="1.11044">
        <ele>166.45</ele>
        <time>2011-09-25T08:52:52Z</time>
      </trkpt>
      <trkpt lat="44.33849" lon="1.11034">
        <ele>166.45</ele>
        <time>2011-09-25T08:53:00Z</time>
      </trkpt>
      <trkpt lat="44.33784" lon="1.10997">
        <ele>166.93</ele>
        <time>2011-09-25T08:53:17Z</time>
      </trkpt>
      <trkpt lat="44.33753" lon="1.10941">
        <ele>165.96</ele>
        <time>2011-09-25T08:53:31Z</time>
      </trkpt>
      <trkpt lat="44.3371" lon="1.10912">
        <ele>166.45</ele>
        <time>2011-09-25T08:53:45Z</time>
      </trkpt>
      <trkpt lat="44.33674" lon="1.10887">
        <ele>166.45</ele>
        <time>2011-09-25T08:53:57Z</time>
      </trkpt>
      <trkpt lat="44.33659" lon="1.10829">
        <ele>166.45</ele>
        <time>2011-09-25T08:54:09Z</time>
      </trkpt>
      <trkpt lat="44.33645" lon="1.10758">
        <ele>165.48</ele>
        <time>2011-09-25T08:54:23Z</time>
      </trkpt>
      <trkpt lat="44.33641" lon="1.10742">
        <ele>165.96</ele>
        <time>2011-09-25T08:54:27Z</time>
      </trkpt>
      <trkpt lat="44.33661" lon="1.10706">
        <ele>165.48</ele>
        <time>2011-09-25T08:54:36Z</time>
      </trkpt>
      <trkpt lat="44.33654" lon="1.10678">
        <ele>165.48</ele>
        <time>2011-09-25T08:54:45Z</time>
      </trkpt>
      <trkpt lat="44.33656" lon="1.10676">
        <ele>165.48</ele>
        <time>2011-09-25T08:54:46Z</time>
      </trkpt>
      <trkpt lat="44.33696" lon="1.10637">
        <ele>165.96</ele>
        <time>2011-09-25T08:55:01Z</time>
      </trkpt>
      <trkpt lat="44.33726" lon="1.10606">
        <ele>166.93</ele>
        <time>2011-09-25T08:55:13Z</time>
      </trkpt>
      <trkpt lat="44.33726" lon="1.10592">
        <ele>166.93</ele>
        <time>2011-09-25T08:55:17Z</time>
      </trkpt>
      <trkpt lat="44.33704" lon="1.10531">
        <ele>167.89</ele>
        <time>2011-09-25T08:55:33Z</time>
      </trkpt>
      <trkpt lat="44.33688" lon="1.10493">
        <ele>167.89</ele>
        <time>2011-09-25T08:55:44Z</time>
      </trkpt>
      <trkpt lat="44.33696" lon="1.10478">
        <ele>169.33</ele>
        <time>2011-09-25T08:55:51Z</time>
      </trkpt>
      <trkpt lat="44.33728" lon="1.10448">
        <ele>170.29</ele>
        <time>2011-09-25T08:56:06Z</time>
      </trkpt>
      <trkpt lat="44.33761" lon="1.10416">
        <ele>171.25</ele>
        <time>2011-09-25T08:56:21Z</time>
      </trkpt>
      <trkpt lat="44.33786" lon="1.10424">
        <ele>170.77</ele>
        <time>2011-09-25T08:56:31Z</time>
      </trkpt>
      <trkpt lat="44.33823" lon="1.1045">
        <ele>171.73</ele>
        <time>2011-09-25T08:56:44Z</time>
      </trkpt>
      <trkpt lat="44.33825" lon="1.10451">
        <ele>171.73</ele>
        <time>2011-09-25T08:56:45Z</time>
      </trkpt>
      <trkpt lat="44.33843" lon="1.10412">
        <ele>173.17</ele>
        <time>2011-09-25T08:56:57Z</time>
      </trkpt>
      <trkpt lat="44.3387" lon="1.1037">
        <ele>174.14</ele>
        <time>2011-09-25T08:57:11Z</time>
      </trkpt>
      <trkpt lat="44.33904" lon="1.10327">
        <ele>175.58</ele>
        <time>2011-09-25T08:57:27Z</time>
      </trkpt>
      <trkpt lat="44.33945" lon="1.10288">
        <ele>176.54</ele>
        <time>2011-09-25T08:57:45Z</time>
      </trkpt>
      <trkpt lat="44.33986" lon="1.1026">
        <ele>177.02</ele>
        <time>2011-09-25T08:58:01Z</time>
      </trkpt>
      <trkpt lat="44.34018" lon="1.1022">
        <ele>177.5</ele>
        <time>2011-09-25T08:58:15Z</time>
      </trkpt>
      <trkpt lat="44.34035" lon="1.10208">
        <ele>178.46</ele>
        <time>2011-09-25T08:58:22Z</time>
      </trkpt>
      <trkpt lat="44.34048" lon="1.10228">
        <ele>180.38</ele>
        <time>2011-09-25T08:58:32Z</time>
      </trkpt>
      <trkpt lat="44.34053" lon="1.10235">
        <ele>180.87</ele>
        <time>2011-09-25T08:58:37Z</time>
      </trkpt>
      <trkpt lat="44.34058" lon="1.10242">
        <ele>181.83</ele>
        <time>2011-09-25T08:58:41Z</time>
      </trkpt>
      <trkpt lat="44.34065" lon="1.10246">
        <ele>182.79</ele>
        <time>2011-09-25T08:58:46Z</time>
      </trkpt>
      <trkpt lat="44.3409" lon="1.10209">
        <ele>182.79</ele>
        <time>2011-09-25T08:59:01Z</time>
      </trkpt>
      <trkpt lat="44.34125" lon="1.10146">
        <ele>183.27</ele>
        <time>2011-09-25T08:59:19Z</time>
      </trkpt>
      <trkpt lat="44.34159" lon="1.10071">
        <ele>183.75</ele>
        <time>2011-09-25T08:59:38Z</time>
      </trkpt>
      <trkpt lat="44.34194" lon="1.10007">
        <ele>184.23</ele>
        <time>2011-09-25T08:59:56Z</time>
      </trkpt>
      <trkpt lat="44.3423" lon="1.09941">
        <ele>184.71</ele>
        <time>2011-09-25T09:00:14Z</time>
      </trkpt>
      <trkpt lat="44.34264" lon="1.09889">
        <ele>186.15</ele>
        <time>2011-09-25T09:00:30Z</time>
      </trkpt>
      <trkpt lat="44.34286" lon="1.09827">
        <ele>187.59</ele>
        <time>2011-09-25T09:00:45Z</time>
      </trkpt>
      <trkpt lat="44.34287" lon="1.09823">
        <ele>188.08</ele>
        <time>2011-09-25T09:00:46Z</time>
      </trkpt>
      <trkpt lat="44.34304" lon="1.09775">
        <ele>188.56</ele>
        <time>2011-09-25T09:00:59Z</time>
      </trkpt>
      <trkpt lat="44.34335" lon="1.0971">
        <ele>190.96</ele>
        <time>2011-09-25T09:01:17Z</time>
      </trkpt>
      <trkpt lat="44.34359" lon="1.09646">
        <ele>193.36</ele>
        <time>2011-09-25T09:01:35Z</time>
      </trkpt>
      <trkpt lat="44.34378" lon="1.09604">
        <ele>195.77</ele>
        <time>2011-09-25T09:01:51Z</time>
      </trkpt>
      <trkpt lat="44.34403" lon="1.09555">
        <ele>196.73</ele>
        <time>2011-09-25T09:02:10Z</time>
      </trkpt>
      <trkpt lat="44.34427" lon="1.09507">
        <ele>198.17</ele>
        <time>2011-09-25T09:02:25Z</time>
      </trkpt>
      <trkpt lat="44.34448" lon="1.09462">
        <ele>200.09</ele>
        <time>2011-09-25T09:02:40Z</time>
      </trkpt>
      <trkpt lat="44.34468" lon="1.09418">
        <ele>202.01</ele>
        <time>2011-09-25T09:02:55Z</time>
      </trkpt>
      <trkpt lat="44.34482" lon="1.09384">
        <ele>202.98</ele>
        <time>2011-09-25T09:03:09Z</time>
      </trkpt>
      <trkpt lat="44.34485" lon="1.09378">
        <ele>203.46</ele>
        <time>2011-09-25T09:03:12Z</time>
      </trkpt>
      <trkpt lat="44.34501" lon="1.09357">
        <ele>205.38</ele>
        <time>2011-09-25T09:03:27Z</time>
      </trkpt>
      <trkpt lat="44.34504" lon="1.09353">
        <ele>205.86</ele>
        <time>2011-09-25T09:03:29Z</time>
      </trkpt>
      <trkpt lat="44.3452" lon="1.09326">
        <ele>207.3</ele>
        <time>2011-09-25T09:03:44Z</time>
      </trkpt>
      <trkpt lat="44.3453" lon="1.09285">
        <ele>207.78</ele>
        <time>2011-09-25T09:03:57Z</time>
      </trkpt>
      <trkpt lat="44.34544" lon="1.09252">
        <ele>208.26</ele>
        <time>2011-09-25T09:04:09Z</time>
      </trkpt>
      <trkpt lat="44.34562" lon="1.09226">
        <ele>210.19</ele>
        <time>2011-09-25T09:04:23Z</time>
      </trkpt>
      <trkpt lat="44.34564" lon="1.09222">
        <ele>210.67</ele>
        <time>2011-09-25T09:04:25Z</time>
      </trkpt>
      <trkpt lat="44.34569" lon="1.09217">
        <ele>210.67</ele>
        <time>2011-09-25T09:04:29Z</time>
      </trkpt>
      <trkpt lat="44.34584" lon="1.09202">
        <ele>214.03</ele>
        <time>2011-09-25T09:04:43Z</time>
      </trkpt>
      <trkpt lat="44.34591" lon="1.09197">
        <ele>214.99</ele>
        <time>2011-09-25T09:04:50Z</time>
      </trkpt>
      <trkpt lat="44.34599" lon="1.09182">
        <ele>216.91</ele>
        <time>2011-09-25T09:05:02Z</time>
      </trkpt>
      <trkpt lat="44.3461" lon="1.09153">
        <ele>218.36</ele>
        <time>2011-09-25T09:05:20Z</time>
      </trkpt>
      <trkpt lat="44.34624" lon="1.09121">
        <ele>219.32</ele>
        <time>2011-09-25T09:05:35Z</time>
      </trkpt>
      <trkpt lat="44.34633" lon="1.09081">
        <ele>219.32</ele>
        <time>2011-09-25T09:05:49Z</time>
      </trkpt>
      <trkpt lat="44.34649" lon="1.09038">
        <ele>220.76</ele>
        <time>2011-09-25T09:06:02Z</time>
      </trkpt>
      <trkpt lat="44.34676" lon="1.08991">
        <ele>221.24</ele>
        <time>2011-09-25T09:06:18Z</time>
      </trkpt>
      <trkpt lat="44.34693" lon="1.08969">
        <ele>221.72</ele>
        <time>2011-09-25T09:06:27Z</time>
      </trkpt>
      <trkpt lat="44.34708" lon="1.08945">
        <ele>223.16</ele>
        <time>2011-09-25T09:06:39Z</time>
      </trkpt>
      <trkpt lat="44.34712" lon="1.08927">
        <ele>226.05</ele>
        <time>2011-09-25T09:06:51Z</time>
      </trkpt>
      <trkpt lat="44.34721" lon="1.08918">
        <ele>227.01</ele>
        <time>2011-09-25T09:06:59Z</time>
      </trkpt>
      <trkpt lat="44.34732" lon="1.08902">
        <ele>227.97</ele>
        <time>2011-09-25T09:07:09Z</time>
      </trkpt>
      <trkpt lat="44.34747" lon="1.0889">
        <ele>228.45</ele>
        <time>2011-09-25T09:07:15Z</time>
      </trkpt>
      <trkpt lat="44.34756" lon="1.0888">
        <ele>229.89</ele>
        <time>2011-09-25T09:07:20Z</time>
      </trkpt>
      <trkpt lat="44.34759" lon="1.08853">
        <ele>231.81</ele>
        <time>2011-09-25T09:07:33Z</time>
      </trkpt>
      <trkpt lat="44.34759" lon="1.08841">
        <ele>233.26</ele>
        <time>2011-09-25T09:07:39Z</time>
      </trkpt>
      <trkpt lat="44.3476" lon="1.08808">
        <ele>236.14</ele>
        <time>2011-09-25T09:07:58Z</time>
      </trkpt>
      <trkpt lat="44.34759" lon="1.08806">
        <ele>236.14</ele>
        <time>2011-09-25T09:07:59Z</time>
      </trkpt>
      <trkpt lat="44.34757" lon="1.08803">
        <ele>237.1</ele>
        <time>2011-09-25T09:08:02Z</time>
      </trkpt>
      <trkpt lat="44.34744" lon="1.0879">
        <ele>239.51</ele>
        <time>2011-09-25T09:08:17Z</time>
      </trkpt>
      <trkpt lat="44.34743" lon="1.08788">
        <ele>239.99</ele>
        <time>2011-09-25T09:08:19Z</time>
      </trkpt>
      <trkpt lat="44.34737" lon="1.08774">
        <ele>240.95</ele>
        <time>2011-09-25T09:08:29Z</time>
      </trkpt>
      <trkpt lat="44.34726" lon="1.08749">
        <ele>243.35</ele>
        <time>2011-09-25T09:08:46Z</time>
      </trkpt>
      <trkpt lat="44.34707" lon="1.08731">
        <ele>243.83</ele>
        <time>2011-09-25T09:09:00Z</time>
      </trkpt>
      <trkpt lat="44.34692" lon="1.08715">
        <ele>244.79</ele>
        <time>2011-09-25T09:09:12Z</time>
      </trkpt>
      <trkpt lat="44.34672" lon="1.08693">
        <ele>246.72</ele>
        <time>2011-09-25T09:09:27Z</time>
      </trkpt>
      <trkpt lat="44.34647" lon="1.08666">
        <ele>247.68</ele>
        <time>2011-09-25T09:09:42Z</time>
      </trkpt>
      <trkpt lat="44.34629" lon="1.08633">
        <ele>246.72</ele>
        <time>2011-09-25T09:09:53Z</time>
      </trkpt>
      <trkpt lat="44.34607" lon="1.08582">
        <ele>244.79</ele>
        <time>2011-09-25T09:10:05Z</time>
      </trkpt>
      <trkpt lat="44.34598" lon="1.08548">
        <ele>243.83</ele>
        <time>2011-09-25T09:10:11Z</time>
      </trkpt>
      <trkpt lat="44.34597" lon="1.08541">
        <ele>244.31</ele>
        <time>2011-09-25T09:10:12Z</time>
      </trkpt>
      <trkpt lat="44.34589" lon="1.08481">
        <ele>244.79</ele>
        <time>2011-09-25T09:10:24Z</time>
      </trkpt>
      <trkpt lat="44.34571" lon="1.08435">
        <ele>246.23</ele>
        <time>2011-09-25T09:10:36Z</time>
      </trkpt>
      <trkpt lat="44.3457" lon="1.08432">
        <ele>246.23</ele>
        <time>2011-09-25T09:10:37Z</time>
      </trkpt>
      <trkpt lat="44.34568" lon="1.08429">
        <ele>246.23</ele>
        <time>2011-09-25T09:10:38Z</time>
      </trkpt>
      <trkpt lat="44.3455" lon="1.08398">
        <ele>248.16</ele>
        <time>2011-09-25T09:10:52Z</time>
      </trkpt>
      <trkpt lat="44.34537" lon="1.08373">
        <ele>250.08</ele>
        <time>2011-09-25T09:11:06Z</time>
      </trkpt>
      <trkpt lat="44.34535" lon="1.0837">
        <ele>250.56</ele>
        <time>2011-09-25T09:11:08Z</time>
      </trkpt>
      <trkpt lat="44.34535" lon="1.08368">
        <ele>250.56</ele>
        <time>2011-09-25T09:11:09Z</time>
      </trkpt>
      <trkpt lat="44.34534" lon="1.08367">
        <ele>251.04</ele>
        <time>2011-09-25T09:11:10Z</time>
      </trkpt>
      <trkpt lat="44.34533" lon="1.08365">
        <ele>251.04</ele>
        <time>2011-09-25T09:11:11Z</time>
      </trkpt>
      <trkpt lat="44.34532" lon="1.08364">
        <ele>251.04</ele>
        <time>2011-09-25T09:11:12Z</time>
      </trkpt>
      <trkpt lat="44.34531" lon="1.08363">
        <ele>251.52</ele>
        <time>2011-09-25T09:11:13Z</time>
      </trkpt>
      <trkpt lat="44.3453" lon="1.08362">
        <ele>251.52</ele>
        <time>2011-09-25T09:11:14Z</time>
      </trkpt>
      <trkpt lat="44.34529" lon="1.08361">
        <ele>251.52</ele>
        <time>2011-09-25T09:11:15Z</time>
      </trkpt>
      <trkpt lat="44.34529" lon="1.08359">
        <ele>251.52</ele>
        <time>2011-09-25T09:11:16Z</time>
      </trkpt>
      <trkpt lat="44.34528" lon="1.08358">
        <ele>252</ele>
        <time>2011-09-25T09:11:17Z</time>
      </trkpt>
      <trkpt lat="44.34527" lon="1.08356">
        <ele>252</ele>
        <time>2011-09-25T09:11:18Z</time>
      </trkpt>
      <trkpt lat="44.34515" lon="1.08335">
        <ele>253.93</ele>
        <time>2011-09-25T09:11:32Z</time>
      </trkpt>
      <trkpt lat="44.34504" lon="1.08316">
        <ele>255.85</ele>
        <time>2011-09-25T09:11:44Z</time>
      </trkpt>
      <trkpt lat="44.34491" lon="1.08292">
        <ele>257.77</ele>
        <time>2011-09-25T09:11:59Z</time>
      </trkpt>
      <trkpt lat="44.34477" lon="1.0828">
        <ele>258.25</ele>
        <time>2011-09-25T09:12:09Z</time>
      </trkpt>
      <trkpt lat="44.34476" lon="1.08278">
        <ele>258.25</ele>
        <time>2011-09-25T09:12:10Z</time>
      </trkpt>
      <trkpt lat="44.34475" lon="1.08276">
        <ele>258.25</ele>
        <time>2011-09-25T09:12:11Z</time>
      </trkpt>
      <trkpt lat="44.34474" lon="1.08274">
        <ele>258.73</ele>
        <time>2011-09-25T09:12:12Z</time>
      </trkpt>
      <trkpt lat="44.34473" lon="1.08272">
        <ele>257.77</ele>
        <time>2011-09-25T09:12:13Z</time>
      </trkpt>
      <trkpt lat="44.34472" lon="1.08269">
        <ele>258.25</ele>
        <time>2011-09-25T09:12:14Z</time>
      </trkpt>
      <trkpt lat="44.34472" lon="1.08266">
        <ele>258.73</ele>
        <time>2011-09-25T09:12:15Z</time>
      </trkpt>
      <trkpt lat="44.34465" lon="1.08232">
        <ele>260.65</ele>
        <time>2011-09-25T09:12:27Z</time>
      </trkpt>
      <trkpt lat="44.3447" lon="1.08195">
        <ele>261.14</ele>
        <time>2011-09-25T09:12:40Z</time>
      </trkpt>
      <trkpt lat="44.345" lon="1.08164">
        <ele>261.62</ele>
        <time>2011-09-25T09:12:52Z</time>
      </trkpt>
      <trkpt lat="44.34528" lon="1.08132">
        <ele>263.06</ele>
        <time>2011-09-25T09:13:03Z</time>
      </trkpt>
      <trkpt lat="44.3453" lon="1.08128">
        <ele>262.58</ele>
        <time>2011-09-25T09:13:04Z</time>
      </trkpt>
      <trkpt lat="44.34532" lon="1.08124">
        <ele>261.62</ele>
        <time>2011-09-25T09:13:05Z</time>
      </trkpt>
      <trkpt lat="44.34535" lon="1.0812">
        <ele>262.1</ele>
        <time>2011-09-25T09:13:06Z</time>
      </trkpt>
      <trkpt lat="44.34537" lon="1.08117">
        <ele>262.58</ele>
        <time>2011-09-25T09:13:07Z</time>
      </trkpt>
      <trkpt lat="44.34568" lon="1.08072">
        <ele>262.58</ele>
        <time>2011-09-25T09:13:21Z</time>
      </trkpt>
      <trkpt lat="44.34593" lon="1.08022">
        <ele>262.1</ele>
        <time>2011-09-25T09:13:33Z</time>
      </trkpt>
      <trkpt lat="44.34604" lon="1.07993">
        <ele>262.1</ele>
        <time>2011-09-25T09:13:39Z</time>
      </trkpt>
      <trkpt lat="44.34603" lon="1.07987">
        <ele>261.62</ele>
        <time>2011-09-25T09:13:40Z</time>
      </trkpt>
      <trkpt lat="44.34601" lon="1.07981">
        <ele>261.14</ele>
        <time>2011-09-25T09:13:41Z</time>
      </trkpt>
      <trkpt lat="44.34598" lon="1.07978">
        <ele>260.65</ele>
        <time>2011-09-25T09:13:42Z</time>
      </trkpt>
      <trkpt lat="44.34594" lon="1.07975">
        <ele>260.65</ele>
        <time>2011-09-25T09:13:43Z</time>
      </trkpt>
      <trkpt lat="44.3459" lon="1.07972">
        <ele>261.14</ele>
        <time>2011-09-25T09:13:44Z</time>
      </trkpt>
      <trkpt lat="44.34525" lon="1.07923">
        <ele>259.69</ele>
        <time>2011-09-25T09:14:01Z</time>
      </trkpt>
      <trkpt lat="44.34494" lon="1.07899">
        <ele>259.69</ele>
        <time>2011-09-25T09:14:09Z</time>
      </trkpt>
      <trkpt lat="44.3444" lon="1.07858">
        <ele>258.73</ele>
        <time>2011-09-25T09:14:24Z</time>
      </trkpt>
      <trkpt lat="44.34385" lon="1.07836">
        <ele>258.25</ele>
        <time>2011-09-25T09:14:37Z</time>
      </trkpt>
      <trkpt lat="44.34335" lon="1.07815">
        <ele>258.25</ele>
        <time>2011-09-25T09:14:50Z</time>
      </trkpt>
      <trkpt lat="44.34315" lon="1.07807">
        <ele>257.77</ele>
        <time>2011-09-25T09:14:55Z</time>
      </trkpt>
      <trkpt lat="44.34301" lon="1.07806">
        <ele>257.77</ele>
        <time>2011-09-25T09:14:58Z</time>
      </trkpt>
      <trkpt lat="44.34298" lon="1.07805">
        <ele>258.25</ele>
        <time>2011-09-25T09:14:59Z</time>
      </trkpt>
      <trkpt lat="44.3426" lon="1.07796">
        <ele>258.73</ele>
        <time>2011-09-25T09:15:09Z</time>
      </trkpt>
      <trkpt lat="44.3424" lon="1.07783">
        <ele>258.73</ele>
        <time>2011-09-25T09:15:14Z</time>
      </trkpt>
      <trkpt lat="44.34228" lon="1.07773">
        <ele>257.77</ele>
        <time>2011-09-25T09:15:17Z</time>
      </trkpt>
      <trkpt lat="44.34191" lon="1.07732">
        <ele>256.33</ele>
        <time>2011-09-25T09:15:26Z</time>
      </trkpt>
      <trkpt lat="44.34178" lon="1.07715">
        <ele>256.33</ele>
        <time>2011-09-25T09:15:29Z</time>
      </trkpt>
      <trkpt lat="44.3413" lon="1.07647">
        <ele>252.96</ele>
        <time>2011-09-25T09:15:39Z</time>
      </trkpt>
      <trkpt lat="44.3409" lon="1.07579">
        <ele>251.52</ele>
        <time>2011-09-25T09:15:48Z</time>
      </trkpt>
      <trkpt lat="44.34052" lon="1.0748">
        <ele>249.6</ele>
        <time>2011-09-25T09:15:59Z</time>
      </trkpt>
      <trkpt lat="44.34051" lon="1.07472">
        <ele>249.6</ele>
        <time>2011-09-25T09:16:00Z</time>
      </trkpt>
      <trkpt lat="44.3405" lon="1.07464">
        <ele>250.56</ele>
        <time>2011-09-25T09:16:01Z</time>
      </trkpt>
      <trkpt lat="44.34048" lon="1.07441">
        <ele>250.56</ele>
        <time>2011-09-25T09:16:04Z</time>
      </trkpt>
      <trkpt lat="44.34047" lon="1.07435">
        <ele>251.04</ele>
        <time>2011-09-25T09:16:05Z</time>
      </trkpt>
      <trkpt lat="44.34046" lon="1.07429">
        <ele>251.04</ele>
        <time>2011-09-25T09:16:06Z</time>
      </trkpt>
      <trkpt lat="44.34045" lon="1.07423">
        <ele>251.52</ele>
        <time>2011-09-25T09:16:07Z</time>
      </trkpt>
      <trkpt lat="44.34044" lon="1.07417">
        <ele>251.52</ele>
        <time>2011-09-25T09:16:08Z</time>
      </trkpt>
      <trkpt lat="44.34042" lon="1.07412">
        <ele>252</ele>
        <time>2011-09-25T09:16:09Z</time>
      </trkpt>
      <trkpt lat="44.34041" lon="1.07406">
        <ele>252.48</ele>
        <time>2011-09-25T09:16:10Z</time>
      </trkpt>
      <trkpt lat="44.34039" lon="1.07402">
        <ele>252.48</ele>
        <time>2011-09-25T09:16:11Z</time>
      </trkpt>
      <trkpt lat="44.34036" lon="1.07399">
        <ele>252.96</ele>
        <time>2011-09-25T09:16:12Z</time>
      </trkpt>
      <trkpt lat="44.34034" lon="1.07396">
        <ele>252.96</ele>
        <time>2011-09-25T09:16:13Z</time>
      </trkpt>
      <trkpt lat="44.3399" lon="1.07357">
        <ele>253.93</ele>
        <time>2011-09-25T09:16:26Z</time>
      </trkpt>
      <trkpt lat="44.33935" lon="1.07297">
        <ele>253.44</ele>
        <time>2011-09-25T09:16:43Z</time>
      </trkpt>
      <trkpt lat="44.33886" lon="1.07246">
        <ele>253.44</ele>
        <time>2011-09-25T09:16:56Z</time>
      </trkpt>
      <trkpt lat="44.33882" lon="1.07242">
        <ele>252.96</ele>
        <time>2011-09-25T09:16:57Z</time>
      </trkpt>
      <trkpt lat="44.33871" lon="1.07229">
        <ele>252.48</ele>
        <time>2011-09-25T09:17:00Z</time>
      </trkpt>
      <trkpt lat="44.33868" lon="1.07224">
        <ele>252.96</ele>
        <time>2011-09-25T09:17:01Z</time>
      </trkpt>
      <trkpt lat="44.33865" lon="1.07218">
        <ele>252.96</ele>
        <time>2011-09-25T09:17:02Z</time>
      </trkpt>
      <trkpt lat="44.33848" lon="1.07175">
        <ele>252.96</ele>
        <time>2011-09-25T09:17:09Z</time>
      </trkpt>
      <trkpt lat="44.33845" lon="1.0717">
        <ele>252.48</ele>
        <time>2011-09-25T09:17:10Z</time>
      </trkpt>
      <trkpt lat="44.33842" lon="1.07164">
        <ele>252.96</ele>
        <time>2011-09-25T09:17:11Z</time>
      </trkpt>
      <trkpt lat="44.3383" lon="1.07142">
        <ele>252.96</ele>
        <time>2011-09-25T09:17:15Z</time>
      </trkpt>
      <trkpt lat="44.33828" lon="1.07135">
        <ele>252.96</ele>
        <time>2011-09-25T09:17:16Z</time>
      </trkpt>
      <trkpt lat="44.33827" lon="1.07128">
        <ele>252.96</ele>
        <time>2011-09-25T09:17:17Z</time>
      </trkpt>
      <trkpt lat="44.3382" lon="1.07088">
        <ele>252.48</ele>
        <time>2011-09-25T09:17:23Z</time>
      </trkpt>
      <trkpt lat="44.3382" lon="1.07082">
        <ele>252.48</ele>
        <time>2011-09-25T09:17:24Z</time>
      </trkpt>
      <trkpt lat="44.33814" lon="1.07056">
        <ele>252</ele>
        <time>2011-09-25T09:17:28Z</time>
      </trkpt>
      <trkpt lat="44.33812" lon="1.0705">
        <ele>252</ele>
        <time>2011-09-25T09:17:29Z</time>
      </trkpt>
      <trkpt lat="44.33785" lon="1.07004">
        <ele>255.37</ele>
        <time>2011-09-25T09:17:41Z</time>
      </trkpt>
      <trkpt lat="44.33753" lon="1.06961">
        <ele>254.41</ele>
        <time>2011-09-25T09:17:53Z</time>
      </trkpt>
      <trkpt lat="44.33736" lon="1.06937">
        <ele>254.89</ele>
        <time>2011-09-25T09:17:59Z</time>
      </trkpt>
      <trkpt lat="44.33693" lon="1.06891">
        <ele>253.44</ele>
        <time>2011-09-25T09:18:11Z</time>
      </trkpt>
      <trkpt lat="44.33643" lon="1.06846">
        <ele>253.93</ele>
        <time>2011-09-25T09:18:25Z</time>
      </trkpt>
      <trkpt lat="44.33605" lon="1.06814">
        <ele>256.33</ele>
        <time>2011-09-25T09:18:40Z</time>
      </trkpt>
      <trkpt lat="44.3357" lon="1.06787">
        <ele>258.25</ele>
        <time>2011-09-25T09:18:56Z</time>
      </trkpt>
      <trkpt lat="44.33534" lon="1.06774">
        <ele>260.65</ele>
        <time>2011-09-25T09:19:12Z</time>
      </trkpt>
      <trkpt lat="44.33494" lon="1.06756">
        <ele>259.21</ele>
        <time>2011-09-25T09:19:26Z</time>
      </trkpt>
      <trkpt lat="44.3345" lon="1.06733">
        <ele>257.77</ele>
        <time>2011-09-25T09:19:40Z</time>
      </trkpt>
      <trkpt lat="44.33404" lon="1.06701">
        <ele>257.29</ele>
        <time>2011-09-25T09:19:55Z</time>
      </trkpt>
      <trkpt lat="44.33385" lon="1.06652">
        <ele>256.81</ele>
        <time>2011-09-25T09:20:06Z</time>
      </trkpt>
      <trkpt lat="44.33363" lon="1.06568">
        <ele>256.33</ele>
        <time>2011-09-25T09:20:20Z</time>
      </trkpt>
      <trkpt lat="44.33358" lon="1.06522">
        <ele>255.85</ele>
        <time>2011-09-25T09:20:27Z</time>
      </trkpt>
      <trkpt lat="44.33357" lon="1.06515">
        <ele>256.33</ele>
        <time>2011-09-25T09:20:28Z</time>
      </trkpt>
      <trkpt lat="44.33355" lon="1.06491">
        <ele>255.85</ele>
        <time>2011-09-25T09:20:32Z</time>
      </trkpt>
      <trkpt lat="44.33356" lon="1.06484">
        <ele>255.85</ele>
        <time>2011-09-25T09:20:33Z</time>
      </trkpt>
      <trkpt lat="44.33355" lon="1.06478">
        <ele>255.85</ele>
        <time>2011-09-25T09:20:34Z</time>
      </trkpt>
      <trkpt lat="44.33354" lon="1.06472">
        <ele>255.85</ele>
        <time>2011-09-25T09:20:35Z</time>
      </trkpt>
      <trkpt lat="44.33353" lon="1.06466">
        <ele>255.85</ele>
        <time>2011-09-25T09:20:36Z</time>
      </trkpt>
      <trkpt lat="44.33343" lon="1.0638">
        <ele>255.85</ele>
        <time>2011-09-25T09:20:51Z</time>
      </trkpt>
      <trkpt lat="44.33337" lon="1.06303">
        <ele>257.29</ele>
        <time>2011-09-25T09:21:06Z</time>
      </trkpt>
      <trkpt lat="44.3334" lon="1.06244">
        <ele>257.77</ele>
        <time>2011-09-25T09:21:19Z</time>
      </trkpt>
      <trkpt lat="44.3335" lon="1.06167">
        <ele>256.81</ele>
        <time>2011-09-25T09:21:32Z</time>
      </trkpt>
      <trkpt lat="44.33353" lon="1.06161">
        <ele>256.81</ele>
        <time>2011-09-25T09:21:33Z</time>
      </trkpt>
      <trkpt lat="44.33359" lon="1.06148">
        <ele>256.33</ele>
        <time>2011-09-25T09:21:35Z</time>
      </trkpt>
      <trkpt lat="44.33362" lon="1.06142">
        <ele>256.33</ele>
        <time>2011-09-25T09:21:36Z</time>
      </trkpt>
      <trkpt lat="44.33365" lon="1.06136">
        <ele>256.33</ele>
        <time>2011-09-25T09:21:37Z</time>
      </trkpt>
      <trkpt lat="44.33387" lon="1.06083">
        <ele>255.37</ele>
        <time>2011-09-25T09:21:45Z</time>
      </trkpt>
      <trkpt lat="44.33416" lon="1.05993">
        <ele>254.89</ele>
        <time>2011-09-25T09:22:00Z</time>
      </trkpt>
      <trkpt lat="44.33419" lon="1.0598">
        <ele>255.85</ele>
        <time>2011-09-25T09:22:02Z</time>
      </trkpt>
      <trkpt lat="44.33455" lon="1.05894">
        <ele>255.85</ele>
        <time>2011-09-25T09:22:18Z</time>
      </trkpt>
      <trkpt lat="44.3348" lon="1.0583">
        <ele>253.93</ele>
        <time>2011-09-25T09:22:28Z</time>
      </trkpt>
      <trkpt lat="44.33482" lon="1.05824">
        <ele>253.93</ele>
        <time>2011-09-25T09:22:29Z</time>
      </trkpt>
      <trkpt lat="44.33513" lon="1.05734">
        <ele>253.44</ele>
        <time>2011-09-25T09:22:43Z</time>
      </trkpt>
      <trkpt lat="44.33534" lon="1.05676">
        <ele>253.93</ele>
        <time>2011-09-25T09:22:52Z</time>
      </trkpt>
      <trkpt lat="44.33535" lon="1.05668">
        <ele>253.93</ele>
        <time>2011-09-25T09:22:53Z</time>
      </trkpt>
      <trkpt lat="44.33548" lon="1.05604">
        <ele>252</ele>
        <time>2011-09-25T09:23:01Z</time>
      </trkpt>
      <trkpt lat="44.33551" lon="1.05578">
        <ele>252</ele>
        <time>2011-09-25T09:23:04Z</time>
      </trkpt>
      <trkpt lat="44.33554" lon="1.05513">
        <ele>252.96</ele>
        <time>2011-09-25T09:23:12Z</time>
      </trkpt>
      <trkpt lat="44.33555" lon="1.05505">
        <ele>252.96</ele>
        <time>2011-09-25T09:23:13Z</time>
      </trkpt>
      <trkpt lat="44.33555" lon="1.05497">
        <ele>252.48</ele>
        <time>2011-09-25T09:23:14Z</time>
      </trkpt>
      <trkpt lat="44.33565" lon="1.05385">
        <ele>251.52</ele>
        <time>2011-09-25T09:23:28Z</time>
      </trkpt>
      <trkpt lat="44.33572" lon="1.05352">
        <ele>251.52</ele>
        <time>2011-09-25T09:23:32Z</time>
      </trkpt>
      <trkpt lat="44.33611" lon="1.05268">
        <ele>252</ele>
        <time>2011-09-25T09:23:45Z</time>
      </trkpt>
      <trkpt lat="44.33645" lon="1.05187">
        <ele>251.52</ele>
        <time>2011-09-25T09:23:58Z</time>
      </trkpt>
      <trkpt lat="44.33664" lon="1.05088">
        <ele>250.08</ele>
        <time>2011-09-25T09:24:11Z</time>
      </trkpt>
      <trkpt lat="44.33665" lon="1.0507">
        <ele>249.6</ele>
        <time>2011-09-25T09:24:13Z</time>
      </trkpt>
      <trkpt lat="44.33664" lon="1.05045">
        <ele>249.6</ele>
        <time>2011-09-25T09:24:16Z</time>
      </trkpt>
      <trkpt lat="44.33662" lon="1.04982">
        <ele>248.64</ele>
        <time>2011-09-25T09:24:23Z</time>
      </trkpt>
      <trkpt lat="44.33664" lon="1.04934">
        <ele>249.12</ele>
        <time>2011-09-25T09:24:29Z</time>
      </trkpt>
      <trkpt lat="44.33662" lon="1.04927">
        <ele>248.64</ele>
        <time>2011-09-25T09:24:30Z</time>
      </trkpt>
      <trkpt lat="44.33659" lon="1.04922">
        <ele>248.64</ele>
        <time>2011-09-25T09:24:31Z</time>
      </trkpt>
      <trkpt lat="44.33652" lon="1.04912">
        <ele>248.64</ele>
        <time>2011-09-25T09:24:33Z</time>
      </trkpt>
      <trkpt lat="44.33648" lon="1.04907">
        <ele>248.16</ele>
        <time>2011-09-25T09:24:34Z</time>
      </trkpt>
      <trkpt lat="44.33644" lon="1.04902">
        <ele>247.68</ele>
        <time>2011-09-25T09:24:35Z</time>
      </trkpt>
      <trkpt lat="44.33635" lon="1.04892">
        <ele>248.16</ele>
        <time>2011-09-25T09:24:37Z</time>
      </trkpt>
      <trkpt lat="44.3363" lon="1.04888">
        <ele>247.68</ele>
        <time>2011-09-25T09:24:38Z</time>
      </trkpt>
      <trkpt lat="44.33626" lon="1.04884">
        <ele>246.72</ele>
        <time>2011-09-25T09:24:39Z</time>
      </trkpt>
      <trkpt lat="44.33611" lon="1.04869">
        <ele>245.75</ele>
        <time>2011-09-25T09:24:43Z</time>
      </trkpt>
      <trkpt lat="44.33611" lon="1.04863">
        <ele>244.79</ele>
        <time>2011-09-25T09:24:44Z</time>
      </trkpt>
      <trkpt lat="44.33612" lon="1.04856">
        <ele>243.83</ele>
        <time>2011-09-25T09:24:45Z</time>
      </trkpt>
      <trkpt lat="44.33614" lon="1.04849">
        <ele>243.83</ele>
        <time>2011-09-25T09:24:46Z</time>
      </trkpt>
      <trkpt lat="44.33616" lon="1.04843">
        <ele>243.83</ele>
        <time>2011-09-25T09:24:47Z</time>
      </trkpt>
      <trkpt lat="44.3362" lon="1.04819">
        <ele>243.83</ele>
        <time>2011-09-25T09:24:51Z</time>
      </trkpt>
      <trkpt lat="44.33621" lon="1.04812">
        <ele>243.35</ele>
        <time>2011-09-25T09:24:52Z</time>
      </trkpt>
      <trkpt lat="44.33621" lon="1.04791">
        <ele>242.39</ele>
        <time>2011-09-25T09:24:55Z</time>
      </trkpt>
      <trkpt lat="44.33619" lon="1.04784">
        <ele>241.91</ele>
        <time>2011-09-25T09:24:56Z</time>
      </trkpt>
      <trkpt lat="44.33617" lon="1.04778">
        <ele>241.43</ele>
        <time>2011-09-25T09:24:57Z</time>
      </trkpt>
      <trkpt lat="44.33614" lon="1.04774">
        <ele>240.95</ele>
        <time>2011-09-25T09:24:58Z</time>
      </trkpt>
      <trkpt lat="44.3361" lon="1.04771">
        <ele>240.47</ele>
        <time>2011-09-25T09:24:59Z</time>
      </trkpt>
      <trkpt lat="44.33605" lon="1.04767">
        <ele>239.99</ele>
        <time>2011-09-25T09:25:00Z</time>
      </trkpt>
      <trkpt lat="44.336" lon="1.04764">
        <ele>239.02</ele>
        <time>2011-09-25T09:25:01Z</time>
      </trkpt>
      <trkpt lat="44.33594" lon="1.04761">
        <ele>239.02</ele>
        <time>2011-09-25T09:25:02Z</time>
      </trkpt>
      <trkpt lat="44.33588" lon="1.04757">
        <ele>238.06</ele>
        <time>2011-09-25T09:25:03Z</time>
      </trkpt>
      <trkpt lat="44.33567" lon="1.04743">
        <ele>237.1</ele>
        <time>2011-09-25T09:25:07Z</time>
      </trkpt>
      <trkpt lat="44.33563" lon="1.04738">
        <ele>236.62</ele>
        <time>2011-09-25T09:25:08Z</time>
      </trkpt>
      <trkpt lat="44.33553" lon="1.0472">
        <ele>234.7</ele>
        <time>2011-09-25T09:25:11Z</time>
      </trkpt>
      <trkpt lat="44.33549" lon="1.04716">
        <ele>234.22</ele>
        <time>2011-09-25T09:25:12Z</time>
      </trkpt>
      <trkpt lat="44.33545" lon="1.04712">
        <ele>233.74</ele>
        <time>2011-09-25T09:25:13Z</time>
      </trkpt>
      <trkpt lat="44.33542" lon="1.04708">
        <ele>232.78</ele>
        <time>2011-09-25T09:25:14Z</time>
      </trkpt>
      <trkpt lat="44.33538" lon="1.04703">
        <ele>232.3</ele>
        <time>2011-09-25T09:25:15Z</time>
      </trkpt>
      <trkpt lat="44.33536" lon="1.04697">
        <ele>231.33</ele>
        <time>2011-09-25T09:25:16Z</time>
      </trkpt>
      <trkpt lat="44.33535" lon="1.04692">
        <ele>231.81</ele>
        <time>2011-09-25T09:25:17Z</time>
      </trkpt>
      <trkpt lat="44.33534" lon="1.04686">
        <ele>231.33</ele>
        <time>2011-09-25T09:25:18Z</time>
      </trkpt>
      <trkpt lat="44.33533" lon="1.04675">
        <ele>229.41</ele>
        <time>2011-09-25T09:25:20Z</time>
      </trkpt>
      <trkpt lat="44.3353" lon="1.04659">
        <ele>227.49</ele>
        <time>2011-09-25T09:25:22Z</time>
      </trkpt>
      <trkpt lat="44.33528" lon="1.04652">
        <ele>226.53</ele>
        <time>2011-09-25T09:25:23Z</time>
      </trkpt>
      <trkpt lat="44.33525" lon="1.04648">
        <ele>226.05</ele>
        <time>2011-09-25T09:25:24Z</time>
      </trkpt>
      <trkpt lat="44.33522" lon="1.04646">
        <ele>226.05</ele>
        <time>2011-09-25T09:25:25Z</time>
      </trkpt>
      <trkpt lat="44.33522" lon="1.04646">
        <ele>226.05</ele>
        <time>2011-09-25T09:25:29Z</time>
      </trkpt>
      <trkpt lat="44.33524" lon="1.04646">
        <ele>226.53</ele>
        <time>2011-09-25T09:25:31Z</time>
      </trkpt>
      <trkpt lat="44.33525" lon="1.04646">
        <ele>226.53</ele>
        <time>2011-09-25T09:25:32Z</time>
      </trkpt>
      <trkpt lat="44.33526" lon="1.04645">
        <ele>227.49</ele>
        <time>2011-09-25T09:25:33Z</time>
      </trkpt>
      <trkpt lat="44.33526" lon="1.04642">
        <ele>227.49</ele>
        <time>2011-09-25T09:25:43Z</time>
      </trkpt>
      <trkpt lat="44.33524" lon="1.04635">
        <ele>227.49</ele>
        <time>2011-09-25T09:25:58Z</time>
      </trkpt>
      <trkpt lat="44.33521" lon="1.04633">
        <ele>227.49</ele>
        <time>2011-09-25T09:26:10Z</time>
      </trkpt>
      <trkpt lat="44.33521" lon="1.04632">
        <ele>227.01</ele>
        <time>2011-09-25T09:26:26Z</time>
      </trkpt>
      <trkpt lat="44.33516" lon="1.04625">
        <ele>227.01</ele>
        <time>2011-09-25T09:26:34Z</time>
      </trkpt>
      <trkpt lat="44.33506" lon="1.04617">
        <ele>228.45</ele>
        <time>2011-09-25T09:26:49Z</time>
      </trkpt>
      <trkpt lat="44.335" lon="1.04612">
        <ele>228.45</ele>
        <time>2011-09-25T09:27:03Z</time>
      </trkpt>
      <trkpt lat="44.33494" lon="1.046">
        <ele>229.41</ele>
        <time>2011-09-25T09:27:17Z</time>
      </trkpt>
      <trkpt lat="44.33498" lon="1.04591">
        <ele>230.37</ele>
        <time>2011-09-25T09:27:33Z</time>
      </trkpt>
      <trkpt lat="44.33499" lon="1.04591">
        <ele>230.85</ele>
        <time>2011-09-25T09:27:48Z</time>
      </trkpt>
      <trkpt lat="44.335" lon="1.04591">
        <ele>230.37</ele>
        <time>2011-09-25T09:28:17Z</time>
      </trkpt>
      <trkpt lat="44.33502" lon="1.04593">
        <ele>230.37</ele>
        <time>2011-09-25T09:28:28Z</time>
      </trkpt>
      <trkpt lat="44.33503" lon="1.04594">
        <ele>230.85</ele>
        <time>2011-09-25T09:28:42Z</time>
      </trkpt>
      <trkpt lat="44.33506" lon="1.04596">
        <ele>231.33</ele>
        <time>2011-09-25T09:28:50Z</time>
      </trkpt>
      <trkpt lat="44.33528" lon="1.04605">
        <ele>233.26</ele>
        <time>2011-09-25T09:29:05Z</time>
      </trkpt>
      <trkpt lat="44.3355" lon="1.04612">
        <ele>235.18</ele>
        <time>2011-09-25T09:29:20Z</time>
      </trkpt>
      <trkpt lat="44.33569" lon="1.04618">
        <ele>236.62</ele>
        <time>2011-09-25T09:29:33Z</time>
      </trkpt>
      <trkpt lat="44.33586" lon="1.04617">
        <ele>237.1</ele>
        <time>2011-09-25T09:29:44Z</time>
      </trkpt>
      <trkpt lat="44.33603" lon="1.04621">
        <ele>238.54</ele>
        <time>2011-09-25T09:29:56Z</time>
      </trkpt>
      <trkpt lat="44.33622" lon="1.04623">
        <ele>240.95</ele>
        <time>2011-09-25T09:30:08Z</time>
      </trkpt>
      <trkpt lat="44.33624" lon="1.04623">
        <ele>240.95</ele>
        <time>2011-09-25T09:30:10Z</time>
      </trkpt>
      <trkpt lat="44.33627" lon="1.04627">
        <ele>240.95</ele>
        <time>2011-09-25T09:30:13Z</time>
      </trkpt>
      <trkpt lat="44.33635" lon="1.04631">
        <ele>242.39</ele>
        <time>2011-09-25T09:30:25Z</time>
      </trkpt>
      <trkpt lat="44.3364" lon="1.04632">
        <ele>242.87</ele>
        <time>2011-09-25T09:30:29Z</time>
      </trkpt>
      <trkpt lat="44.33643" lon="1.0463">
        <ele>243.83</ele>
        <time>2011-09-25T09:30:32Z</time>
      </trkpt>
      <trkpt lat="44.33645" lon="1.04615">
        <ele>243.35</ele>
        <time>2011-09-25T09:30:38Z</time>
      </trkpt>
      <trkpt lat="44.33654" lon="1.04595">
        <ele>243.83</ele>
        <time>2011-09-25T09:30:46Z</time>
      </trkpt>
      <trkpt lat="44.33658" lon="1.04565">
        <ele>243.83</ele>
        <time>2011-09-25T09:30:56Z</time>
      </trkpt>
      <trkpt lat="44.33641" lon="1.04561">
        <ele>242.39</ele>
        <time>2011-09-25T09:31:03Z</time>
      </trkpt>
      <trkpt lat="44.33632" lon="1.04543">
        <ele>240.47</ele>
        <time>2011-09-25T09:31:08Z</time>
      </trkpt>
      <trkpt lat="44.33627" lon="1.0451">
        <ele>238.54</ele>
        <time>2011-09-25T09:31:13Z</time>
      </trkpt>
      <trkpt lat="44.33619" lon="1.04487">
        <ele>237.1</ele>
        <time>2011-09-25T09:31:16Z</time>
      </trkpt>
      <trkpt lat="44.33616" lon="1.04479">
        <ele>236.62</ele>
        <time>2011-09-25T09:31:17Z</time>
      </trkpt>
      <trkpt lat="44.33611" lon="1.04423">
        <ele>238.06</ele>
        <time>2011-09-25T09:31:27Z</time>
      </trkpt>
      <trkpt lat="44.3361" lon="1.04411">
        <ele>238.06</ele>
        <time>2011-09-25T09:31:30Z</time>
      </trkpt>
      <trkpt lat="44.33627" lon="1.04404">
        <ele>240.95</ele>
        <time>2011-09-25T09:31:39Z</time>
      </trkpt>
      <trkpt lat="44.33637" lon="1.04395">
        <ele>241.43</ele>
        <time>2011-09-25T09:31:47Z</time>
      </trkpt>
      <trkpt lat="44.33654" lon="1.04389">
        <ele>242.87</ele>
        <time>2011-09-25T09:31:56Z</time>
      </trkpt>
      <trkpt lat="44.33656" lon="1.04389">
        <ele>242.87</ele>
        <time>2011-09-25T09:31:57Z</time>
      </trkpt>
      <trkpt lat="44.33661" lon="1.04389">
        <ele>242.87</ele>
        <time>2011-09-25T09:32:00Z</time>
      </trkpt>
      <trkpt lat="44.33672" lon="1.04378">
        <ele>242.87</ele>
        <time>2011-09-25T09:32:06Z</time>
      </trkpt>
      <trkpt lat="44.33693" lon="1.04356">
        <ele>242.87</ele>
        <time>2011-09-25T09:32:15Z</time>
      </trkpt>
      <trkpt lat="44.33695" lon="1.04339">
        <ele>242.39</ele>
        <time>2011-09-25T09:32:20Z</time>
      </trkpt>
      <trkpt lat="44.33677" lon="1.04301">
        <ele>241.91</ele>
        <time>2011-09-25T09:32:30Z</time>
      </trkpt>
      <trkpt lat="44.33674" lon="1.04297">
        <ele>241.43</ele>
        <time>2011-09-25T09:32:31Z</time>
      </trkpt>
      <trkpt lat="44.33653" lon="1.04286">
        <ele>240.47</ele>
        <time>2011-09-25T09:32:39Z</time>
      </trkpt>
      <trkpt lat="44.33643" lon="1.04295">
        <ele>240.95</ele>
        <time>2011-09-25T09:32:43Z</time>
      </trkpt>
      <trkpt lat="44.33616" lon="1.04305">
        <ele>239.51</ele>
        <time>2011-09-25T09:32:51Z</time>
      </trkpt>
      <trkpt lat="44.33611" lon="1.043">
        <ele>239.02</ele>
        <time>2011-09-25T09:32:55Z</time>
      </trkpt>
      <trkpt lat="44.33602" lon="1.04282">
        <ele>236.62</ele>
        <time>2011-09-25T09:33:01Z</time>
      </trkpt>
      <trkpt lat="44.33594" lon="1.04265">
        <ele>235.66</ele>
        <time>2011-09-25T09:33:05Z</time>
      </trkpt>
      <trkpt lat="44.33589" lon="1.04239">
        <ele>234.22</ele>
        <time>2011-09-25T09:33:09Z</time>
      </trkpt>
      <trkpt lat="44.33584" lon="1.0422">
        <ele>233.26</ele>
        <time>2011-09-25T09:33:12Z</time>
      </trkpt>
      <trkpt lat="44.3358" lon="1.04184">
        <ele>232.3</ele>
        <time>2011-09-25T09:33:21Z</time>
      </trkpt>
      <trkpt lat="44.33573" lon="1.04173">
        <ele>232.78</ele>
        <time>2011-09-25T09:33:25Z</time>
      </trkpt>
      <trkpt lat="44.3357" lon="1.0416">
        <ele>232.3</ele>
        <time>2011-09-25T09:33:31Z</time>
      </trkpt>
      <trkpt lat="44.33585" lon="1.04148">
        <ele>230.85</ele>
        <time>2011-09-25T09:33:36Z</time>
      </trkpt>
      <trkpt lat="44.33594" lon="1.04143">
        <ele>229.89</ele>
        <time>2011-09-25T09:33:38Z</time>
      </trkpt>
      <trkpt lat="44.33604" lon="1.0414">
        <ele>228.93</ele>
        <time>2011-09-25T09:33:40Z</time>
      </trkpt>
      <trkpt lat="44.33615" lon="1.04138">
        <ele>227.97</ele>
        <time>2011-09-25T09:33:42Z</time>
      </trkpt>
      <trkpt lat="44.3362" lon="1.04137">
        <ele>227.97</ele>
        <time>2011-09-25T09:33:43Z</time>
      </trkpt>
      <trkpt lat="44.3363" lon="1.04137">
        <ele>227.49</ele>
        <time>2011-09-25T09:33:45Z</time>
      </trkpt>
      <trkpt lat="44.33635" lon="1.04136">
        <ele>226.53</ele>
        <time>2011-09-25T09:33:46Z</time>
      </trkpt>
      <trkpt lat="44.33643" lon="1.04135">
        <ele>227.01</ele>
        <time>2011-09-25T09:33:48Z</time>
      </trkpt>
      <trkpt lat="44.33648" lon="1.04134">
        <ele>226.53</ele>
        <time>2011-09-25T09:33:49Z</time>
      </trkpt>
      <trkpt lat="44.33653" lon="1.04135">
        <ele>226.05</ele>
        <time>2011-09-25T09:33:50Z</time>
      </trkpt>
      <trkpt lat="44.33658" lon="1.04134">
        <ele>226.05</ele>
        <time>2011-09-25T09:33:51Z</time>
      </trkpt>
      <trkpt lat="44.33664" lon="1.04132">
        <ele>225.57</ele>
        <time>2011-09-25T09:33:52Z</time>
      </trkpt>
      <trkpt lat="44.33668" lon="1.04129">
        <ele>226.53</ele>
        <time>2011-09-25T09:33:53Z</time>
      </trkpt>
      <trkpt lat="44.33671" lon="1.04127">
        <ele>226.53</ele>
        <time>2011-09-25T09:33:54Z</time>
      </trkpt>
      <trkpt lat="44.33673" lon="1.04126">
        <ele>227.01</ele>
        <time>2011-09-25T09:33:55Z</time>
      </trkpt>
      <trkpt lat="44.33675" lon="1.04126">
        <ele>227.01</ele>
        <time>2011-09-25T09:33:56Z</time>
      </trkpt>
      <trkpt lat="44.33676" lon="1.04127">
        <ele>227.49</ele>
        <time>2011-09-25T09:33:57Z</time>
      </trkpt>
      <trkpt lat="44.33677" lon="1.04128">
        <ele>227.01</ele>
        <time>2011-09-25T09:33:58Z</time>
      </trkpt>
      <trkpt lat="44.33678" lon="1.04129">
        <ele>227.97</ele>
        <time>2011-09-25T09:33:59Z</time>
      </trkpt>
      <trkpt lat="44.33679" lon="1.04131">
        <ele>227.49</ele>
        <time>2011-09-25T09:34:00Z</time>
      </trkpt>
      <trkpt lat="44.3368" lon="1.04133">
        <ele>227.97</ele>
        <time>2011-09-25T09:34:01Z</time>
      </trkpt>
      <trkpt lat="44.33681" lon="1.04135">
        <ele>227.97</ele>
        <time>2011-09-25T09:34:02Z</time>
      </trkpt>
      <trkpt lat="44.33682" lon="1.04137">
        <ele>227.97</ele>
        <time>2011-09-25T09:34:03Z</time>
      </trkpt>
      <trkpt lat="44.33683" lon="1.04139">
        <ele>228.45</ele>
        <time>2011-09-25T09:34:04Z</time>
      </trkpt>
      <trkpt lat="44.33693" lon="1.04154">
        <ele>229.89</ele>
        <time>2011-09-25T09:34:11Z</time>
      </trkpt>
      <trkpt lat="44.33695" lon="1.04155">
        <ele>230.37</ele>
        <time>2011-09-25T09:34:12Z</time>
      </trkpt>
      <trkpt lat="44.33697" lon="1.04155">
        <ele>230.85</ele>
        <time>2011-09-25T09:34:13Z</time>
      </trkpt>
      <trkpt lat="44.33699" lon="1.04155">
        <ele>230.85</ele>
        <time>2011-09-25T09:34:14Z</time>
      </trkpt>
      <trkpt lat="44.33701" lon="1.04154">
        <ele>230.85</ele>
        <time>2011-09-25T09:34:15Z</time>
      </trkpt>
      <trkpt lat="44.33717" lon="1.04143">
        <ele>234.7</ele>
        <time>2011-09-25T09:34:27Z</time>
      </trkpt>
      <trkpt lat="44.33733" lon="1.04111">
        <ele>236.14</ele>
        <time>2011-09-25T09:34:45Z</time>
      </trkpt>
      <trkpt lat="44.33753" lon="1.04066">
        <ele>236.14</ele>
        <time>2011-09-25T09:35:03Z</time>
      </trkpt>
      <trkpt lat="44.33766" lon="1.04024">
        <ele>236.62</ele>
        <time>2011-09-25T09:35:16Z</time>
      </trkpt>
      <trkpt lat="44.33789" lon="1.04002">
        <ele>237.58</ele>
        <time>2011-09-25T09:35:29Z</time>
      </trkpt>
      <trkpt lat="44.33817" lon="1.03992">
        <ele>237.1</ele>
        <time>2011-09-25T09:35:41Z</time>
      </trkpt>
      <trkpt lat="44.33848" lon="1.03972">
        <ele>235.18</ele>
        <time>2011-09-25T09:35:53Z</time>
      </trkpt>
      <trkpt lat="44.33855" lon="1.0397">
        <ele>234.7</ele>
        <time>2011-09-25T09:35:55Z</time>
      </trkpt>
      <trkpt lat="44.33859" lon="1.03972">
        <ele>234.22</ele>
        <time>2011-09-25T09:35:56Z</time>
      </trkpt>
      <trkpt lat="44.33881" lon="1.03991">
        <ele>234.22</ele>
        <time>2011-09-25T09:36:03Z</time>
      </trkpt>
      <trkpt lat="44.33892" lon="1.04007">
        <ele>233.74</ele>
        <time>2011-09-25T09:36:07Z</time>
      </trkpt>
      <trkpt lat="44.33896" lon="1.0401">
        <ele>233.74</ele>
        <time>2011-09-25T09:36:08Z</time>
      </trkpt>
      <trkpt lat="44.33913" lon="1.04025">
        <ele>232.3</ele>
        <time>2011-09-25T09:36:12Z</time>
      </trkpt>
      <trkpt lat="44.33917" lon="1.0403">
        <ele>231.81</ele>
        <time>2011-09-25T09:36:13Z</time>
      </trkpt>
      <trkpt lat="44.33931" lon="1.04058">
        <ele>233.26</ele>
        <time>2011-09-25T09:36:21Z</time>
      </trkpt>
      <trkpt lat="44.33939" lon="1.04077">
        <ele>235.66</ele>
        <time>2011-09-25T09:36:29Z</time>
      </trkpt>
      <trkpt lat="44.3394" lon="1.04079">
        <ele>235.18</ele>
        <time>2011-09-25T09:36:30Z</time>
      </trkpt>
      <trkpt lat="44.33941" lon="1.04082">
        <ele>235.66</ele>
        <time>2011-09-25T09:36:31Z</time>
      </trkpt>
      <trkpt lat="44.33941" lon="1.04084">
        <ele>235.66</ele>
        <time>2011-09-25T09:36:32Z</time>
      </trkpt>
      <trkpt lat="44.33942" lon="1.04087">
        <ele>236.14</ele>
        <time>2011-09-25T09:36:33Z</time>
      </trkpt>
      <trkpt lat="44.33943" lon="1.04089">
        <ele>236.14</ele>
        <time>2011-09-25T09:36:34Z</time>
      </trkpt>
      <trkpt lat="44.33944" lon="1.04091">
        <ele>236.14</ele>
        <time>2011-09-25T09:36:35Z</time>
      </trkpt>
      <trkpt lat="44.33946" lon="1.04094">
        <ele>236.62</ele>
        <time>2011-09-25T09:36:36Z</time>
      </trkpt>
      <trkpt lat="44.33946" lon="1.04096">
        <ele>236.62</ele>
        <time>2011-09-25T09:36:37Z</time>
      </trkpt>
      <trkpt lat="44.33947" lon="1.04099">
        <ele>237.1</ele>
        <time>2011-09-25T09:36:38Z</time>
      </trkpt>
      <trkpt lat="44.33951" lon="1.0411">
        <ele>238.06</ele>
        <time>2011-09-25T09:36:44Z</time>
      </trkpt>
      <trkpt lat="44.33951" lon="1.04113">
        <ele>238.06</ele>
        <time>2011-09-25T09:36:45Z</time>
      </trkpt>
      <trkpt lat="44.33952" lon="1.04116">
        <ele>238.54</ele>
        <time>2011-09-25T09:36:47Z</time>
      </trkpt>
      <trkpt lat="44.33953" lon="1.0412">
        <ele>239.02</ele>
        <time>2011-09-25T09:36:49Z</time>
      </trkpt>
      <trkpt lat="44.33954" lon="1.04123">
        <ele>239.51</ele>
        <time>2011-09-25T09:36:51Z</time>
      </trkpt>
      <trkpt lat="44.33955" lon="1.04124">
        <ele>239.51</ele>
        <time>2011-09-25T09:36:52Z</time>
      </trkpt>
      <trkpt lat="44.33956" lon="1.04125">
        <ele>239.51</ele>
        <time>2011-09-25T09:36:53Z</time>
      </trkpt>
      <trkpt lat="44.33957" lon="1.04127">
        <ele>239.99</ele>
        <time>2011-09-25T09:36:54Z</time>
      </trkpt>
      <trkpt lat="44.33958" lon="1.04129">
        <ele>239.99</ele>
        <time>2011-09-25T09:36:55Z</time>
      </trkpt>
      <trkpt lat="44.33962" lon="1.04146">
        <ele>241.91</ele>
        <time>2011-09-25T09:37:04Z</time>
      </trkpt>
      <trkpt lat="44.33965" lon="1.04151">
        <ele>242.39</ele>
        <time>2011-09-25T09:37:08Z</time>
      </trkpt>
      <trkpt lat="44.33973" lon="1.0415">
        <ele>242.87</ele>
        <time>2011-09-25T09:37:15Z</time>
      </trkpt>
      <trkpt lat="44.33981" lon="1.04137">
        <ele>242.87</ele>
        <time>2011-09-25T09:37:23Z</time>
      </trkpt>
      <trkpt lat="44.33982" lon="1.04136">
        <ele>242.87</ele>
        <time>2011-09-25T09:37:24Z</time>
      </trkpt>
      <trkpt lat="44.33983" lon="1.04134">
        <ele>242.87</ele>
        <time>2011-09-25T09:37:25Z</time>
      </trkpt>
      <trkpt lat="44.33994" lon="1.04117">
        <ele>245.75</ele>
        <time>2011-09-25T09:37:35Z</time>
      </trkpt>
      <trkpt lat="44.33995" lon="1.04115">
        <ele>245.75</ele>
        <time>2011-09-25T09:37:36Z</time>
      </trkpt>
      <trkpt lat="44.33997" lon="1.04113">
        <ele>245.27</ele>
        <time>2011-09-25T09:37:37Z</time>
      </trkpt>
      <trkpt lat="44.33999" lon="1.0411">
        <ele>245.75</ele>
        <time>2011-09-25T09:37:38Z</time>
      </trkpt>
      <trkpt lat="44.34" lon="1.04107">
        <ele>245.27</ele>
        <time>2011-09-25T09:37:39Z</time>
      </trkpt>
      <trkpt lat="44.34002" lon="1.04104">
        <ele>245.27</ele>
        <time>2011-09-25T09:37:40Z</time>
      </trkpt>
      <trkpt lat="44.34003" lon="1.04102">
        <ele>244.79</ele>
        <time>2011-09-25T09:37:41Z</time>
      </trkpt>
      <trkpt lat="44.34005" lon="1.041">
        <ele>245.27</ele>
        <time>2011-09-25T09:37:42Z</time>
      </trkpt>
      <trkpt lat="44.34008" lon="1.04099">
        <ele>245.27</ele>
        <time>2011-09-25T09:37:43Z</time>
      </trkpt>
      <trkpt lat="44.3401" lon="1.04098">
        <ele>245.27</ele>
        <time>2011-09-25T09:37:44Z</time>
      </trkpt>
      <trkpt lat="44.34012" lon="1.04097">
        <ele>245.27</ele>
        <time>2011-09-25T09:37:45Z</time>
      </trkpt>
      <trkpt lat="44.34041" lon="1.04098">
        <ele>247.2</ele>
        <time>2011-09-25T09:38:00Z</time>
      </trkpt>
      <trkpt lat="44.34073" lon="1.04101">
        <ele>248.16</ele>
        <time>2011-09-25T09:38:17Z</time>
      </trkpt>
      <trkpt lat="44.34105" lon="1.04102">
        <ele>250.08</ele>
        <time>2011-09-25T09:38:35Z</time>
      </trkpt>
      <trkpt lat="44.34114" lon="1.04068">
        <ele>248.64</ele>
        <time>2011-09-25T09:38:47Z</time>
      </trkpt>
      <trkpt lat="44.34116" lon="1.04004">
        <ele>247.68</ele>
        <time>2011-09-25T09:39:01Z</time>
      </trkpt>
      <trkpt lat="44.34121" lon="1.03913">
        <ele>247.2</ele>
        <time>2011-09-25T09:39:20Z</time>
      </trkpt>
      <trkpt lat="44.34108" lon="1.03892">
        <ele>246.72</ele>
        <time>2011-09-25T09:39:25Z</time>
      </trkpt>
      <trkpt lat="44.3409" lon="1.03847">
        <ele>246.23</ele>
        <time>2011-09-25T09:39:34Z</time>
      </trkpt>
      <trkpt lat="44.34087" lon="1.03842">
        <ele>246.72</ele>
        <time>2011-09-25T09:39:35Z</time>
      </trkpt>
      <trkpt lat="44.34081" lon="1.03834">
        <ele>246.23</ele>
        <time>2011-09-25T09:39:37Z</time>
      </trkpt>
      <trkpt lat="44.34078" lon="1.03829">
        <ele>246.23</ele>
        <time>2011-09-25T09:39:38Z</time>
      </trkpt>
      <trkpt lat="44.34045" lon="1.03776">
        <ele>245.27</ele>
        <time>2011-09-25T09:39:49Z</time>
      </trkpt>
      <trkpt lat="44.34043" lon="1.0377">
        <ele>245.27</ele>
        <time>2011-09-25T09:39:50Z</time>
      </trkpt>
      <trkpt lat="44.34041" lon="1.03764">
        <ele>244.79</ele>
        <time>2011-09-25T09:39:51Z</time>
      </trkpt>
      <trkpt lat="44.3403" lon="1.03727">
        <ele>243.83</ele>
        <time>2011-09-25T09:39:57Z</time>
      </trkpt>
      <trkpt lat="44.34" lon="1.03633">
        <ele>242.87</ele>
        <time>2011-09-25T09:40:11Z</time>
      </trkpt>
      <trkpt lat="44.33998" lon="1.03627">
        <ele>242.87</ele>
        <time>2011-09-25T09:40:12Z</time>
      </trkpt>
      <trkpt lat="44.33996" lon="1.03621">
        <ele>242.39</ele>
        <time>2011-09-25T09:40:13Z</time>
      </trkpt>
      <trkpt lat="44.33995" lon="1.03615">
        <ele>242.87</ele>
        <time>2011-09-25T09:40:14Z</time>
      </trkpt>
      <trkpt lat="44.33995" lon="1.03609">
        <ele>242.39</ele>
        <time>2011-09-25T09:40:15Z</time>
      </trkpt>
      <trkpt lat="44.33995" lon="1.03603">
        <ele>242.39</ele>
        <time>2011-09-25T09:40:16Z</time>
      </trkpt>
      <trkpt lat="44.33996" lon="1.03597">
        <ele>242.39</ele>
        <time>2011-09-25T09:40:17Z</time>
      </trkpt>
      <trkpt lat="44.33997" lon="1.03591">
        <ele>242.39</ele>
        <time>2011-09-25T09:40:18Z</time>
      </trkpt>
      <trkpt lat="44.33999" lon="1.03585">
        <ele>241.91</ele>
        <time>2011-09-25T09:40:19Z</time>
      </trkpt>
      <trkpt lat="44.34001" lon="1.03579">
        <ele>241.91</ele>
        <time>2011-09-25T09:40:20Z</time>
      </trkpt>
      <trkpt lat="44.34002" lon="1.03572">
        <ele>242.39</ele>
        <time>2011-09-25T09:40:21Z</time>
      </trkpt>
      <trkpt lat="44.34003" lon="1.03565">
        <ele>241.91</ele>
        <time>2011-09-25T09:40:22Z</time>
      </trkpt>
      <trkpt lat="44.34003" lon="1.03499">
        <ele>238.54</ele>
        <time>2011-09-25T09:40:30Z</time>
      </trkpt>
      <trkpt lat="44.34003" lon="1.03466">
        <ele>236.62</ele>
        <time>2011-09-25T09:40:33Z</time>
      </trkpt>
      <trkpt lat="44.3399" lon="1.03355">
        <ele>235.66</ele>
        <time>2011-09-25T09:40:44Z</time>
      </trkpt>
      <trkpt lat="44.33971" lon="1.03262">
        <ele>234.22</ele>
        <time>2011-09-25T09:40:54Z</time>
      </trkpt>
      <trkpt lat="44.33957" lon="1.03234">
        <ele>235.18</ele>
        <time>2011-09-25T09:40:58Z</time>
      </trkpt>
      <trkpt lat="44.33944" lon="1.03212">
        <ele>235.18</ele>
        <time>2011-09-25T09:41:02Z</time>
      </trkpt>
      <trkpt lat="44.33939" lon="1.03203">
        <ele>236.14</ele>
        <time>2011-09-25T09:41:04Z</time>
      </trkpt>
      <trkpt lat="44.33935" lon="1.032">
        <ele>236.14</ele>
        <time>2011-09-25T09:41:05Z</time>
      </trkpt>
      <trkpt lat="44.33931" lon="1.03198">
        <ele>235.66</ele>
        <time>2011-09-25T09:41:06Z</time>
      </trkpt>
      <trkpt lat="44.33925" lon="1.03193">
        <ele>235.18</ele>
        <time>2011-09-25T09:41:08Z</time>
      </trkpt>
      <trkpt lat="44.33921" lon="1.03189">
        <ele>234.7</ele>
        <time>2011-09-25T09:41:09Z</time>
      </trkpt>
      <trkpt lat="44.33919" lon="1.03183">
        <ele>234.7</ele>
        <time>2011-09-25T09:41:10Z</time>
      </trkpt>
      <trkpt lat="44.33905" lon="1.03139">
        <ele>235.18</ele>
        <time>2011-09-25T09:41:19Z</time>
      </trkpt>
      <trkpt lat="44.33899" lon="1.03084">
        <ele>234.22</ele>
        <time>2011-09-25T09:41:27Z</time>
      </trkpt>
      <trkpt lat="44.33899" lon="1.02995">
        <ele>232.3</ele>
        <time>2011-09-25T09:41:38Z</time>
      </trkpt>
      <trkpt lat="44.339" lon="1.0298">
        <ele>232.3</ele>
        <time>2011-09-25T09:41:40Z</time>
      </trkpt>
      <trkpt lat="44.33899" lon="1.02973">
        <ele>232.3</ele>
        <time>2011-09-25T09:41:41Z</time>
      </trkpt>
      <trkpt lat="44.33898" lon="1.02966">
        <ele>232.3</ele>
        <time>2011-09-25T09:41:42Z</time>
      </trkpt>
      <trkpt lat="44.33891" lon="1.02933">
        <ele>231.81</ele>
        <time>2011-09-25T09:41:47Z</time>
      </trkpt>
      <trkpt lat="44.33887" lon="1.02904">
        <ele>231.81</ele>
        <time>2011-09-25T09:41:51Z</time>
      </trkpt>
      <trkpt lat="44.33885" lon="1.02897">
        <ele>231.81</ele>
        <time>2011-09-25T09:41:52Z</time>
      </trkpt>
      <trkpt lat="44.3388" lon="1.02863">
        <ele>231.81</ele>
        <time>2011-09-25T09:41:57Z</time>
      </trkpt>
      <trkpt lat="44.33879" lon="1.02857">
        <ele>231.81</ele>
        <time>2011-09-25T09:41:58Z</time>
      </trkpt>
      <trkpt lat="44.33878" lon="1.0285">
        <ele>231.81</ele>
        <time>2011-09-25T09:41:59Z</time>
      </trkpt>
      <trkpt lat="44.33877" lon="1.02843">
        <ele>231.81</ele>
        <time>2011-09-25T09:42:00Z</time>
      </trkpt>
      <trkpt lat="44.33876" lon="1.02836">
        <ele>231.81</ele>
        <time>2011-09-25T09:42:01Z</time>
      </trkpt>
      <trkpt lat="44.33876" lon="1.02829">
        <ele>231.81</ele>
        <time>2011-09-25T09:42:02Z</time>
      </trkpt>
      <trkpt lat="44.33875" lon="1.02822">
        <ele>231.81</ele>
        <time>2011-09-25T09:42:03Z</time>
      </trkpt>
      <trkpt lat="44.33875" lon="1.02809">
        <ele>231.81</ele>
        <time>2011-09-25T09:42:05Z</time>
      </trkpt>
      <trkpt lat="44.33874" lon="1.02803">
        <ele>231.81</ele>
        <time>2011-09-25T09:42:06Z</time>
      </trkpt>
      <trkpt lat="44.3387" lon="1.0276">
        <ele>231.81</ele>
        <time>2011-09-25T09:42:13Z</time>
      </trkpt>
      <trkpt lat="44.33865" lon="1.02703">
        <ele>231.33</ele>
        <time>2011-09-25T09:42:22Z</time>
      </trkpt>
      <trkpt lat="44.33864" lon="1.0268">
        <ele>231.33</ele>
        <time>2011-09-25T09:42:26Z</time>
      </trkpt>
      <trkpt lat="44.33862" lon="1.02677">
        <ele>231.33</ele>
        <time>2011-09-25T09:42:27Z</time>
      </trkpt>
      <trkpt lat="44.33859" lon="1.02673">
        <ele>231.33</ele>
        <time>2011-09-25T09:42:28Z</time>
      </trkpt>
      <trkpt lat="44.33856" lon="1.0267">
        <ele>231.33</ele>
        <time>2011-09-25T09:42:29Z</time>
      </trkpt>
      <trkpt lat="44.33853" lon="1.02667">
        <ele>230.85</ele>
        <time>2011-09-25T09:42:30Z</time>
      </trkpt>
      <trkpt lat="44.33849" lon="1.02665">
        <ele>231.33</ele>
        <time>2011-09-25T09:42:31Z</time>
      </trkpt>
      <trkpt lat="44.33842" lon="1.02663">
        <ele>230.85</ele>
        <time>2011-09-25T09:42:33Z</time>
      </trkpt>
      <trkpt lat="44.33817" lon="1.02653">
        <ele>229.41</ele>
        <time>2011-09-25T09:42:39Z</time>
      </trkpt>
      <trkpt lat="44.33813" lon="1.0265">
        <ele>229.41</ele>
        <time>2011-09-25T09:42:40Z</time>
      </trkpt>
      <trkpt lat="44.33809" lon="1.02649">
        <ele>228.93</ele>
        <time>2011-09-25T09:42:41Z</time>
      </trkpt>
      <trkpt lat="44.33805" lon="1.0265">
        <ele>228.93</ele>
        <time>2011-09-25T09:42:42Z</time>
      </trkpt>
      <trkpt lat="44.33801" lon="1.02653">
        <ele>227.49</ele>
        <time>2011-09-25T09:42:43Z</time>
      </trkpt>
      <trkpt lat="44.33798" lon="1.02656">
        <ele>227.97</ele>
        <time>2011-09-25T09:42:44Z</time>
      </trkpt>
      <trkpt lat="44.33794" lon="1.02658">
        <ele>227.01</ele>
        <time>2011-09-25T09:42:45Z</time>
      </trkpt>
      <trkpt lat="44.33791" lon="1.02658">
        <ele>227.01</ele>
        <time>2011-09-25T09:42:46Z</time>
      </trkpt>
      <trkpt lat="44.33782" lon="1.0265">
        <ele>223.64</ele>
        <time>2011-09-25T09:42:52Z</time>
      </trkpt>
      <trkpt lat="44.33772" lon="1.02648">
        <ele>218.84</ele>
        <time>2011-09-25T09:42:59Z</time>
      </trkpt>
      <trkpt lat="44.33764" lon="1.02655">
        <ele>216.43</ele>
        <time>2011-09-25T09:43:02Z</time>
      </trkpt>
      <trkpt lat="44.3376" lon="1.02659">
        <ele>215.47</ele>
        <time>2011-09-25T09:43:03Z</time>
      </trkpt>
      <trkpt lat="44.33756" lon="1.02663">
        <ele>214.99</ele>
        <time>2011-09-25T09:43:04Z</time>
      </trkpt>
      <trkpt lat="44.33753" lon="1.02666">
        <ele>214.51</ele>
        <time>2011-09-25T09:43:05Z</time>
      </trkpt>
      <trkpt lat="44.33741" lon="1.02674">
        <ele>212.59</ele>
        <time>2011-09-25T09:43:08Z</time>
      </trkpt>
      <trkpt lat="44.33737" lon="1.02677">
        <ele>212.11</ele>
        <time>2011-09-25T09:43:09Z</time>
      </trkpt>
      <trkpt lat="44.33723" lon="1.02684">
        <ele>208.74</ele>
        <time>2011-09-25T09:43:12Z</time>
      </trkpt>
      <trkpt lat="44.33715" lon="1.02693">
        <ele>207.3</ele>
        <time>2011-09-25T09:43:14Z</time>
      </trkpt>
      <trkpt lat="44.33707" lon="1.02703">
        <ele>206.34</ele>
        <time>2011-09-25T09:43:16Z</time>
      </trkpt>
      <trkpt lat="44.33704" lon="1.02708">
        <ele>205.86</ele>
        <time>2011-09-25T09:43:17Z</time>
      </trkpt>
      <trkpt lat="44.33699" lon="1.0272">
        <ele>204.42</ele>
        <time>2011-09-25T09:43:19Z</time>
      </trkpt>
      <trkpt lat="44.33695" lon="1.02734">
        <ele>203.46</ele>
        <time>2011-09-25T09:43:21Z</time>
      </trkpt>
      <trkpt lat="44.33694" lon="1.02741">
        <ele>202.98</ele>
        <time>2011-09-25T09:43:22Z</time>
      </trkpt>
      <trkpt lat="44.33693" lon="1.02749">
        <ele>202.98</ele>
        <time>2011-09-25T09:43:23Z</time>
      </trkpt>
      <trkpt lat="44.33692" lon="1.02758">
        <ele>202.01</ele>
        <time>2011-09-25T09:43:24Z</time>
      </trkpt>
      <trkpt lat="44.33692" lon="1.02766">
        <ele>201.53</ele>
        <time>2011-09-25T09:43:25Z</time>
      </trkpt>
      <trkpt lat="44.33693" lon="1.02775">
        <ele>201.05</ele>
        <time>2011-09-25T09:43:26Z</time>
      </trkpt>
      <trkpt lat="44.33693" lon="1.02783">
        <ele>200.09</ele>
        <time>2011-09-25T09:43:27Z</time>
      </trkpt>
      <trkpt lat="44.33695" lon="1.0279">
        <ele>200.09</ele>
        <time>2011-09-25T09:43:28Z</time>
      </trkpt>
      <trkpt lat="44.33701" lon="1.02813">
        <ele>199.13</ele>
        <time>2011-09-25T09:43:31Z</time>
      </trkpt>
      <trkpt lat="44.33714" lon="1.0284">
        <ele>198.65</ele>
        <time>2011-09-25T09:43:35Z</time>
      </trkpt>
      <trkpt lat="44.33718" lon="1.02854">
        <ele>197.69</ele>
        <time>2011-09-25T09:43:37Z</time>
      </trkpt>
      <trkpt lat="44.33719" lon="1.02861">
        <ele>196.73</ele>
        <time>2011-09-25T09:43:38Z</time>
      </trkpt>
      <trkpt lat="44.33719" lon="1.02868">
        <ele>196.25</ele>
        <time>2011-09-25T09:43:39Z</time>
      </trkpt>
      <trkpt lat="44.33719" lon="1.02876">
        <ele>195.28</ele>
        <time>2011-09-25T09:43:40Z</time>
      </trkpt>
      <trkpt lat="44.33717" lon="1.02884">
        <ele>194.8</ele>
        <time>2011-09-25T09:43:41Z</time>
      </trkpt>
      <trkpt lat="44.33715" lon="1.02891">
        <ele>194.8</ele>
        <time>2011-09-25T09:43:42Z</time>
      </trkpt>
      <trkpt lat="44.33713" lon="1.02897">
        <ele>194.32</ele>
        <time>2011-09-25T09:43:43Z</time>
      </trkpt>
      <trkpt lat="44.33711" lon="1.02901">
        <ele>194.32</ele>
        <time>2011-09-25T09:43:44Z</time>
      </trkpt>
      <trkpt lat="44.33707" lon="1.02904">
        <ele>193.36</ele>
        <time>2011-09-25T09:43:45Z</time>
      </trkpt>
      <trkpt lat="44.33703" lon="1.02903">
        <ele>192.4</ele>
        <time>2011-09-25T09:43:46Z</time>
      </trkpt>
      <trkpt lat="44.33699" lon="1.02902">
        <ele>191.44</ele>
        <time>2011-09-25T09:43:47Z</time>
      </trkpt>
      <trkpt lat="44.33687" lon="1.02898">
        <ele>188.08</ele>
        <time>2011-09-25T09:43:49Z</time>
      </trkpt>
      <trkpt lat="44.33675" lon="1.02894">
        <ele>184.71</ele>
        <time>2011-09-25T09:43:51Z</time>
      </trkpt>
      <trkpt lat="44.33653" lon="1.02889">
        <ele>181.35</ele>
        <time>2011-09-25T09:43:54Z</time>
      </trkpt>
      <trkpt lat="44.33632" lon="1.02882">
        <ele>179.9</ele>
        <time>2011-09-25T09:43:58Z</time>
      </trkpt>
      <trkpt lat="44.33624" lon="1.02877">
        <ele>178.94</ele>
        <time>2011-09-25T09:44:00Z</time>
      </trkpt>
      <trkpt lat="44.33621" lon="1.02873">
        <ele>177.5</ele>
        <time>2011-09-25T09:44:01Z</time>
      </trkpt>
      <trkpt lat="44.3362" lon="1.02867">
        <ele>177.98</ele>
        <time>2011-09-25T09:44:02Z</time>
      </trkpt>
      <trkpt lat="44.3362" lon="1.02861">
        <ele>177.5</ele>
        <time>2011-09-25T09:44:03Z</time>
      </trkpt>
      <trkpt lat="44.3362" lon="1.02855">
        <ele>177.02</ele>
        <time>2011-09-25T09:44:04Z</time>
      </trkpt>
      <trkpt lat="44.33621" lon="1.02849">
        <ele>177.02</ele>
        <time>2011-09-25T09:44:05Z</time>
      </trkpt>
      <trkpt lat="44.33626" lon="1.02752">
        <ele>177.02</ele>
        <time>2011-09-25T09:44:17Z</time>
      </trkpt>
      <trkpt lat="44.33618" lon="1.02626">
        <ele>174.14</ele>
        <time>2011-09-25T09:44:32Z</time>
      </trkpt>
      <trkpt lat="44.33609" lon="1.02562">
        <ele>172.69</ele>
        <time>2011-09-25T09:44:39Z</time>
      </trkpt>
      <trkpt lat="44.33608" lon="1.02553">
        <ele>172.69</ele>
        <time>2011-09-25T09:44:40Z</time>
      </trkpt>
      <trkpt lat="44.33584" lon="1.02379">
        <ele>171.25</ele>
        <time>2011-09-25T09:44:58Z</time>
      </trkpt>
      <trkpt lat="44.33553" lon="1.02263">
        <ele>171.73</ele>
        <time>2011-09-25T09:45:11Z</time>
      </trkpt>
      <trkpt lat="44.33541" lon="1.02161">
        <ele>172.21</ele>
        <time>2011-09-25T09:45:25Z</time>
      </trkpt>
      <trkpt lat="44.33542" lon="1.02154">
        <ele>172.21</ele>
        <time>2011-09-25T09:45:26Z</time>
      </trkpt>
      <trkpt lat="44.33543" lon="1.02147">
        <ele>172.21</ele>
        <time>2011-09-25T09:45:27Z</time>
      </trkpt>
      <trkpt lat="44.33553" lon="1.02113">
        <ele>172.21</ele>
        <time>2011-09-25T09:45:32Z</time>
      </trkpt>
      <trkpt lat="44.33593" lon="1.02044">
        <ele>172.21</ele>
        <time>2011-09-25T09:45:44Z</time>
      </trkpt>
      <trkpt lat="44.3363" lon="1.02015">
        <ele>171.25</ele>
        <time>2011-09-25T09:45:52Z</time>
      </trkpt>
      <trkpt lat="44.33635" lon="1.02013">
        <ele>171.73</ele>
        <time>2011-09-25T09:45:53Z</time>
      </trkpt>
      <trkpt lat="44.3364" lon="1.02012">
        <ele>171.73</ele>
        <time>2011-09-25T09:45:54Z</time>
      </trkpt>
      <trkpt lat="44.33654" lon="1.02009">
        <ele>173.66</ele>
        <time>2011-09-25T09:45:58Z</time>
      </trkpt>
      <trkpt lat="44.33684" lon="1.02003">
        <ele>171.73</ele>
        <time>2011-09-25T09:46:05Z</time>
      </trkpt>
      <trkpt lat="44.33762" lon="1.01967">
        <ele>168.85</ele>
        <time>2011-09-25T09:46:19Z</time>
      </trkpt>
      <trkpt lat="44.33798" lon="1.01949">
        <ele>165.96</ele>
        <time>2011-09-25T09:46:24Z</time>
      </trkpt>
      <trkpt lat="44.33827" lon="1.0193">
        <ele>162.6</ele>
        <time>2011-09-25T09:46:28Z</time>
      </trkpt>
      <trkpt lat="44.33833" lon="1.01924">
        <ele>162.12</ele>
        <time>2011-09-25T09:46:29Z</time>
      </trkpt>
      <trkpt lat="44.33838" lon="1.01918">
        <ele>162.12</ele>
        <time>2011-09-25T09:46:30Z</time>
      </trkpt>
      <trkpt lat="44.33853" lon="1.01896">
        <ele>161.16</ele>
        <time>2011-09-25T09:46:34Z</time>
      </trkpt>
      <trkpt lat="44.33856" lon="1.01894">
        <ele>161.16</ele>
        <time>2011-09-25T09:46:35Z</time>
      </trkpt>
      <trkpt lat="44.33859" lon="1.01893">
        <ele>161.16</ele>
        <time>2011-09-25T09:46:36Z</time>
      </trkpt>
      <trkpt lat="44.33861" lon="1.01895">
        <ele>161.16</ele>
        <time>2011-09-25T09:46:37Z</time>
      </trkpt>
      <trkpt lat="44.33864" lon="1.01897">
        <ele>161.16</ele>
        <time>2011-09-25T09:46:38Z</time>
      </trkpt>
      <trkpt lat="44.33867" lon="1.019">
        <ele>161.64</ele>
        <time>2011-09-25T09:46:39Z</time>
      </trkpt>
      <trkpt lat="44.33869" lon="1.01904">
        <ele>160.68</ele>
        <time>2011-09-25T09:46:40Z</time>
      </trkpt>
      <trkpt lat="44.33872" lon="1.01909">
        <ele>160.68</ele>
        <time>2011-09-25T09:46:41Z</time>
      </trkpt>
      <trkpt lat="44.33888" lon="1.01954">
        <ele>160.2</ele>
        <time>2011-09-25T09:46:49Z</time>
      </trkpt>
      <trkpt lat="44.33921" lon="1.02031">
        <ele>160.68</ele>
        <time>2011-09-25T09:47:03Z</time>
      </trkpt>
      <trkpt lat="44.33924" lon="1.02035">
        <ele>161.16</ele>
        <time>2011-09-25T09:47:04Z</time>
      </trkpt>
      <trkpt lat="44.33928" lon="1.02038">
        <ele>161.16</ele>
        <time>2011-09-25T09:47:05Z</time>
      </trkpt>
      <trkpt lat="44.33932" lon="1.0204">
        <ele>161.16</ele>
        <time>2011-09-25T09:47:06Z</time>
      </trkpt>
      <trkpt lat="44.33936" lon="1.02042">
        <ele>161.64</ele>
        <time>2011-09-25T09:47:07Z</time>
      </trkpt>
      <trkpt lat="44.3395" lon="1.02054">
        <ele>162.12</ele>
        <time>2011-09-25T09:47:12Z</time>
      </trkpt>
      <trkpt lat="44.33954" lon="1.02054">
        <ele>161.64</ele>
        <time>2011-09-25T09:47:13Z</time>
      </trkpt>
      <trkpt lat="44.33986" lon="1.02051">
        <ele>162.12</ele>
        <time>2011-09-25T09:47:22Z</time>
      </trkpt>
      <trkpt lat="44.33989" lon="1.02054">
        <ele>162.12</ele>
        <time>2011-09-25T09:47:23Z</time>
      </trkpt>
      <trkpt lat="44.34023" lon="1.02098">
        <ele>162.6</ele>
        <time>2011-09-25T09:47:38Z</time>
      </trkpt>
      <trkpt lat="44.34044" lon="1.02095">
        <ele>162.6</ele>
        <time>2011-09-25T09:47:51Z</time>
      </trkpt>
      <trkpt lat="44.34057" lon="1.02083">
        <ele>162.6</ele>
        <time>2011-09-25T09:48:04Z</time>
      </trkpt>
      <trkpt lat="44.34058" lon="1.02081">
        <ele>162.6</ele>
        <time>2011-09-25T09:48:20Z</time>
      </trkpt>
      <trkpt lat="44.34059" lon="1.02079">
        <ele>162.6</ele>
        <time>2011-09-25T09:48:35Z</time>
      </trkpt>
      <trkpt lat="44.34059" lon="1.02079">
        <ele>163.56</ele>
        <time>2011-09-25T09:48:55Z</time>
      </trkpt>
      <trkpt lat="44.3406" lon="1.02076">
        <ele>162.6</ele>
        <time>2011-09-25T09:49:09Z</time>
      </trkpt>
      <trkpt lat="44.3407" lon="1.02074">
        <ele>163.08</ele>
        <time>2011-09-25T09:49:21Z</time>
      </trkpt>
      <trkpt lat="44.34079" lon="1.02074">
        <ele>163.56</ele>
        <time>2011-09-25T09:49:27Z</time>
      </trkpt>
      <trkpt lat="44.34084" lon="1.02067">
        <ele>163.56</ele>
        <time>2011-09-25T09:49:32Z</time>
      </trkpt>
      <trkpt lat="44.34092" lon="1.02064">
        <ele>163.08</ele>
        <time>2011-09-25T09:49:36Z</time>
      </trkpt>
      <trkpt lat="44.34126" lon="1.02061">
        <ele>162.6</ele>
        <time>2011-09-25T09:49:51Z</time>
      </trkpt>
      <trkpt lat="44.34145" lon="1.02062">
        <ele>159.72</ele>
        <time>2011-09-25T09:50:03Z</time>
      </trkpt>
      <trkpt lat="44.34146" lon="1.02063">
        <ele>163.08</ele>
        <time>2011-09-25T09:50:04Z</time>
      </trkpt>
    </trkseg>
  </trk>
</gpx>